[[{"header":{"parameterUnit":"m.s-1","parameterCategory":1,"la1":30.6,"la2":28.766,"lo1":-90.7593,"lo2":-88.6598,"dy":0.0162,"dx":0.0183,"nx":116,"ny":114,"refTime":"2023-03-22T06:00:00:Z","depth":0,"parameterNumber":2,"parameterNumberName":"U-component_of_WINDS"},"data":[0.0,0.0,0.0,0.0,0.0,0.0,0.0,0.0,0.0,0.0,0.0,0.0,0.0,0.0,0.0,0.0,0.0,0.0,0.0,0.0,0.0,0.0,0.0,0.0,0.0,0.0,0.0,0.0,0.0,0.0,0.0,0.0,0.0,0.0,0.0,0.0,0.0,0.0,0.0,0.0,0.0,0.0,0.0,0.0,0.0,0.0,0.0,0.0,0.0,0.0,0.0,0.0,0.0,0.0,0.0,0.0,0.0,0.0,0.0,0.0,0.0,0.0,0.0,0.0,0.0,0.0,0.0,0.0,0.0,0.0,0.0,0.0,0.0,0.0,0.0,0.0,0.0,0.0,0.0,0.0,0.0,0.0,0.0,0.0,0.0,0.0,0.0,0.0,0.0,0.0,0.0,0.0,0.0,0.0,0.0,0.0,0.0,0.0,0.0,0.0,0.0,0.0,0.0,0.0,0.0,0.0,0.0,0.0,0.0,0.0,0.0,0.0,0.0,0.0,0.0,0.0,0.0,0.0,0.0,0.0,0.0,0.0,0.0,0.0,0.0,0.0,0.0,0.0,0.0,0.0,0.0,0.0,0.0,0.0,0.0,0.0,0.0,0.0,0.0,0.0,0.0,0.0,0.0,0.0,0.0,0.0,0.0,0.0,0.0,0.0,0.0,0.0,0.0,0.0,0.0,0.0,0.0,0.0,0.0,0.0,0.0,0.0,0.0,0.0,0.0,0.0,0.0,0.0,0.0,0.0,0.0,0.0,0.0,0.0,0.0,0.0,0.0,0.0,0.0,0.0,0.0,0.0,0.0,0.0,0.0,0.0,0.0,0.0,0.0,0.0,0.0,0.0,0.0,0.0,0.0,0.0,0.0,0.0,0.0,0.0,0.0,0.0,0.0,0.0,0.0,0.0,0.0,0.0,0.0,0.0,0.0,0.0,0.0,0.0,0.0,0.0,0.0,0.0,0.0,0.0,0.0,0.0,0.0,0.0,0.0,0.0,0.0,0.0,0.0,0.0,0.0,0.0,0.0,0.0,0.0,0.0,0.0,0.0,0.0,0.0,0.0,0.0,0.0,0.0,0.0,0.0,0.0,0.0,0.0,0.0,0.0,0.0,0.0,0.0,0.0,0.0,0.0,0.0,0.0,0.0,0.0,0.0,0.0,0.0,0.0,0.0,0.0,0.0,0.0,0.0,0.0,0.0,0.0,0.0,0.0,0.0,0.0,0.0,0.0,0.0,0.0,0.0,0.0,0.0,0.0,0.0,0.0,0.0,0.0,0.0,0.0,0.0,0.0,0.0,0.0,0.0,0.0,0.0,0.0,0.0,0.0,0.0,0.0,0.0,0.0,0.0,0.0,0.0,0.0,0.0,0.0,0.0,0.0,0.0,0.0,0.0,0.0,0.0,0.0,0.0,0.0,0.0,0.0,0.0,0.0,0.0,0.0,0.0,0.0,0.0,0.0,0.0,0.0,0.0,0.0,0.0,0.0,0.0,0.0,0.0,0.0,0.0,0.0,0.0,0.0,0.0,0.0,0.0,0.0,0.0,0.0,0.0,0.0,0.0,0.0,0.0,0.0,0.0,0.0,0.0,0.0,0.0,0.0,0.0,0.0,0.0,0.0,0.0,0.0,0.0,0.0,0.0,0.0,0.0,0.0,0.0,0.0,0.0,0.0,0.0,0.0,0.0,0.0,0.0,0.0,0.0,0.0,0.0,0.0,0.0,0.0,0.0,0.0,0.0,0.0,0.0,0.0,0.0,0.0,0.0,0.0,0.0,0.0,0.0,0.0,0.0,0.0,0.0,0.0,0.0,0.0,0.0,0.0,0.0,0.0,0.0,0.0,0.0,0.0,0.0,0.0,0.0,0.0,0.0,0.0,0.0,0.0,0.0,0.0,0.0,0.0,0.0,0.0,0.0,0.0,0.0,0.0,0.0,0.0,0.0,0.0,0.0,0.0,0.0,0.0,0.0,0.0,0.0,0.0,0.0,0.0,0.0,0.0,0.0,0.0,0.0,0.0,0.0,0.0,0.0,0.0,0.0,0.0,0.0,0.0,0.0,0.0,0.0,0.0,0.0,0.0,0.0,0.0,0.0,0.0,0.0,0.0,0.0,0.0,0.0,0.0,0.0,0.0,0.0,0.0,0.0,0.0,0.0,0.0,0.0,0.0,0.0,0.0,0.0,0.0,0.0,0.0,0.0,0.0,0.0,0.0,0.0,0.0,0.0,0.0,0.0,0.0,0.0,0.0,0.0,0.0,0.0,0.0,0.0,0.0,0.0,0.0,0.0,0.0,0.0,0.0,0.0,0.0,0.0,0.0,0.0,0.0,0.0,0.0,0.0,0.0,0.0,0.0,0.0,0.0,0.0,0.0,0.0,0.0,0.0,0.0,0.0,0.0,0.0,0.0,0.0,0.0,0.0,0.0,0.0,0.0,0.0,0.0,0.0,0.0,0.0,0.0,0.0,0.0,0.0,0.0,0.0,0.0,0.0,0.0,0.0,0.0,0.0,0.0,0.0,0.0,0.0,0.0,0.0,0.0,0.0,0.0,0.0,0.0,0.0,0.0,0.0,0.0,0.0,0.0,0.0,0.0,0.0,0.0,0.0,0.0,0.0,0.0,0.0,0.0,0.0,0.0,0.0,0.0,0.0,0.0,0.0,0.0,0.0,0.0,0.0,0.0,0.0,0.0,0.0,0.0,0.0,0.0,0.0,0.0,0.0,0.0,0.0,0.0,0.0,0.0,0.0,0.0,0.0,0.0,0.0,0.0,0.0,0.0,0.0,0.0,0.0,0.0,0.0,0.0,0.0,0.0,0.0,0.0,0.0,0.0,0.0,0.0,0.0,0.0,0.0,0.0,0.0,0.0,0.0,0.0,0.0,0.0,0.0,0.0,0.0,0.0,0.0,0.0,0.0,0.0,0.0,0.0,0.0,0.0,0.0,0.0,0.0,0.0,0.0,0.0,0.0,0.0,0.0,0.0,0.0,0.0,0.0,0.0,0.0,0.0,0.0,0.0,0.0,0.0,0.0,0.0,0.0,0.0,0.0,0.0,0.0,0.0,0.0,0.0,0.0,0.0,0.0,0.0,0.0,0.0,0.0,0.0,0.0,0.0,0.0,0.0,0.0,0.0,0.0,0.0,0.0,0.0,0.0,0.0,0.0,0.0,0.0,0.0,0.0,0.0,0.0,0.0,0.0,0.0,0.0,0.0,0.0,0.0,0.0,0.0,0.0,0.0,0.0,0.0,0.0,0.0,0.0,0.0,0.0,0.0,0.0,0.0,0.0,0.0,0.0,0.0,0.0,0.0,0.0,0.0,0.0,0.0,0.0,0.0,0.0,0.0,0.0,0.0,0.0,0.0,0.0,0.0,0.0,0.0,0.0,0.0,0.0,0.0,0.0,0.0,0.0,0.0,0.0,0.0,0.0,0.0,0.0,0.0,0.0,0.0,0.0,0.0,0.0,0.0,0.0,0.0,0.0,0.0,0.0,0.0,0.0,0.0,0.0,0.0,0.0,0.0,0.0,0.0,0.0,0.0,0.0,0.0,0.0,0.0,0.0,0.0,0.0,0.0,0.0,0.0,0.0,0.0,0.0,0.0,0.0,0.0,0.0,0.0,0.0,0.0,0.0,0.0,0.0,0.0,0.0,0.0,0.0,0.0,0.0,0.0,0.0,0.0,0.0,0.0,0.0,0.0,0.0,0.0,0.0,0.0,0.0,0.0,0.0,0.0,0.0,0.0,0.0,0.0,0.0,0.0,0.0,0.0,0.0,0.0,0.0,0.0,0.0,0.0,0.0,0.0,0.0,0.0,0.0,0.0,0.0,0.0,0.0,0.0,0.0,0.0,0.0,0.0,0.0,0.0,0.0,0.0,0.0,0.0,0.0,0.0,0.0,0.0,0.0,0.0,0.0,0.0,0.0,0.0,0.0,0.0,0.0,0.0,0.0,0.0,0.0,0.0,0.0,0.0,0.0,0.0,0.0,0.0,0.0,0.0,0.0,0.0,0.0,0.0,0.0,0.0,0.0,0.0,0.0,0.0,0.0,0.0,0.0,0.0,0.0,0.0,0.0,0.0,0.0,0.0,0.0,0.0,0.0,0.0,0.0,0.0,0.0,0.0,0.0,0.0,0.0,0.0,0.0,0.0,0.0,0.0,0.0,0.0,0.0,0.0,0.0,0.0,0.0,0.0,0.0,0.0,0.0,0.0,0.0,0.0,0.0,0.0,0.0,0.0,0.0,0.0,0.0,0.0,0.0,0.0,0.0,0.0,0.0,0.0,0.0,0.0,0.0,0.0,0.0,0.0,0.0,0.0,0.0,0.0,0.0,0.0,0.0,0.0,0.0,0.0,0.0,0.0,0.0,0.0,0.0,0.0,0.0,0.0,0.0,0.0,0.0,0.0,0.0,0.0,0.0,0.0,0.0,0.0,0.0,0.0,0.0,0.0,0.0,0.0,0.0,0.0,0.0,0.0,0.0,0.0,0.0,0.0,0.0,0.0,0.0,0.0,0.0,0.0,0.0,0.0,0.0,0.0,0.0,0.0,0.0,0.0,0.0,0.0,0.0,0.0,0.0,0.0,0.0,0.0,0.0,0.0,0.0,0.0,0.0,0.0,0.0,0.0,0.0,0.0,0.0,0.0,0.0,0.0,0.0,0.0,0.0,0.0,0.0,0.0,0.0,0.0,0.0,0.0,0.0,0.0,0.0,0.0,0.0,0.0,0.0,0.0,0.0,0.0,0.0,0.0,0.0,0.0,0.0,0.0,0.0,0.0,0.0,0.0,0.0,0.0,0.0,0.0,0.0,0.0,0.0,0.0,0.0,0.0,0.0,0.0,0.0,0.0,0.0,0.0,0.0,0.0,0.0,0.0,0.0,0.0,0.0,0.0,0.0,0.0,0.0,0.0,0.0,0.0,0.0,0.0,0.0,0.0,0.0,0.0,0.0,0.0,0.0,0.0,0.0,0.0,0.0,0.0,0.0,0.0,0.0,0.0,0.0,0.0,0.0,0.0,0.0,0.0,0.0,0.0,0.0,0.0,0.0,0.0,0.0,0.0,0.0,0.0,0.0,0.0,0.0,0.0,0.0,0.0,0.0,0.0,0.0,0.0,0.0,0.0,0.0,0.0,0.0,0.0,0.0,0.0,0.0,0.0,0.0,0.0,0.0,0.0,0.0,0.0,0.0,0.0,0.0,0.0,0.0,0.0,0.0,0.0,0.0,0.0,0.0,0.0,0.0,0.0,0.0,0.0,0.0,0.0,0.0,0.0,0.0,0.0,0.0,0.0,0.0,0.0,0.0,0.0,0.0,0.0,0.0,0.0,0.0,0.0,0.0,0.0,0.0,0.0,0.0,0.0,0.0,0.0,0.0,0.0,0.0,0.0,0.0,0.0,0.0,0.0,0.0,0.0,0.0,0.0,0.0,0.0,0.0,0.0,0.0,0.0,0.0,0.0,0.0,0.0,0.0,0.0,0.0,0.0,0.0,0.0,0.0,0.0,0.0,0.0,0.0,0.0,0.0,0.0,0.0,0.0,0.0,0.0,0.0,0.0,0.0,0.0,0.0,0.0,0.0,0.0,0.0,0.0,0.0,0.0,0.0,0.0,0.0,0.0,0.0,0.0,0.0,0.0,0.0,0.0,0.0,0.0,0.0,0.0,0.0,0.0,0.0,0.0,0.0,0.0,0.0,0.0,0.0,0.0,0.0,0.0,0.0,0.0,0.0,0.0,0.0,0.0,0.0,0.0,0.0,0.0,0.0,0.0,0.0,0.0,0.0,0.0,0.0,0.0,0.0,0.0,0.0,0.0,0.0,0.0,0.0,0.0,0.0,0.0,0.0,0.0,0.0,0.0,0.0,0.0,0.0,0.0,0.0,0.0,0.0,0.0,0.0,0.0,0.0,0.0,0.0,0.0,0.0,0.0,0.0,0.0,0.0,0.0,0.0,0.0,0.0,0.0,0.0,0.0,0.0,0.0,0.0,0.0,0.0,0.0,0.0,0.0,0.0,0.0,0.0,0.0,0.0,0.0,0.0,0.0,0.0,0.0,0.0,0.0,0.0,0.0,0.0,0.0,0.0,0.0,0.0,0.0,0.0,-2.4666,0.0,0.0,0.0,0.0,0.0,0.0,0.0,0.0,0.0,0.0,0.0,0.0,0.0,0.0,0.0,0.0,0.0,0.0,0.0,0.0,0.0,0.0,0.0,0.0,0.0,0.0,0.0,0.0,0.0,0.0,0.0,0.0,0.0,0.0,0.0,0.0,0.0,0.0,0.0,-1.4428,-1.3064,-1.1198,-1.2876,-1.4271,-1.5411,0.0,0.0,0.0,0.0,0.0,0.0,0.0,0.0,0.0,0.0,0.0,0.0,0.0,0.0,0.0,0.0,0.0,0.0,0.0,0.0,0.0,0.0,0.0,0.0,0.0,0.0,0.0,0.0,0.0,0.0,0.0,0.0,0.0,0.0,0.0,0.0,0.0,0.0,0.0,0.0,0.0,0.0,0.0,0.0,0.0,0.0,0.0,0.0,0.0,0.0,0.0,0.0,0.0,0.0,0.0,0.0,0.0,0.0,0.0,0.0,0.0,0.0,0.0,0.0,0.0,0.0,0.0,0.0,0.0,0.0,0.0,-2.4746,0.0,0.0,0.0,0.0,0.0,0.0,0.0,0.0,0.0,0.0,0.0,0.0,0.0,0.0,0.0,0.0,0.0,0.0,0.0,0.0,0.0,0.0,0.0,0.0,0.0,0.0,0.0,0.0,0.0,0.0,0.0,0.0,0.0,0.0,0.0,0.0,0.0,0.0,-1.3067,-1.1317,-0.9099,-0.9943,-1.1142,-1.2659,-1.4293,0.0,0.0,0.0,0.0,0.0,0.0,0.0,0.0,0.0,0.0,0.0,0.0,0.0,0.0,0.0,0.0,0.0,0.0,0.0,0.0,0.0,0.0,0.0,0.0,0.0,0.0,0.0,0.0,0.0,0.0,0.0,0.0,0.0,0.0,0.0,0.0,0.0,0.0,0.0,0.0,0.0,0.0,0.0,0.0,0.0,0.0,0.0,0.0,0.0,0.0,0.0,0.0,0.0,0.0,0.0,0.0,0.0,0.0,0.0,0.0,0.0,0.0,0.0,-2.4191,-2.4103,-2.4103,-2.417,-2.419,-2.4218,-2.4543,-2.4599,-2.4469,0.0,0.0,0.0,0.0,0.0,0.0,0.0,0.0,0.0,0.0,0.0,0.0,0.0,0.0,0.0,0.0,0.0,0.0,0.0,0.0,0.0,0.0,0.0,-1.5842,-1.6457,-1.65,-1.65,0.0,0.0,0.0,0.0,0.0,0.0,0.0,-1.621,-1.4767,-1.2859,-0.9855,-0.7899,-0.702,-0.8351,-0.9094,-0.9427,-1.1953,-1.3108,-1.3249,0.0,0.0,0.0,0.0,0.0,0.0,0.0,0.0,0.0,0.0,0.0,0.0,0.0,0.0,0.0,0.0,0.0,0.0,0.0,0.0,0.0,0.0,0.0,0.0,0.0,0.0,0.0,0.0,0.0,0.0,0.0,0.0,0.0,0.0,0.0,0.0,0.0,0.0,0.0,0.0,0.0,-2.4551,-2.4512,0.0,0.0,0.0,0.0,0.0,0.0,0.0,0.0,0.0,0.0,0.0,0.0,0.0,-2.4436,-2.4275,-2.3959,-2.3808,-2.3808,-2.3777,-2.3774,-2.3785,-2.4074,-2.419,-2.4199,-2.4266,0.0,-2.4247,-2.4294,0.0,0.0,0.0,0.0,0.0,0.0,0.0,0.0,0.0,0.0,0.0,0.0,0.0,0.0,0.0,0.0,0.0,0.0,0.0,0.0,0.0,-1.4971,-1.4631,-1.4892,-1.4574,-1.4677,-1.5395,0.0,0.0,0.0,0.0,0.0,-1.7312,-1.5801,-1.3672,-1.0921,-0.8729,-0.7299,-0.6615,-0.7646,-0.8125,-0.8204,-0.9805,-1.1123,-1.2203,-1.3182,0.0,0.0,0.0,0.0,0.0,0.0,0.0,0.0,0.0,0.0,0.0,0.0,0.0,0.0,0.0,0.0,0.0,0.0,0.0,0.0,0.0,0.0,0.0,0.0,0.0,0.0,0.0,0.0,0.0,0.0,0.0,0.0,0.0,0.0,0.0,0.0,0.0,0.0,0.0,-2.4809,-2.467,-2.467,-2.4393,-2.4284,0.0,0.0,0.0,0.0,0.0,0.0,0.0,0.0,0.0,-2.4348,-2.4321,-2.4284,-2.419,-2.4046,-2.3986,-2.3986,-2.3986,-2.3986,-2.3986,-2.4123,-2.419,-2.4226,-2.4677,-2.4879,-2.4852,-2.4515,-2.4366,-2.4393,0.0,0.0,0.0,0.0,-2.5218,-2.5107,0.0,0.0,0.0,0.0,0.0,0.0,0.0,0.0,0.0,0.0,0.0,0.0,-1.5263,-1.3886,-1.3063,-1.3415,-1.2986,-1.3236,-1.4529,0.0,0.0,0.0,0.0,-1.7572,-1.7286,-1.4856,-1.2215,-0.9365,-0.8258,-0.7429,-0.6885,-0.7643,-0.799,-0.8017,-0.8738,-0.9773,-1.104,-1.2272,-1.3529,-1.4786,0.0,0.0,0.0,0.0,0.0,0.0,0.0,0.0,0.0,0.0,0.0,0.0,0.0,0.0,0.0,0.0,0.0,0.0,0.0,0.0,0.0,0.0,0.0,0.0,0.0,0.0,0.0,0.0,0.0,0.0,0.0,0.0,0.0,0.0,0.0,0.0,0.0,-2.4836,-2.4723,-2.4723,-2.44,-2.4321,0.0,0.0,0.0,0.0,0.0,0.0,-2.4426,-2.4409,-2.4348,-2.4199,-2.419,-2.419,-2.419,-2.4392,-2.4511,-2.4511,-2.4722,-2.4814,-2.4814,-2.4814,-2.4814,-2.485,-2.5448,-2.5705,-2.566,-2.5218,-2.5031,-2.5058,-2.5268,-2.5316,-2.5343,-2.5984,-2.6102,-2.6015,0.0,0.0,0.0,0.0,0.0,0.0,0.0,0.0,0.0,0.0,0.0,-1.3127,-1.4484,-1.2378,-1.1351,-1.2632,-1.2728,-1.3236,-1.4529,-1.5589,-1.6734,-1.8013,-1.8554,-1.8313,-1.724,-1.3067,-1.0195,-0.875,-0.8051,-0.767,-0.767,-0.8401,-0.8752,-0.8778,-0.9458,-0.9458,-0.9028,-1.0381,-1.1592,-1.2866,-1.5338,0.0,0.0,0.0,0.0,0.0,0.0,0.0,0.0,0.0,0.0,0.0,0.0,0.0,0.0,0.0,0.0,0.0,0.0,0.0,0.0,0.0,0.0,0.0,0.0,0.0,0.0,0.0,0.0,0.0,0.0,0.0,0.0,0.0,0.0,0.0,0.0,0.0,0.0,-2.452,-2.4339,0.0,0.0,0.0,0.0,-2.4228,-2.4228,-2.4228,-2.4209,-2.4209,-2.4209,-2.419,-2.419,-2.419,-2.419,-2.4952,-2.5338,-2.5338,-2.6117,-2.6473,-2.6473,-2.6473,-2.6473,-2.6473,-2.651,-2.6539,-2.6539,-2.6513,-2.6494,-2.6507,-2.672,-2.6672,-2.6546,-2.6767,-2.6736,-2.6549,0.0,0.0,0.0,0.0,0.0,0.0,0.0,0.0,0.0,-1.4983,-1.3579,-1.2788,-1.3392,-1.1039,-0.9808,-1.0738,-1.0443,-1.073,-1.1999,-1.3577,-1.519,-1.6809,-1.7525,-1.6754,-1.4361,-1.1929,-1.0054,-0.8751,-0.8527,-0.8401,-0.8401,-0.8672,-0.9035,-0.9465,-0.9684,-0.9917,-1.0115,-1.0593,-1.1751,-1.3387,-1.4631,-1.6584,0.0,0.0,0.0,0.0,0.0,0.0,0.0,0.0,0.0,0.0,0.0,0.0,0.0,0.0,0.0,0.0,0.0,0.0,0.0,0.0,0.0,0.0,0.0,0.0,0.0,0.0,0.0,0.0,0.0,0.0,0.0,0.0,0.0,0.0,0.0,0.0,0.0,-2.4678,-2.4401,0.0,-2.4384,-2.4275,-2.441,-2.4934,-2.497,-2.5209,-2.5713,-2.575,-2.575,-2.575,-2.575,-2.575,-2.575,-2.6025,-2.6172,-2.6172,-2.6465,-2.6602,-2.6602,-2.6602,-2.6602,-2.662,-2.7145,-2.7365,-2.7402,-2.7923,-2.7537,-2.6612,-2.6688,-2.6667,-2.6678,-2.7269,-2.7422,-2.7457,0.0,0.0,0.0,0.0,0.0,0.0,0.0,0.0,0.0,-1.4971,-1.3537,-1.2426,-1.2119,-0.9867,-0.8652,-0.9406,-0.9263,-0.9854,-1.1523,-1.3196,-1.5015,-1.7028,-1.6798,-1.5364,-1.2698,-1.1155,-0.999,-0.9133,-0.9133,-0.9263,-0.9484,-0.9484,-0.971,-1.0141,-1.0364,-1.0855,-1.1499,-1.1722,-1.2425,-1.3507,-1.4665,-1.6477,-1.8574,0.0,0.0,0.0,0.0,0.0,0.0,0.0,0.0,0.0,0.0,0.0,0.0,0.0,0.0,0.0,0.0,0.0,0.0,0.0,0.0,0.0,0.0,0.0,0.0,0.0,0.0,0.0,0.0,0.0,0.0,0.0,0.0,0.0,0.0,0.0,-2.5366,-2.5488,-2.5217,-2.5066,-2.519,-2.5095,-2.5236,-2.576,-2.5797,-2.6043,-2.6565,-2.6602,-2.6602,-2.6602,-2.6602,-2.6602,-2.6602,-2.6869,-2.6998,-2.7016,-2.7281,-2.7409,-2.7409,-2.7409,-2.7409,-2.7427,-2.797,-2.8209,-2.8246,-2.8785,-2.8363,-2.7409,-2.7409,-2.7409,-2.7464,-2.8007,-2.8209,-2.8282,0.0,0.0,0.0,0.0,0.0,0.0,0.0,0.0,-1.6136,-1.5429,-1.3608,-1.1954,-1.0839,-0.8921,-0.8043,-0.8804,-0.9465,-1.0864,-1.3302,-1.4596,-1.6329,-1.8712,-1.653,-1.4384,-1.2545,-1.0747,-0.984,-0.984,-0.984,-1.0167,-1.0788,-1.0788,-1.0813,-1.0889,-1.1541,-1.2214,-1.2894,-1.3592,-1.3511,-1.3114,-1.546,-1.699,-1.7951,0.0,0.0,0.0,0.0,0.0,0.0,0.0,0.0,0.0,0.0,0.0,0.0,0.0,0.0,0.0,0.0,0.0,0.0,0.0,0.0,0.0,0.0,0.0,0.0,0.0,0.0,0.0,0.0,0.0,0.0,0.0,0.0,0.0,-2.7204,-2.7016,-2.6888,-2.6888,-2.672,-2.6602,-2.6602,-2.6602,-2.6602,-2.6649,-2.6649,-2.6638,-2.6675,-2.6675,-2.6675,-2.6675,-2.6675,-2.6675,-2.6675,-2.7457,-2.7842,-2.7842,-2.862,-2.9005,-2.9005,-2.9005,-2.9005,-2.9005,-2.9005,-2.9005,-2.9005,-2.9005,-2.9005,-2.9005,-2.9005,-2.9005,-2.9005,-2.9005,-2.9005,-2.9005,0.0,0.0,0.0,0.0,0.0,0.0,0.0,-1.5531,-1.5429,-1.4301,-1.2795,-1.154,-1.0856,-0.9356,-0.8927,-1.0133,-1.0415,-1.1173,-1.2677,-1.3999,-1.5441,-1.7006,-1.5144,-1.3639,-1.2739,-1.1282,-1.0542,-1.0542,-1.0542,-1.0618,-1.0788,-1.0788,-1.1324,-1.2254,-1.2434,-1.3134,-1.4238,-1.5263,-1.5572,-1.5472,-1.613,-1.7281,-1.866,0.0,0.0,0.0,0.0,0.0,0.0,0.0,0.0,0.0,0.0,0.0,0.0,0.0,0.0,0.0,0.0,0.0,0.0,0.0,0.0,0.0,0.0,0.0,0.0,0.0,0.0,0.0,0.0,0.0,0.0,0.0,0.0,-2.8532,-2.7176,-2.6811,-2.668,-2.668,-2.6636,-2.6602,-2.6602,-2.6602,-2.6851,-2.742,-2.7475,-2.7732,-2.8308,-2.8345,-2.8345,-2.8345,-2.8345,-2.8345,-2.8345,-2.8565,-2.8675,-2.8675,-2.8895,-2.9005,-2.9005,-2.9005,-2.9005,-2.9005,-2.9005,-2.9005,-2.9005,-2.9005,-2.9005,-2.9005,-2.9005,-2.9005,-2.9005,-2.9005,-2.9005,-2.9005,0.0,0.0,0.0,0.0,0.0,0.0,0.0,-1.6409,-1.6093,-1.4564,-1.3447,-1.2311,-1.0948,-1.0059,-1.0018,-1.109,-1.1653,-1.2555,-1.3956,-1.5237,-1.5865,-1.5658,-1.4337,-1.3223,-1.241,-1.1333,-1.0939,-1.1216,-1.1216,-1.1375,-1.1692,-1.1938,-1.2585,-1.3567,-1.3814,-1.4608,-1.5792,-1.6439,-1.7006,-1.745,-1.745,-1.8025,-1.8954,-1.9423,-2.0008,-2.0715,-2.1577,-2.218,-2.2673,-2.3282,0.0,0.0,0.0,0.0,0.0,0.0,0.0,0.0,0.0,0.0,0.0,0.0,0.0,0.0,0.0,0.0,0.0,0.0,0.0,0.0,0.0,0.0,0.0,0.0,-2.9763,-2.9391,-2.8119,-2.7746,-2.7611,-2.7611,-2.7611,-2.7611,-2.7611,-2.7611,-2.7794,-2.8282,-2.8301,-2.8521,-2.8987,-2.9005,-2.9005,-2.9005,-2.9005,-2.9005,-2.9005,-2.9005,-2.9005,-2.9005,-2.9005,-2.9005,-2.9005,-2.9005,-2.9005,0.0,-2.9005,-2.9005,-2.9005,-2.9005,-2.9005,0.0,0.0,0.0,0.0,0.0,-2.9005,-2.9005,0.0,0.0,0.0,0.0,0.0,0.0,0.0,-1.8013,-1.7437,-1.5562,-1.491,-1.3719,-1.1382,-1.1132,-1.1365,-1.1972,-1.3142,-1.453,-1.6212,-1.7182,-1.6832,-1.4801,-1.3946,-1.303,-1.1947,-1.1408,-1.1433,-1.2036,-1.2101,-1.2487,-1.3214,-1.3745,-1.4321,-1.4913,-1.5459,-1.6295,-1.7301,-1.7363,-1.7972,-1.8912,-1.9024,-1.9047,-1.9103,-1.9513,-2.0251,-2.1118,-2.1505,-2.2289,-2.3153,-2.3224,0.0,0.0,0.0,0.0,0.0,0.0,0.0,0.0,0.0,0.0,0.0,0.0,0.0,0.0,0.0,0.0,0.0,0.0,0.0,0.0,0.0,0.0,0.0,0.0,-2.9885,-2.9869,-2.9484,-2.9235,-2.9089,-2.9089,-2.9055,-2.9051,-2.9051,-2.9028,-2.9005,-2.9005,-2.9005,-2.9005,-2.9005,0.0,0.0,0.0,0.0,-2.9005,-2.9005,-2.9005,-2.9005,-2.9005,-2.9005,-2.9005,-2.9005,-2.9005,-2.9005,-2.9005,-2.9005,-2.9005,-2.9005,-2.9005,-2.9005,-2.9005,-2.9005,-2.9005,-2.9005,-2.9005,-2.9005,-2.9005,0.0,0.0,0.0,0.0,0.0,0.0,0.0,-1.7518,-1.7451,-1.5622,-1.5296,-1.4699,-1.3297,-1.3151,-1.3389,-1.4054,-1.4744,-1.5676,-1.6907,-1.6355,-1.5787,-1.536,-1.3844,-1.2939,-1.2691,-1.303,-1.3273,-1.3403,-1.3888,-1.4424,-1.5004,-1.5116,-1.5712,-1.6704,-1.6822,-1.7261,-1.794,-1.8391,-1.8708,-1.8968,-1.9725,-2.0024,-2.0041,-2.0128,-2.0668,-2.1469,-2.1869,-2.231,-2.281,-2.3408,-2.3826,-2.4146,-2.4407,0.0,0.0,0.0,0.0,0.0,0.0,0.0,0.0,0.0,0.0,0.0,0.0,0.0,0.0,0.0,0.0,0.0,0.0,0.0,0.0,-3.0002,-2.9977,-2.9916,-2.9678,-2.9598,-2.9561,-2.9561,-2.9415,-2.932,-2.932,-2.9134,-2.9005,-2.9005,-2.9005,-2.9005,-2.9005,-2.9005,-2.9005,-2.9005,-2.9005,-2.9005,-2.9005,-2.9005,-2.9005,-2.9005,0.0,0.0,-2.9005,-2.9005,-2.9005,-2.9005,-2.9005,-2.9005,-2.9005,-2.9005,-2.9005,-2.9005,-2.9005,-2.9005,-2.9005,-2.9005,-2.9005,-2.9005,0.0,0.0,0.0,0.0,0.0,0.0,0.0,-1.8352,-1.8368,-1.6896,-1.6698,-1.6338,-1.5403,-1.5304,-1.5651,-1.653,-1.6937,-1.7364,-1.7867,-1.6671,-1.5823,-1.5526,-1.4412,-1.3944,-1.4204,-1.4226,-1.4377,-1.4642,-1.4937,-1.524,-1.5526,-1.608,-1.6801,-1.7612,-1.7918,-1.8372,-1.893,-1.9401,-1.96,-1.9689,-2.0553,-2.1022,-2.1193,-2.1193,-2.1453,-2.1879,-2.2447,-2.287,-2.3206,-2.3588,-2.3881,-2.4228,-2.4899,-2.5228,-2.5546,0.0,0.0,0.0,0.0,0.0,0.0,0.0,0.0,0.0,0.0,0.0,0.0,0.0,0.0,-3.0578,0.0,0.0,-3.0394,-3.0044,-3.0103,-3.0115,-2.9877,-2.9958,-2.9969,-2.9731,-2.9523,-2.9402,-2.9402,-2.9167,-2.9005,-2.9005,-2.9005,-2.9005,-2.9005,-2.9005,-2.9005,-2.9005,-2.9005,-2.9005,-2.9005,-2.9005,-2.9005,-2.9005,-2.9005,-2.9005,-2.9005,-2.9005,-2.9005,-2.9005,-2.9005,-2.9005,-2.9005,-2.9005,-2.9005,-2.9005,-2.9005,-2.9005,-2.9005,-2.9005,-2.9005,-2.9005,0.0,0.0,0.0,0.0,0.0,0.0,0.0,0.0,-1.9452,-1.8436,-1.8384,-1.8165,-1.7454,-1.7381,-1.7791,-1.8757,-1.8807,-1.8805,-1.8792,-1.739,-1.6332,-1.5842,-1.5284,-1.5207,-1.5656,-1.5363,-1.5407,-1.5821,-1.5951,-1.6059,-1.6175,-1.7091,-1.7851,-1.846,-1.8962,-1.9467,-1.9962,-2.0296,-2.0433,-2.0501,-2.1301,-2.1807,-2.2138,-2.2511,-2.2541,-2.2487,-2.3088,-2.3611,-2.4034,-2.4078,-2.4368,-2.4884,-2.5731,-2.6129,-2.6465,-2.7498,-2.7912,0.0,0.0,0.0,0.0,0.0,0.0,0.0,0.0,0.0,-3.0667,-3.0597,-3.0565,-3.0548,-3.0481,-3.0482,-3.0393,-3.0131,-3.026,-3.0317,-3.0115,-3.0215,-3.0208,-2.9872,-2.9607,-2.9464,-2.9464,-2.9225,-2.9078,-2.9078,-2.9078,-2.9044,-2.9005,-2.9005,-2.9005,-2.9005,-2.9005,-2.9005,-2.9005,-2.9005,-2.9005,-2.9005,-2.9005,-2.9005,-2.9005,-2.9005,-2.9005,-2.9005,-2.9005,-2.9097,-2.9225,-2.9225,-2.9335,-2.9464,-2.9464,-2.9464,-2.9445,-2.9299,-2.9335,-2.9464,0.0,0.0,0.0,0.0,0.0,0.0,0.0,0.0,0.0,-1.9483,-1.9723,-1.9732,-1.9179,-1.9125,-1.9355,-1.9972,-1.9265,-1.8997,-1.9465,-1.7995,-1.7076,-1.7021,-1.6427,-1.6147,-1.6211,-1.6683,-1.6938,-1.7001,-1.7552,-1.8045,-1.8526,-1.8655,-1.9185,-2.0043,-2.011,-2.0416,-2.0861,-2.0894,-2.0926,-2.0991,-2.1722,-2.2051,-2.2289,-2.3962,-2.4143,-2.3526,-2.361,-2.4312,-2.5246,-2.5412,-2.5986,-2.6664,-2.7016,-2.7141,-2.7239,-2.7672,0.0,-2.8074,-2.9154,-3.0019,-3.0625,-3.0723,-3.0742,-3.0741,0.0,0.0,-3.0597,-3.0521,-3.0467,-3.0411,-3.0414,-3.0408,-3.0396,-3.0361,-3.0373,-3.0398,-3.0361,-3.0182,-3.0103,-3.0299,-2.992,-2.9661,-2.9661,-2.9474,-2.9361,-2.9361,-2.9361,-2.9246,-2.9017,-2.9005,-2.9005,-2.9005,-2.9005,-2.9005,-2.9005,-2.9005,-2.9005,-2.9005,-2.9005,-2.9005,-2.9005,-2.9005,-2.9005,-2.9005,-2.9005,-2.9409,-3.0081,-3.0081,-3.0485,-3.114,-3.114,-3.114,-3.1035,-3.0338,-3.0522,-3.114,0.0,0.0,0.0,0.0,0.0,0.0,0.0,0.0,0.0,0.0,-2.0024,-2.0269,-2.0322,-2.0767,-2.1178,-2.1412,-2.0308,-1.9828,-2.0368,-1.8735,-1.7853,-1.8182,-1.7646,-1.7478,-1.7818,-1.7759,-1.7886,-1.8202,-1.8444,-1.8669,-1.8912,-1.9225,-1.9702,-2.0297,-2.0297,-2.0667,-2.1303,-2.1531,-2.2013,-2.2685,-2.3432,-2.401,-2.4521,-2.5511,-2.5673,-2.5403,-2.5515,-2.5864,0.0,0.0,-2.6852,-2.7242,-2.7952,-2.8228,-2.8445,-2.9214,-2.9452,0.0,-3.0193,-3.0625,0.0,0.0,-3.0898,-3.0857,-3.0671,-3.0628,-3.0565,-3.0467,-3.0411,-3.0404,-3.0404,-3.0404,-3.0404,0.0,-3.0404,-3.0404,-3.0404,-3.0305,-3.0209,-3.0163,-2.9984,-2.9877,-2.9877,-2.9696,-2.9532,-2.9412,-2.9402,-2.9278,-2.8998,-2.9005,-2.9005,-2.9005,-2.9005,-2.9067,-2.9225,-2.9078,-2.9078,-2.9225,-2.9067,-2.9005,-2.9023,-2.9482,-2.9941,-3.0393,-3.0393,-3.0595,-3.0889,-3.0889,-3.1103,-3.1397,-3.1397,-3.1678,-3.2008,-3.1201,-3.1121,-3.1397,0.0,0.0,0.0,0.0,0.0,0.0,0.0,0.0,0.0,0.0,0.0,0.0,0.0,-2.1915,-2.2321,-2.2398,-2.1287,-2.0734,-2.1118,-1.9611,-1.8845,-1.9114,-1.8746,-1.8708,-1.9114,-1.8727,-1.8784,-1.9288,-1.9288,-1.9346,-1.9492,-1.9877,-2.0314,-2.0798,-2.0798,-2.1353,-2.2321,-2.262,-2.3348,-2.4344,-2.4986,-2.5574,-2.6162,-2.6717,-2.6977,-2.6997,-2.6925,-2.7074,-2.7339,0.0,-2.7932,-2.8267,-2.9044,-2.9354,-2.961,-3.0389,-3.0696,-3.0771,-3.0878,0.0,0.0,-3.0898,-3.0898,-3.0857,-3.0678,-3.062,-3.0561,-3.0442,-3.0414,-3.0404,-3.0404,-3.0404,-3.0404,-3.0404,-3.0404,-3.0404,-3.0404,-3.0343,-3.0248,-3.011,-3.0054,-3.0021,-3.0096,-2.9901,-2.9705,-2.9494,-2.9474,-2.9343,-2.9028,-2.9067,-2.9112,-2.9112,-2.9171,-2.9291,-2.9474,-2.9235,-2.9314,-2.9737,-2.9466,-2.9445,-2.9684,-3.0265,-3.0852,-3.1397,-3.1397,-3.1525,-3.1733,-3.1733,-3.1861,-3.2045,-3.2045,-3.2412,-3.2871,-3.2284,-3.2045,-3.2045,0.0,0.0,0.0,0.0,0.0,0.0,0.0,0.0,0.0,0.0,0.0,0.0,0.0,0.0,-2.2398,-2.2673,-2.1989,-2.1534,-2.1498,-2.0701,-2.0072,-1.9693,-1.9657,-1.9657,-1.969,-1.9657,-1.9841,-2.0263,-2.0263,-2.05,-2.0943,-2.0943,-2.1351,-2.2037,-2.2037,-2.2886,-2.4309,-2.4339,-2.4789,-2.5575,-2.5919,-2.6073,-2.6217,-2.7339,-2.7877,-2.795,-2.7177,-2.7489,0.0,0.0,-2.9511,-3.0251,-3.0471,-3.0558,0.0,-3.068,-3.0792,0.0,0.0,0.0,-3.0898,-3.0898,-3.0898,-3.0858,-3.0721,-3.0655,-3.0581,-3.052,-3.0451,-3.0404,-3.0404,-3.0404,-3.0404,-3.0404,-3.0404,-3.0404,-3.0404,-3.0182,-3.0115,-3.0361,-3.0157,-3.0096,0.0,-3.0143,-2.9908,-2.9713,-2.9696,-2.9494,-2.901,-2.9246,-2.9392,-2.9392,-2.9579,-2.9687,-2.9696,-2.9484,-2.9783,-3.0565,-3.0296,-3.0577,-3.1342,-3.136,-3.1378,-3.1397,-3.1397,-3.1843,-3.2564,-3.2564,-3.3023,-3.3733,-3.3733,-3.3733,-3.3752,-3.3733,-3.3733,-3.3733,0.0,0.0,0.0,0.0,0.0,0.0,0.0,0.0,0.0,0.0,0.0,0.0,0.0,0.0,0.0,0.0,0.0,-2.2156,-2.1907,-2.1099,-2.0471,-2.0124,-1.9839,-1.9821,-2.0089,-2.0089,-2.0313,-2.0748,-2.0748,-2.0845,-2.0991,-2.1227,-2.1897,-2.2906,-2.3141,-2.4081,-2.5524,-2.5524,-2.6122,-2.707,-2.718,-2.7543,-2.8077,-2.8653,-2.8903,-2.8959,0.0,-2.9212,0.0,0.0,0.0,0.0,-3.0577,0.0,0.0,-3.0793,0.0,0.0,0.0,0.0,-3.0898,-3.0898,-3.0898,-3.0858,-3.0722,-3.0684,-3.0624,-3.0521,-3.0486,-3.0447,-3.0402,-3.0404,-3.0404,-3.0404,-3.0404,-3.0404,-3.0404,-3.0317,-3.0305,-3.0398,-3.0317,0.0,0.0,0.0,0.0,-2.9916,-3.0421,-3.0629,-3.0347,-3.0913,-3.1252,-3.1252,-3.1308,-3.1443,-3.1624,-3.1372,-3.1393,-3.1655,-3.1205,-3.1421,-3.221,-3.221,-3.2485,-3.2981,-3.2981,-3.3239,-3.366,-3.366,-3.3959,-3.4405,-3.4405,-3.4405,-3.4405,-3.4405,-3.426,-3.4043,0.0,0.0,0.0,0.0,0.0,0.0,0.0,0.0,0.0,0.0,0.0,0.0,0.0,0.0,0.0,0.0,0.0,0.0,-2.2465,-2.1807,-2.1279,-2.0894,-2.0621,-2.0605,-2.0863,-2.0879,-2.1099,-2.1558,-2.1441,-2.1473,-2.1607,-2.2151,-2.285,-2.3718,-2.4353,-2.5397,-2.6706,-2.6706,-2.735,-2.8373,-2.8373,-2.8722,-2.9262,-2.9445,-2.9542,0.0,-2.9908,-3.0151,0.0,0.0,0.0,0.0,0.0,0.0,0.0,0.0,0.0,0.0,0.0,-3.0898,-3.0898,-3.0898,-3.0898,-3.0879,-3.0793,-3.0723,-3.0679,-3.0594,-3.0537,-3.0495,-3.0446,-3.0425,-3.0404,-3.0404,-3.0404,-3.0404,-3.0404,-3.0404,-3.0404,-3.0404,-3.0404,-3.0519,0.0,0.0,0.0,-3.0478,-3.0967,-3.1347,-3.1419,-3.201,-3.2338,-3.2338,-3.2414,-3.253,-3.2709,-3.2466,-3.2391,-3.249,-3.2421,-3.2674,-3.3179,-3.3302,-3.3641,-3.4123,-3.4123,-3.4213,-3.4379,-3.4379,-3.4508,-3.4694,-3.4694,-3.4694,-3.4694,-3.4694,-3.4497,-3.4183,0.0,0.0,0.0,0.0,0.0,0.0,0.0,0.0,0.0,0.0,0.0,0.0,0.0,0.0,0.0,0.0,0.0,0.0,-2.3106,-2.28,-2.241,-2.1966,-2.1907,-2.1907,-2.1952,-2.1952,-2.2173,-2.265,-2.2319,-2.2398,-2.2837,-2.3685,-2.4264,-2.4634,-2.5726,-2.6847,-2.7897,-2.7897,-2.8471,-2.9423,-2.9423,-2.9532,-2.9705,-2.9713,-2.9837,-3.0006,-3.0013,0.0,0.0,0.0,0.0,0.0,0.0,0.0,0.0,0.0,0.0,-3.0898,-3.0898,-3.0898,-3.0898,-3.0898,-3.0898,-3.0898,-3.0898,-3.0794,-3.0716,-3.0693,-3.058,-3.0507,0.0,0.0,-3.0404,-3.0404,-3.0404,-3.0404,-3.0404,-3.0442,-3.0462,0.0,0.0,0.0,0.0,0.0,0.0,-3.1462,0.0,-3.1694,-3.2267,-3.2589,-3.2741,-3.2741,-3.2927,-3.3026,-3.3026,-3.2843,-3.2861,-3.3109,-3.3869,-3.4242,-3.4253,-3.4551,-3.4694,-3.4694,-3.4694,-3.4704,-3.4714,-3.4714,-3.4724,-3.4734,-3.4734,-3.4734,-3.4734,-3.4734,-3.451,-3.4242,0.0,0.0,0.0,0.0,0.0,0.0,0.0,0.0,0.0,0.0,0.0,0.0,0.0,0.0,0.0,0.0,0.0,0.0,-2.353,-2.2957,-2.2561,-2.2423,-2.2092,-2.2048,-2.241,-2.2423,-2.2698,-2.3269,-2.3179,-2.3594,-2.4507,-2.4911,-2.5832,-2.7113,-2.7643,-2.8371,-2.9223,-2.9223,-2.9373,-2.9616,-2.9616,-2.9652,-2.9722,-2.9869,-2.9962,-3.0021,0.0,0.0,0.0,0.0,0.0,0.0,0.0,0.0,-3.0898,0.0,0.0,-3.0898,-3.0898,-3.0898,-3.0898,-3.0898,-3.0898,-3.0898,-3.0898,-3.0878,-3.0812,-3.0652,-3.0603,-3.0548,0.0,0.0,0.0,-3.0404,-3.0404,0.0,-3.0404,-3.0962,0.0,0.0,0.0,-3.2352,-3.2564,-3.2583,0.0,0.0,-3.3466,-3.3529,-3.3679,-3.4366,-3.4765,-3.4765,-3.4807,-3.4846,-3.4846,-3.458,-3.4501,-3.4566,-3.4571,-3.4572,-3.4572,-3.4663,-3.4694,-3.4694,-3.4694,-3.4803,-3.499,-3.499,-3.5113,-3.5297,-3.5297,-3.5297,-3.5297,-3.5297,-3.4999,-3.4572,0.0,0.0,0.0,0.0,0.0,0.0,0.0,0.0,0.0,0.0,0.0,0.0,0.0,0.0,0.0,0.0,0.0,0.0,0.0,-2.3541,-2.3298,-2.3298,-2.3053,-2.3041,-2.3298,-2.3396,-2.3604,-2.3931,-2.4225,-2.4689,-2.5282,-2.619,-2.7101,-2.8026,-2.8721,-2.9288,-2.9705,-2.9705,-2.9746,0.0,0.0,-2.9904,-3.0022,-3.0129,-3.0182,0.0,0.0,0.0,0.0,0.0,0.0,-3.0695,-3.0695,-3.0793,-3.0898,-3.0898,0.0,-3.0898,-3.0898,-3.0898,-3.0898,-3.0898,-3.0898,-3.0898,-3.0898,-3.0898,-3.0954,-3.1172,-3.1187,0.0,0.0,0.0,0.0,0.0,0.0,0.0,-3.1442,-3.1929,-3.2237,0.0,-3.2622,0.0,-3.343,-3.3468,-3.3833,0.0,-3.441,-3.4379,-3.4757,-3.5231,-3.55,-3.55,-3.55,-3.55,-3.55,-3.5231,-3.5105,-3.5096,-3.4944,-3.4879,-3.4889,-3.499,-3.5062,-3.5062,0.0,-3.513,-3.5281,-3.5281,-3.5369,-3.55,-3.55,-3.55,-3.55,-3.55,-3.525,-3.487,0.0,0.0,0.0,0.0,0.0,0.0,0.0,0.0,0.0,0.0,0.0,0.0,0.0,0.0,0.0,0.0,0.0,0.0,0.0,0.0,0.0,-2.419,-2.419,-2.419,-2.419,0.0,0.0,0.0,0.0,-2.572,-2.5997,-2.7467,-2.8208,-2.8367,-2.9353,-2.979,-2.979,-2.979,-2.9885,-3.0042,-3.0042,-3.0196,-3.0404,0.0,0.0,0.0,0.0,0.0,0.0,0.0,-3.0571,-3.0679,-3.0686,-3.0769,-3.0879,-3.0898,-3.0898,-3.0898,-3.0898,-3.0898,-3.0898,-3.0898,-3.0898,-3.0937,-3.1055,-3.1074,-3.1287,-3.2023,0.0,-3.2283,-3.2912,0.0,-3.2119,-3.2813,0.0,-3.2102,-3.2795,-3.3006,-3.3064,-3.3064,-3.3179,-3.3545,-3.4295,-3.4379,-3.468,-3.5442,-3.4795,-3.4699,-3.5462,-3.55,-3.55,-3.55,-3.55,-3.55,-3.55,-3.5273,-3.5147,-3.5147,-3.5147,-3.5147,-3.5155,-3.5391,-3.55,-3.55,-3.55,0.0,-3.55,-3.55,-3.55,-3.55,-3.55,-3.55,-3.55,-3.55,-3.532,-3.507,0.0,0.0,0.0,0.0,0.0,0.0,0.0,0.0,0.0,0.0,-2.2381,-2.2296,0.0,0.0,0.0,0.0,0.0,0.0,0.0,0.0,0.0,0.0,-2.419,-2.419,0.0,0.0,0.0,0.0,0.0,0.0,-2.8478,-2.8765,-2.9296,-2.9985,-3.0196,-3.028,-3.028,-3.028,-3.0299,-3.0323,-3.0323,-3.0361,-3.0404,0.0,0.0,0.0,0.0,0.0,0.0,0.0,-3.0463,-3.0533,-3.0606,-3.0669,-3.0767,-3.0878,-3.0898,-3.0898,-3.0898,-3.0898,-3.0898,-3.0898,-3.0898,-3.1094,-3.1816,-3.1973,0.0,0.0,0.0,-3.3072,-3.3141,-3.3005,0.0,-3.304,0.0,0.0,0.0,0.0,-3.3975,0.0,0.0,0.0,0.0,0.0,0.0,0.0,0.0,-3.5346,-3.5481,-3.55,-3.55,-3.55,-3.55,-3.55,-3.55,-3.5446,-3.5432,-3.5432,-3.5432,-3.5432,-3.5432,-3.5486,-3.55,-3.55,-3.55,0.0,-3.55,-3.55,-3.55,-3.55,-3.55,-3.55,-3.55,-3.55,-3.532,-3.507,0.0,0.0,0.0,0.0,0.0,0.0,0.0,-2.2296,-2.2349,-2.2477,-2.25,-2.2563,-2.2747,-2.3026,-2.3259,0.0,0.0,0.0,0.0,0.0,0.0,0.0,0.0,0.0,0.0,0.0,0.0,0.0,0.0,0.0,0.0,0.0,0.0,0.0,0.0,0.0,0.0,0.0,0.0,0.0,0.0,0.0,0.0,0.0,0.0,0.0,0.0,0.0,0.0,0.0,-3.0417,-3.0457,-3.0525,-3.0628,-3.0718,-3.0771,-3.0857,-3.0898,-3.0898,-3.0898,-3.0898,-3.0898,-3.0898,-3.1133,-3.1992,0.0,0.0,0.0,-3.3973,-3.4076,-3.4444,0.0,0.0,0.0,0.0,0.0,0.0,0.0,0.0,0.0,0.0,0.0,0.0,0.0,0.0,0.0,0.0,-3.55,-3.55,-3.55,-3.55,-3.55,-3.55,-3.55,-3.55,-3.55,-3.55,-3.55,-3.55,-3.55,-3.55,-3.55,-3.55,-3.55,-3.55,0.0,-3.55,-3.55,-3.55,-3.55,-3.55,-3.55,-3.55,-3.55,-3.5424,-3.5273,0.0,0.0,0.0,0.0,0.0,0.0,0.0,-2.2296,-2.2307,-2.2374,-2.2577,-2.286,-2.3259,-2.3311,-2.3414,0.0,0.0,0.0,0.0,0.0,0.0,0.0,0.0,0.0,0.0,0.0,0.0,0.0,0.0,0.0,0.0,0.0,0.0,0.0,0.0,0.0,0.0,0.0,0.0,0.0,0.0,0.0,0.0,0.0,0.0,0.0,0.0,0.0,0.0,0.0,-3.0404,-3.0408,-3.0467,-3.0558,-3.0667,-3.0679,-3.0766,-3.0858,-3.0858,-3.0879,-3.0937,-3.1133,-3.1172,-3.1445,-3.25,-3.2734,0.0,0.0,-3.4899,-3.5085,-3.5668,0.0,0.0,0.0,0.0,0.0,0.0,0.0,0.0,0.0,0.0,0.0,0.0,0.0,0.0,0.0,0.0,0.0,-3.55,-3.55,-3.55,-3.55,-3.55,-3.55,-3.55,-3.55,-3.55,-3.55,-3.55,-3.55,-3.55,-3.55,-3.55,-3.55,-3.55,0.0,0.0,-3.55,-3.55,-3.55,-3.55,-3.55,-3.55,-3.55,-3.55,-3.5453,0.0,0.0,0.0,0.0,0.0,0.0,0.0,-2.2296,-2.2388,-2.2621,-2.2682,-2.2947,-2.3577,-2.366,-2.3671,0.0,0.0,0.0,0.0,0.0,0.0,0.0,0.0,0.0,0.0,0.0,0.0,0.0,0.0,0.0,0.0,0.0,0.0,0.0,0.0,0.0,0.0,0.0,0.0,0.0,0.0,0.0,0.0,0.0,0.0,0.0,0.0,0.0,0.0,0.0,0.0,-3.0404,-3.0402,-3.0457,-3.0533,-3.0594,0.0,0.0,-3.072,-3.0814,-3.1094,-3.1875,-3.207,-3.25,-3.4101,0.0,0.0,-3.5683,-3.5878,-3.5898,-3.5956,-3.5863,0.0,0.0,0.0,0.0,0.0,0.0,0.0,0.0,0.0,0.0,0.0,0.0,0.0,0.0,0.0,0.0,-3.55,-3.55,-3.55,-3.55,-3.55,-3.55,-3.55,-3.55,-3.55,-3.55,-3.55,-3.55,-3.55,-3.55,-3.55,-3.55,-3.55,0.0,0.0,-3.55,-3.55,-3.55,-3.55,-3.55,-3.55,-3.55,-3.55,-3.5453,0.0,0.0,0.0,0.0,0.0,0.0,-2.2296,-2.2296,-2.2335,-2.2453,-2.263,-2.2845,-2.3069,-2.3448,-2.3785,-2.3986,0.0,0.0,0.0,0.0,0.0,0.0,0.0,0.0,0.0,0.0,0.0,0.0,0.0,0.0,0.0,0.0,0.0,0.0,0.0,0.0,0.0,0.0,0.0,0.0,0.0,0.0,0.0,0.0,0.0,0.0,0.0,0.0,0.0,0.0,0.0,0.0,-3.1756,-3.1981,0.0,0.0,-3.0591,-3.0648,-3.0648,-3.1097,-3.1646,-3.1934,-3.2469,-3.3222,-3.4385,0.0,-3.4941,-3.582,-3.5996,-3.5996,-3.5996,-3.5975,-3.5951,-3.5951,0.0,0.0,0.0,0.0,0.0,0.0,0.0,0.0,0.0,0.0,0.0,0.0,0.0,0.0,-3.55,-3.55,-3.55,-3.55,-3.55,-3.55,-3.55,-3.55,-3.55,-3.55,-3.55,-3.55,-3.55,-3.55,-3.55,-3.55,-3.55,0.0,0.0,-3.55,-3.55,-3.55,-3.55,-3.55,-3.55,-3.55,-3.55,-3.5544,0.0,0.0,0.0,0.0,0.0,-2.2296,-2.2296,-2.2296,-2.2296,-2.2296,-2.2511,-2.266,-2.2695,-2.32,-2.3692,-2.4016,-2.4151,0.0,0.0,0.0,0.0,0.0,0.0,0.0,0.0,0.0,-2.7727,-2.8844,0.0,0.0,0.0,0.0,0.0,0.0,0.0,0.0,0.0,0.0,0.0,0.0,0.0,0.0,0.0,0.0,0.0,0.0,0.0,0.0,0.0,0.0,0.0,0.0,0.0,0.0,0.0,0.0,-3.1285,-3.1358,-3.1326,-3.1813,-3.2402,-3.2647,-3.3228,-3.3979,0.0,0.0,-3.5254,-3.5879,-3.5996,-3.5996,-3.5996,-3.5996,-3.5996,-3.5996,0.0,-3.5916,0.0,0.0,0.0,0.0,0.0,0.0,0.0,0.0,0.0,0.0,0.0,0.0,0.0,-3.55,-3.55,-3.55,-3.55,-3.55,-3.55,-3.55,-3.55,-3.55,-3.55,-3.55,-3.55,-3.55,-3.55,-3.55,-3.55,0.0,0.0,-3.55,-3.55,-3.55,-3.55,-3.55,-3.5538,-3.5769,-3.5846,-3.5962,0.0,0.0,0.0,0.0,0.0,0.0,-2.2296,-2.2296,-2.2296,-2.2296,-2.231,-2.2415,-2.2656,-2.3009,-2.3346,-2.3682,-2.4006,0.0,0.0,0.0,0.0,0.0,0.0,0.0,0.0,0.0,-2.8881,-2.9686,-2.9901,-2.9999,0.0,0.0,0.0,0.0,0.0,0.0,0.0,0.0,0.0,0.0,0.0,0.0,0.0,0.0,0.0,0.0,0.0,0.0,0.0,0.0,0.0,0.0,0.0,0.0,0.0,0.0,-3.3026,-3.3135,-3.3015,-3.3083,-3.3414,-3.4343,-3.4573,-3.4839,0.0,0.0,-3.5996,-3.5996,-3.5996,-3.5996,-3.5996,-3.5996,-3.5996,-3.5996,-3.5996,0.0,0.0,0.0,0.0,0.0,0.0,0.0,0.0,0.0,0.0,0.0,0.0,0.0,0.0,-3.55,-3.55,-3.55,-3.55,-3.55,-3.55,-3.55,-3.55,-3.55,-3.55,-3.55,-3.55,-3.55,-3.55,0.0,0.0,0.0,0.0,-3.55,-3.55,-3.55,-3.55,-3.55,-3.5596,-3.6385,-3.6692,-3.6808,0.0,0.0,0.0,0.0,0.0,0.0,0.0,-2.2296,-2.2296,-2.2296,-2.2296,-2.2398,-2.2656,-2.3009,-2.3335,-2.3671,-2.4006,0.0,0.0,0.0,0.0,0.0,0.0,0.0,0.0,-2.7951,-2.8955,-2.9908,-2.9969,-3.0089,-3.0286,-3.0361,-3.0404,0.0,0.0,0.0,0.0,0.0,0.0,0.0,0.0,0.0,0.0,0.0,0.0,0.0,0.0,0.0,0.0,0.0,0.0,0.0,0.0,0.0,0.0,0.0,0.0,0.0,-3.3129,-3.3632,-3.422,-3.4469,-3.5046,-3.5619,-3.5864,0.0,-3.5996,-3.5996,-3.5996,-3.5996,-3.5996,-3.5996,-3.5996,-3.5996,-3.5996,0.0,0.0,0.0,0.0,0.0,0.0,0.0,0.0,0.0,0.0,0.0,0.0,0.0,0.0,-3.55,-3.55,-3.55,-3.55,-3.55,-3.55,-3.55,-3.55,-3.55,-3.55,-3.55,-3.55,-3.55,-3.55,0.0,0.0,0.0,0.0,-3.55,-3.55,-3.55,-3.55,-3.5846,-3.6346,-3.6615,-3.7084,-3.7719,0.0,0.0,0.0,0.0,0.0,0.0,0.0,-2.2296,-2.2296,-2.2296,-2.2296,-2.2398,-2.2656,-2.3009,-2.3335,-2.3671,-2.4006,0.0,0.0,0.0,0.0,0.0,0.0,0.0,-2.7345,-2.8479,-2.9361,-3.0006,-3.0096,-3.0241,-3.0404,-3.0404,-3.0404,-3.0404,-3.0404,0.0,0.0,0.0,0.0,0.0,0.0,0.0,-3.0404,0.0,0.0,0.0,0.0,0.0,0.0,0.0,0.0,0.0,0.0,0.0,0.0,0.0,0.0,0.0,0.0,-3.4536,-3.4984,-3.5012,-3.5495,0.0,0.0,0.0,-3.5996,-3.5996,-3.5996,-3.5996,-3.5996,-3.5996,-3.5996,-3.5996,-3.5996,0.0,0.0,0.0,0.0,0.0,0.0,0.0,0.0,0.0,0.0,0.0,0.0,0.0,0.0,-3.55,-3.55,-3.55,-3.55,-3.55,-3.55,-3.55,-3.55,-3.55,-3.55,-3.55,-3.55,-3.55,-3.55,0.0,0.0,0.0,0.0,-3.55,-3.55,-3.5538,-3.5827,-3.625,-3.6769,-3.745,-3.8027,-3.8604,0.0,0.0,0.0,0.0,0.0,0.0,0.0,-2.2296,-2.2296,-2.2296,-2.2324,-2.244,-2.2712,-2.3033,-2.3369,-2.3703,0.0,0.0,0.0,0.0,0.0,0.0,0.0,0.0,-2.809,-2.9334,-2.9991,-3.0006,-3.0254,-3.0373,-3.0404,-3.0404,-3.0404,-3.0404,-3.0404,-3.0404,-3.0404,-3.0404,-3.0404,-3.0404,-3.0404,-3.0404,0.0,0.0,0.0,0.0,0.0,0.0,0.0,0.0,0.0,0.0,0.0,0.0,0.0,0.0,0.0,0.0,0.0,0.0,0.0,0.0,0.0,0.0,0.0,0.0,0.0,-3.5996,-3.5996,-3.5996,-3.5996,-3.5996,-3.5996,-3.5996,0.0,0.0,0.0,0.0,0.0,0.0,0.0,0.0,0.0,0.0,0.0,0.0,0.0,0.0,0.0,-3.55,-3.55,-3.55,-3.55,-3.55,-3.55,-3.55,-3.55,-3.55,-3.55,-3.55,-3.55,-3.55,-3.55,0.0,0.0,0.0,0.0,-3.5558,-3.5596,-3.5673,-3.6481,-3.6827,-3.7084,-3.87,-3.9342,-3.9496,0.0,0.0,0.0,0.0,0.0,0.0,0.0,0.0,0.0,0.0,-2.249,-2.2725,-2.3045,-2.338,-2.3714,0.0,0.0,0.0,0.0,0.0,0.0,0.0,0.0,0.0,-2.8109,-2.92,-2.9845,-3.0006,-3.0068,-3.0202,-3.0404,-3.0404,-3.0404,-3.0404,-3.0404,-3.0404,-3.0404,-3.0404,-3.0404,-3.0404,-3.0404,-3.0404,0.0,0.0,0.0,0.0,-3.0404,-3.0404,0.0,0.0,0.0,0.0,0.0,0.0,0.0,0.0,-3.4989,0.0,-3.5646,0.0,-3.5831,-3.5896,-3.5944,-3.5975,0.0,0.0,0.0,0.0,0.0,0.0,0.0,0.0,0.0,0.0,0.0,0.0,0.0,0.0,0.0,0.0,0.0,0.0,0.0,0.0,0.0,0.0,0.0,0.0,0.0,-3.55,-3.55,-3.55,-3.55,-3.55,-3.55,-3.55,-3.55,-3.55,-3.55,-3.55,-3.55,-3.55,-3.55,0.0,0.0,0.0,-3.5558,-3.6154,-3.6423,-3.65,-3.7353,-3.8104,-3.8738,-3.915,-3.9688,-4.0246,0.0,0.0,0.0,0.0,0.0,0.0,0.0,0.0,0.0,0.0,0.0,0.0,0.0,0.0,0.0,0.0,0.0,0.0,0.0,0.0,0.0,0.0,0.0,-2.8133,-2.8492,-2.9202,-2.9626,-2.9712,-2.9813,-2.9988,-3.0209,-3.0209,-3.0273,-3.0404,-3.0404,-3.0404,-3.0404,-3.0404,-3.0404,-3.0404,-3.0404,0.0,0.0,0.0,0.0,0.0,-3.0404,-3.0404,0.0,-3.0404,-3.0712,-3.1173,0.0,0.0,0.0,0.0,-3.4565,-3.504,-3.5523,-3.5726,-3.5838,-3.5921,-3.5974,-3.5996,-3.5996,0.0,0.0,0.0,0.0,0.0,0.0,0.0,0.0,0.0,0.0,0.0,0.0,0.0,0.0,0.0,0.0,0.0,0.0,0.0,0.0,0.0,0.0,0.0,0.0,-3.55,-3.55,-3.55,-3.55,-3.55,-3.55,-3.55,-3.55,-3.55,-3.55,-3.55,-3.55,-3.55,-3.55,0.0,0.0,0.0,-3.6077,-3.6519,-3.6942,-3.7392,-3.8257,-3.8873,-3.9342,-3.9708,-4.0131,-4.0496,0.0,0.0,0.0,0.0,0.0,0.0,0.0,0.0,0.0,0.0,0.0,0.0,0.0,0.0,0.0,0.0,0.0,0.0,0.0,0.0,0.0,0.0,-2.797,-2.8301,-2.8987,-2.9214,-2.9361,-2.9402,-2.957,-2.9765,-2.9954,-2.9954,-3.0082,-3.0349,-3.0373,-3.0404,-3.0404,-3.0404,-3.0404,-3.0404,-3.0404,0.0,0.0,0.0,0.0,0.0,0.0,0.0,0.0,-3.0404,-3.0404,-3.0538,-3.1269,0.0,0.0,0.0,0.0,0.0,-3.5384,-3.5671,-3.5775,-3.5931,-3.5996,-3.5996,-3.5996,0.0,0.0,0.0,0.0,0.0,0.0,0.0,0.0,0.0,0.0,0.0,0.0,0.0,0.0,0.0,0.0,0.0,0.0,0.0,0.0,0.0,0.0,0.0,0.0,-3.55,-3.55,-3.55,-3.55,-3.55,-3.55,-3.55,-3.55,-3.55,-3.55,-3.55,-3.55,-3.55,-3.55,-3.5519,0.0,0.0,-3.6712,-3.6981,-3.7526,-3.8277,-3.915,-3.9477,-3.9573,-4.0246,-4.0496,-4.0496,0.0,0.0,0.0,0.0,0.0,0.0,0.0,0.0,0.0,0.0,0.0,0.0,0.0,0.0,0.0,0.0,0.0,0.0,0.0,0.0,0.0,-2.8785,-2.8822,-2.8877,-2.9005,-2.9051,-2.916,-2.9402,-2.9424,-2.9561,-2.9756,-2.9756,-2.9853,-3.0075,-3.0305,-3.0404,-3.0404,-3.0404,-3.0404,-3.0404,-3.0404,0.0,0.0,0.0,0.0,0.0,0.0,0.0,0.0,-3.0404,-3.0404,-3.0423,-3.0558,0.0,0.0,0.0,0.0,0.0,-3.5426,-3.5783,-3.5875,-3.5908,-3.5951,-3.5996,-3.5996,0.0,0.0,0.0,0.0,0.0,0.0,0.0,0.0,0.0,0.0,0.0,0.0,0.0,0.0,0.0,0.0,0.0,0.0,0.0,0.0,0.0,0.0,0.0,-3.55,-3.55,-3.55,-3.55,-3.55,-3.55,-3.55,-3.55,-3.55,-3.55,-3.55,-3.55,-3.55,-3.55,-3.55,-3.5538,0.0,-3.6596,-3.6808,-3.8296,-3.8977,-3.9188,-3.9996,-4.0323,-4.0323,-4.0458,-4.0496,-4.0496,0.0,0.0,0.0,0.0,0.0,0.0,0.0,0.0,0.0,0.0,0.0,0.0,0.0,0.0,0.0,0.0,0.0,0.0,0.0,0.0,-2.8601,-2.8987,-2.9005,-2.9005,-2.9005,-2.9005,-2.9055,-2.9171,-2.9171,-2.9301,-2.9551,-2.9643,-2.9756,-2.9845,-2.9977,-3.0022,-3.003,-3.0148,-3.017,-3.0196,0.0,0.0,0.0,0.0,0.0,0.0,0.0,0.0,0.0,0.0,-3.0404,-3.0404,-3.0404,0.0,0.0,0.0,0.0,0.0,-3.5332,-3.5802,-3.5908,-3.5947,-3.5975,-3.5996,0.0,0.0,0.0,0.0,0.0,0.0,0.0,0.0,0.0,0.0,0.0,0.0,0.0,0.0,0.0,0.0,0.0,0.0,0.0,0.0,0.0,0.0,0.0,0.0,-3.55,-3.55,-3.55,-3.55,-3.55,-3.55,-3.55,-3.55,-3.55,-3.55,-3.55,-3.55,-3.55,-3.55,-3.5731,-3.6173,0.0,-3.7238,-3.8161,-3.8977,-3.9554,-3.9996,-4.0362,-4.0496,-4.0496,-4.0496,-4.0496,-4.0496,0.0,0.0,0.0,0.0,0.0,0.0,0.0,0.0,0.0,0.0,0.0,0.0,0.0,0.0,0.0,0.0,0.0,0.0,0.0,-2.8863,-2.8905,-2.8994,-2.9005,-2.9005,-2.9005,-2.9005,-2.9005,-2.9005,-2.9005,-2.91,-2.931,-2.9523,-2.9644,-2.9625,-2.9739,-2.9763,-2.978,-3.0011,-3.0089,-3.0103,0.0,0.0,0.0,0.0,0.0,0.0,0.0,0.0,0.0,0.0,0.0,0.0,0.0,0.0,0.0,-3.241,-3.2996,-3.3479,-3.5205,-3.5789,-3.591,-3.5952,-3.5995,0.0,0.0,0.0,0.0,0.0,0.0,0.0,0.0,0.0,0.0,0.0,0.0,0.0,0.0,0.0,0.0,0.0,0.0,0.0,0.0,0.0,0.0,0.0,0.0,0.0,-3.55,-3.55,-3.55,-3.55,-3.55,-3.55,-3.55,-3.55,-3.55,-3.55,-3.55,-3.55,-3.55,-3.55,-3.5942,-3.6712,-3.6923,-3.7873,-3.9304,-3.9496,-3.9938,-4.0496,-4.0496,-4.0496,-4.0496,-4.0496,-4.0496,-4.0496,0.0,0.0,0.0,0.0,0.0,0.0,0.0,0.0,0.0,0.0,0.0,0.0,0.0,0.0,0.0,0.0,0.0,0.0,0.0,-2.8446,-2.8602,-2.8975,-2.9005,-2.9005,-2.9005,-2.9005,-2.9005,-2.9005,-2.9005,-2.9017,-2.9021,-2.9299,-2.9414,-2.9434,-2.9813,-2.9984,-2.9999,-3.026,-3.0367,-3.0367,-3.0398,0.0,0.0,0.0,0.0,0.0,0.0,0.0,0.0,0.0,0.0,0.0,0.0,0.0,-3.0731,-3.241,-3.2996,-3.3461,-3.5141,-3.5742,-3.5903,-3.5907,-3.5949,0.0,-3.5996,-3.5996,0.0,-3.5996,0.0,0.0,0.0,0.0,0.0,0.0,0.0,0.0,0.0,0.0,0.0,0.0,0.0,0.0,0.0,0.0,0.0,0.0,0.0,0.0,-3.55,-3.55,-3.55,-3.55,-3.55,-3.55,-3.55,-3.55,-3.55,-3.55,-3.55,-3.55,-3.55,-3.55,-3.5942,-3.675,-3.7565,-3.843,-3.9361,-4.0112,-4.0458,-4.0496,-4.0496,-4.0496,-4.0496,-4.0496,-4.0496,-4.0496,0.0,0.0,0.0,0.0,0.0,0.0,0.0,0.0,0.0,0.0,0.0,0.0,0.0,0.0,0.0,0.0,0.0,0.0,0.0,-2.8627,-2.8839,-2.8994,-2.9005,-2.9005,-2.9005,-2.9005,-2.9005,-2.9005,-2.9005,-2.9005,-2.9005,-2.9267,-2.9402,-2.9404,-2.9687,-2.9813,-2.9829,-3.0054,-3.015,-3.0176,-3.0323,-3.0404,0.0,0.0,0.0,0.0,0.0,0.0,0.0,0.0,-3.0404,-3.0404,-3.0404,-3.0769,-3.1423,-3.2564,-3.3326,-3.4052,-3.528,-3.5694,-3.5799,-3.5875,-3.5948,0.0,0.0,-3.5996,-3.5996,-3.5996,-3.5996,0.0,0.0,0.0,0.0,0.0,0.0,0.0,0.0,0.0,0.0,0.0,0.0,0.0,0.0,0.0,0.0,0.0,0.0,0.0,0.0,-3.55,-3.55,-3.55,-3.55,-3.55,-3.55,-3.55,-3.575,-3.6231,-3.5731,-3.5769,-3.625,-3.625,-3.7007,-3.8334,-3.8661,-3.9284,-4.0073,-4.0362,-4.0496,-4.0496,-4.0496,-4.0496,-4.0496,-4.0496,-4.0496,-4.0496,0.0,0.0,0.0,0.0,0.0,0.0,0.0,0.0,0.0,0.0,0.0,0.0,0.0,0.0,0.0,0.0,0.0,0.0,-2.8381,-2.8658,-2.8863,-2.8994,-2.9005,-2.9005,-2.9005,-2.9005,-2.9005,-2.9005,-2.9005,-2.9005,-2.9005,-2.92,-2.932,-2.9412,-2.9616,-2.9748,-2.9804,-3.0032,-3.0129,-3.0136,-3.0222,-3.0317,0.0,0.0,0.0,0.0,0.0,0.0,0.0,0.0,-3.0404,-3.0404,-3.0404,-3.1,-3.1852,-3.266,-3.3525,-3.4421,-3.5352,-3.569,-3.5794,-3.5875,0.0,0.0,-3.5996,-3.5996,-3.5996,-3.5996,-3.5996,0.0,0.0,0.0,0.0,0.0,0.0,0.0,0.0,0.0,0.0,0.0,0.0,0.0,0.0,0.0,0.0,0.0,0.0,0.0,0.0,-3.55,-3.55,-3.55,-3.55,-3.55,-3.55,-3.575,-3.6154,-3.6692,-3.6423,-3.6577,-3.7123,-3.7123,-3.7911,-3.9304,-3.9304,-3.9765,-4.0496,-4.0496,-4.0496,-4.0496,-4.0496,-4.0496,-4.0496,-4.0496,-4.0496,-4.0496,0.0,0.0,0.0,0.0,0.0,0.0,0.0,0.0,0.0,0.0,0.0,0.0,0.0,0.0,0.0,0.0,0.0,0.0,-2.8381,-2.8389,-2.8577,-2.8975,-2.9005,-2.9005,-2.9005,-2.9005,-2.9005,-2.9005,-2.9005,-2.9005,-2.9005,-2.9005,-2.9145,-2.9412,-2.9616,-2.9804,-3.0013,-3.0273,-3.0398,-3.0367,-3.0096,-3.015,-3.0361,0.0,0.0,0.0,0.0,0.0,0.0,0.0,-3.0404,-3.0404,-3.0404,-3.1,-3.1872,-3.2679,-3.3583,-3.4507,-3.5354,-3.5755,-3.5901,0.0,0.0,0.0,-3.5996,-3.5996,-3.5996,-3.5996,0.0,0.0,0.0,0.0,0.0,0.0,0.0,0.0,0.0,0.0,0.0,0.0,0.0,0.0,0.0,0.0,0.0,0.0,0.0,0.0,0.0,-3.55,-3.55,-3.55,-3.55,-3.55,-3.5519,-3.6308,-3.6712,-3.6731,-3.7603,-3.8007,-3.8007,-3.8007,-3.8488,-3.9304,-3.9304,-3.9765,-4.0496,-4.0496,-4.0496,-4.0496,-4.0496,-4.0496,-4.0496,-4.0496,-4.0496,-4.0496,0.0,0.0,0.0,0.0,0.0,0.0,0.0,0.0,0.0,0.0,0.0,0.0,0.0,0.0,0.0,0.0,0.0,0.0,-2.8394,-2.867,-2.8893,-2.8994,-2.9005,-2.9005,-2.9005,-2.9005,-2.9005,-2.9005,-2.9005,-2.9005,-2.9005,-2.9181,-2.932,-2.9412,-2.9616,-2.972,-2.9788,-2.9872,-2.9904,-2.9896,-2.9813,-2.984,-2.9912,0.0,0.0,0.0,0.0,0.0,0.0,0.0,0.0,0.0,-3.1115,-3.1891,-3.2718,-3.3564,-3.4449,-3.5194,-3.5464,-3.5645,0.0,0.0,0.0,0.0,0.0,-3.5996,0.0,0.0,0.0,0.0,0.0,0.0,0.0,0.0,0.0,0.0,0.0,0.0,0.0,0.0,0.0,0.0,0.0,0.0,0.0,0.0,0.0,0.0,0.0,-3.5566,-3.5552,-3.5507,-3.55,-3.5769,-3.6346,-3.6577,-3.7315,-3.8527,-3.8796,-3.8911,-3.8911,-3.8911,-3.9361,-4.015,-4.015,-4.0285,-4.0496,-4.0496,-4.0496,-4.0496,-4.0496,-4.0496,-4.0496,-4.0496,-4.0496,-4.0496,0.0,0.0,0.0,0.0,0.0,0.0,0.0,0.0,0.0,0.0,-2.6691,0.0,0.0,0.0,0.0,0.0,0.0,0.0,0.0,-2.8773,-2.9005,-2.9005,-2.9005,-2.9005,-2.9005,-2.9005,-2.9005,-2.9005,-2.9005,-2.9005,-2.9005,-2.9178,-2.9299,-2.9412,-2.9532,-2.9635,-2.9705,-2.9705,-2.9705,-2.9696,-2.9616,-2.9635,-2.9705,0.0,0.0,0.0,0.0,0.0,0.0,0.0,0.0,0.0,-3.1501,-3.2487,-3.3519,-3.4069,-3.4886,-3.5599,-3.565,0.0,0.0,0.0,0.0,0.0,0.0,0.0,0.0,0.0,0.0,0.0,0.0,0.0,0.0,0.0,0.0,0.0,0.0,0.0,0.0,0.0,0.0,0.0,0.0,0.0,0.0,0.0,0.0,0.0,0.0,-3.5648,-3.5606,-3.5534,-3.5547,-3.592,-3.6692,-3.7038,-3.7911,-3.9304,-3.9631,-3.9785,-3.9785,-3.9785,-4.0035,-4.0496,-4.0496,-4.0496,-4.0496,-4.0496,-4.0496,-4.0496,-4.0496,-4.0496,-4.0496,-4.0496,-4.0496,-4.0496,0.0,0.0,0.0,0.0,0.0,0.0,0.0,0.0,0.0,0.0,-2.6691,-2.6708,0.0,0.0,0.0,0.0,0.0,0.0,0.0,-2.8749,-2.8952,-2.9005,-2.9005,-2.9005,-2.9005,-2.9005,-2.9005,-2.9005,-2.9005,-2.9005,-2.9005,-2.9005,-2.9134,-2.9361,-2.9361,-2.9465,-2.9643,-2.9643,-2.9643,-2.9616,-2.9444,-2.9474,-2.9616,-2.9464,0.0,0.0,0.0,0.0,0.0,0.0,0.0,0.0,-3.1821,-3.2968,-3.4238,-3.4373,-3.5027,-3.573,-3.5836,0.0,0.0,0.0,0.0,0.0,0.0,0.0,0.0,0.0,0.0,0.0,0.0,0.0,0.0,0.0,0.0,0.0,0.0,0.0,0.0,0.0,0.0,0.0,0.0,0.0,0.0,0.0,0.0,0.0,0.0,-3.5717,-3.5675,-3.5611,-3.5596,-3.601,-3.6817,-3.7611,-3.8469,-3.9419,-4.015,-4.0496,-4.0496,-4.0496,-4.0496,-4.0496,-4.0496,-4.0496,-4.0496,-4.0496,-4.0496,-4.0496,-4.0496,-4.0496,-4.0496,-4.0496,-4.0496,-4.0496,0.0,0.0,0.0,0.0,0.0,0.0,0.0,0.0,0.0,0.0,0.0,0.0,0.0,0.0,0.0,0.0,0.0,0.0,0.0,-2.8471,-2.867,-2.8994,-2.9005,-2.9005,-2.9005,-2.9005,-2.9005,-2.9005,-2.9005,-2.9005,-2.9005,-2.9005,-2.904,-2.9078,-2.9078,-2.9112,-2.916,-2.916,-2.916,-2.9149,-2.9093,-2.9104,-2.9181,-2.9341,-2.9532,0.0,0.0,0.0,0.0,0.0,0.0,0.0,-3.3423,-3.3917,-3.4347,-3.5046,-3.5425,-3.564,0.0,-3.58,0.0,0.0,0.0,0.0,0.0,0.0,0.0,0.0,0.0,0.0,0.0,0.0,0.0,0.0,0.0,0.0,0.0,0.0,0.0,0.0,0.0,0.0,0.0,0.0,0.0,0.0,0.0,0.0,-3.5869,-3.5867,-3.5799,-3.5678,-3.5626,-3.6306,-3.7781,-3.7924,-3.8738,0.0,-4.0419,-4.0496,-4.0496,-4.0496,-4.0496,-4.0496,-4.0496,-4.0496,-4.0496,-4.0496,-4.0496,-4.0496,-4.0496,-4.0496,-4.0496,-4.0496,-4.0496,-4.0496,0.0,0.0,0.0,0.0,0.0,0.0,0.0,0.0,0.0,0.0,0.0,0.0,0.0,0.0,0.0,0.0,0.0,0.0,0.0,0.0,-2.8773,-2.8994,-2.9005,-2.9005,-2.9005,-2.9372,-2.9574,-2.9574,-2.9971,-2.9739,-2.9005,-2.9005,-2.9005,-2.9005,-2.9005,-2.9005,-2.9005,-2.9005,-2.9005,-2.9005,-2.9005,-2.9005,-2.9017,-2.9156,-2.9353,-2.9626,-3.0121,0.0,0.0,0.0,0.0,0.0,0.0,0.0,-3.4924,-3.5412,-3.5566,-3.5616,0.0,0.0,0.0,0.0,0.0,0.0,0.0,0.0,0.0,0.0,0.0,0.0,0.0,0.0,0.0,0.0,0.0,0.0,0.0,0.0,0.0,0.0,0.0,0.0,0.0,0.0,0.0,0.0,0.0,-3.5976,-3.5948,-3.5948,-3.5895,-3.5802,-3.6171,-3.6958,-3.8185,-3.8514,-3.9322,-4.0589,-4.0523,-4.0496,-4.0496,-4.0496,-4.0496,-4.0504,-4.0574,-4.0589,-4.0596,-4.0623,-4.0629,-4.0589,-4.0589,-4.0559,-4.0496,-4.0496,-4.0496,-4.0496,0.0,0.0,0.0,0.0,0.0,0.0,0.0,0.0,0.0,0.0,0.0,0.0,0.0,0.0,0.0,0.0,0.0,0.0,0.0,0.0,0.0,-2.9005,-2.9133,-2.9207,-2.9207,-3.0008,-3.0411,-3.0411,-3.1072,-3.0723,-2.9409,-2.9409,-2.9409,-2.9409,-2.9409,-2.9335,-2.9207,-2.9207,-2.9133,-2.9005,-2.9005,-2.9005,-2.9023,-2.9152,-2.9381,-2.97,-3.0514,-3.107,-3.156,-3.2502,0.0,0.0,0.0,0.0,-3.5508,-3.5574,-3.559,-3.5636,0.0,0.0,0.0,0.0,0.0,0.0,0.0,0.0,0.0,0.0,0.0,0.0,0.0,0.0,0.0,0.0,0.0,0.0,0.0,0.0,0.0,0.0,0.0,0.0,0.0,0.0,0.0,0.0,0.0,-3.5996,-3.5996,-3.5996,-3.5974,-3.5914,-3.6747,-3.7561,-3.8319,-3.9053,-3.9876,-4.0718,-4.061,-4.0554,-4.0554,-4.0554,-4.0559,-4.0537,-4.0654,-4.0718,-4.0729,-4.0779,-4.0761,-4.0718,-4.0718,-4.0642,-4.0554,-4.0554,-4.0554,-4.0554,0.0,0.0,0.0,0.0,0.0,0.0,0.0,0.0,0.0,0.0,0.0,0.0,0.0,0.0,0.0,0.0,0.0,0.0,0.0,0.0,0.0,-2.9005,-2.9666,-3.0044,-3.0044,-3.0834,-3.125,-3.125,-3.136,-3.1286,-3.1085,-3.1085,-3.1085,-3.1085,-3.1085,-3.0687,-3.0044,-3.0044,-2.9629,-2.9005,-2.9005,-2.9005,-2.9078,-2.9757,-3.0212,-3.0557,-3.1357,-3.2266,-3.3138,-3.3504,-3.4208,0.0,0.0,0.0,0.0,-3.5508,-3.5544,-3.5616,0.0,0.0,0.0,0.0,0.0,0.0,0.0,0.0,0.0,0.0,0.0,0.0,0.0,0.0,0.0,0.0,0.0,0.0,0.0,0.0,0.0,0.0,0.0,0.0,0.0,0.0,0.0,0.0,-3.5996,-3.5996,-3.5996,-3.5996,-3.5996,-3.5995,-3.678,-3.7578,-3.8385,-3.9179,-3.9972,-4.0796,-4.076,-4.0755,-4.0755,-4.0755,-4.0732,-4.0674,-4.0743,-4.0796,-4.0796,-4.0793,-4.0789,-4.0796,-4.0796,-4.0788,-4.0755,-4.0755,-4.0755,-4.0757,0.0,0.0,0.0,0.0,0.0,0.0,0.0,0.0,0.0,0.0,0.0,0.0,0.0,0.0,0.0,0.0,0.0,0.0,0.0,0.0,0.0,-3.0338,-3.0687,-3.087,-3.087,-3.1659,-3.2063,-3.2063,-3.2522,-3.2742,-3.2742,-3.2742,-3.226,-3.1397,-3.1397,-3.1213,-3.087,-3.087,-3.0668,-3.0338,-3.0338,-3.0438,-3.0587,-3.079,-3.1121,-3.1577,-3.2243,-3.2874,-3.3486,-3.4093,-3.4557,-3.4926,-3.5198,0.0,0.0,0.0,0.0,0.0,0.0,0.0,0.0,0.0,0.0,0.0,0.0,0.0,0.0,0.0,0.0,0.0,0.0,0.0,0.0,0.0,0.0,0.0,0.0,0.0,0.0,0.0,0.0,0.0,0.0,0.0,0.0,0.0,-3.5996,-3.5996,-3.5996,-3.5996,-3.5996,-3.5996,-3.7282,-3.8157,-3.8507,-3.9759,-4.0526,-4.0797,-4.0797,-4.0797,-4.0801,-4.0874,-4.0847,-4.0767,-4.0877,-4.0914,-4.0917,-4.0992,-4.0988,-4.0914,-4.0914,-4.0867,-4.0797,-4.0797,-4.0797,-4.0781,0.0,0.0,0.0,0.0,0.0,0.0,0.0,0.0,0.0,0.0,0.0,0.0,0.0,0.0,0.0,0.0,0.0,0.0,0.0,0.0,0.0,-3.1366,-3.151,-3.1607,-3.1696,-3.2394,-3.2797,-3.2894,-3.3513,-3.3807,-3.3807,-3.3807,-3.3164,-3.2021,-3.2021,-3.1911,-3.1696,-3.1696,-3.1586,-3.1397,-3.1476,-3.1617,-3.1818,-3.1885,-3.2152,-3.2581,-3.3119,-3.344,-3.3694,-3.4354,-3.4572,-3.4614,-3.4917,-3.499,0.0,0.0,0.0,0.0,0.0,0.0,0.0,0.0,0.0,0.0,0.0,0.0,0.0,0.0,0.0,0.0,0.0,0.0,0.0,0.0,0.0,0.0,0.0,0.0,0.0,0.0,0.0,0.0,0.0,0.0,0.0,0.0,-3.5996,-3.5996,-3.5996,-3.5996,-3.6094,-3.6328,-3.7812,-3.8711,-3.8926,-4.0342,-4.0996,-4.0908,-4.0908,-4.0908,-4.0911,-4.1017,-4.0994,-4.0911,-4.1017,-4.1052,-4.1055,-4.1151,-4.1149,-4.1052,-4.1052,-4.0992,-4.0908,-4.0908,-4.0908,-4.0896,0.0,0.0,0.0,0.0,0.0,0.0,0.0,0.0,0.0,0.0,0.0,0.0,-2.8874,-2.9179,-2.9384,-2.9417,-3.0183,-3.0853,-3.1317,-3.0975,-3.0953,-3.1384,-3.1769,0.0,-3.2528,-3.295,-3.335,-3.3733,-3.377,-3.3807,-3.3807,-3.3807,-3.3752,-3.3678,-3.3678,-3.3256,-3.2528,-3.2528,-3.21,-3.1421,-3.1685,-3.1781,-3.1918,-3.2908,-3.3308,-3.3411,-3.3941,-3.4144,-3.4167,-3.4223,-3.4242,-3.4269,-3.4632,-3.4714,0.0,0.0,0.0,0.0,0.0,0.0,0.0,0.0,0.0,0.0,0.0,0.0,0.0,0.0,0.0,0.0,0.0,0.0,0.0,0.0,0.0,0.0,0.0,0.0,0.0,0.0,0.0,0.0,0.0,0.0,0.0,0.0,-3.5996,-3.5996,-3.5996,-3.5996,-3.6387,-3.7207,-3.8125,-3.9004,-3.9824,-4.0723,-4.1191,-4.1171,-4.1171,-4.1171,-4.1171,-4.1191,-4.1191,-4.1171,-4.1191,-4.1191,-4.1191,-4.1191,-4.1191,-4.1191,-4.1191,-4.1191,-4.1171,-4.1171,-4.1171,-4.1151,0.0,0.0,0.0,0.0,0.0,0.0,0.0,0.0,0.0,0.0,0.0,0.0,0.0,-2.9721,-3.0074,-3.0368,-3.0875,-3.1464,-3.2124,-3.2044,-3.225,-3.2908,-3.3081,-3.3214,-3.3366,-3.352,-3.3666,-3.3807,-3.3807,-3.3807,-3.3807,-3.3807,-3.3807,-3.3807,-3.3807,-3.3642,-3.3366,-3.3366,-3.3201,-3.2965,-3.3226,-3.3336,-3.3384,-3.3777,0.0,0.0,0.0,0.0,0.0,-3.3935,-3.3935,-3.3999,-3.4288,0.0,0.0,0.0,0.0,0.0,0.0,0.0,0.0,0.0,0.0,0.0,0.0,0.0,0.0,0.0,0.0,0.0,0.0,0.0,0.0,0.0,0.0,0.0,0.0,0.0,0.0,0.0,0.0,0.0,0.0,0.0,0.0,0.0,0.0,-3.5996,-3.5996,-3.5996,-3.6406,-3.7266,-3.8144,-3.9297,-4.0723,-4.1035,-4.1191,-4.1191,-4.1191,-4.1191,-4.1191,-4.1191,-4.1191,-4.1191,-4.1191,-4.1191,-4.1191,-4.1191,-4.1191,-4.1191,-4.1191,-4.1191,-4.1191,-4.1191,-4.1191,-4.1171,0.0,0.0,0.0,0.0,0.0,0.0,0.0,0.0,0.0,-2.9738,0.0,0.0,0.0,0.0,-3.0722,-3.1166,-3.1285,-3.1678,-3.2512,-3.2416,-3.2709,-3.356,-3.3447,-3.349,-3.3788,-3.3666,-3.3666,-3.3807,-3.3807,-3.3807,-3.3807,-3.3807,-3.3807,-3.3807,-3.3807,-3.3807,-3.3807,-3.3807,0.0,-3.3829,0.0,0.0,-3.4211,0.0,0.0,0.0,0.0,0.0,0.0,0.0,0.0,0.0,0.0,0.0,0.0,0.0,0.0,0.0,-3.5105,0.0,0.0,0.0,0.0,0.0,0.0,0.0,0.0,0.0,0.0,0.0,0.0,0.0,0.0,0.0,0.0,0.0,0.0,0.0,0.0,0.0,0.0,0.0,0.0,0.0,0.0,0.0,0.0,0.0,-3.5996,-3.6289,-3.6973,-3.8144,-3.9023,-4.0039,-4.1191,-4.1191,-4.1191,-4.1191,-4.1191,-4.1191,-4.1191,-4.1191,-4.1191,-4.1191,-4.1191,-4.1191,-4.1191,-4.1191,-4.1191,-4.1191,-4.1191,-4.1191,-4.1191,-4.1191,-4.1191,-4.1191,0.0,0.0,0.0,0.0,0.0,0.0,0.0,0.0,-3.119,-3.119,0.0,0.0,0.0,0.0,0.0,-3.1807,-3.1506,-3.1638,-3.2484,-3.2109,-3.2281,-3.3184,-3.2777,-3.2934,-3.3775,-3.3422,-3.3404,-3.3807,-3.3807,-3.3807,-3.3807,-3.3807,-3.3807,-3.3807,-3.3807,-3.3807,-3.3807,0.0,-3.3807,-3.3855,0.0,-3.4497,-3.4258,0.0,0.0,0.0,-3.4694,-3.4694,0.0,0.0,0.0,0.0,0.0,0.0,0.0,0.0,0.0,0.0,0.0,0.0,0.0,0.0,0.0,0.0,0.0,0.0,0.0,0.0,0.0,0.0,0.0,0.0,0.0,0.0,0.0,0.0,0.0,0.0,0.0,0.0,0.0,0.0,0.0,0.0,0.0,0.0,-3.5996,-3.5996,-3.5996,-3.6855,-3.8125,-3.9844,-4.0742,-4.1191,-4.1191,-4.1191,-4.1191,-4.1191,-4.1191,-4.1191,-4.1191,-4.1191,-4.1191,-4.1191,-4.1191,-4.1191,-4.1191,-4.1191,-4.1191,-4.1191,-4.1191,-4.1191,-4.1191,-4.1191,-4.1191,-4.1191,0.0,0.0,0.0,0.0,0.0,0.0,-3.0903,-3.1072,-3.119,0.0,0.0,0.0,-3.1603,-3.2248,-3.2697,-3.2809,-3.2981,-3.3178,-3.3433,-3.3328,-3.3357,-3.362,-3.3504,-3.3546,-3.3788,-3.3694,-3.3694,-3.3807,-3.3807,-3.3807,-3.3807,-3.3807,-3.3807,-3.3807,-3.3807,-3.3807,-3.3807,-3.3807,0.0,-3.3829,-3.4183,-3.4269,0.0,0.0,0.0,0.0,0.0,-3.4694,-3.4694,0.0,-3.454,-3.4288,0.0,0.0,0.0,0.0,0.0,0.0,-3.4735,0.0,0.0,0.0,0.0,0.0,0.0,0.0,0.0,0.0,0.0,0.0,0.0,0.0,0.0,0.0,0.0,0.0,0.0,0.0,0.0,0.0,0.0,0.0,0.0,0.0,0.0,0.0,-3.5996,-3.5996,-3.5996,-3.7422,-3.875,-3.9863,-4.0742,-4.1191,-4.1191,-4.1191,-4.1191,-4.1191,-4.1191,-4.1191,-4.1191,-4.1191,-4.1191,-4.1191,-4.1191,-4.1191,-4.1191,-4.1191,-4.1191,-4.1191,-4.1191,-4.1191,-4.1191,-4.1191,-4.1191,-4.1191,0.0,0.0,0.0,0.0,0.0,0.0,-3.119,-3.119,-3.119,0.0,0.0,0.0,-3.1509,-3.2056,-3.2367,-3.2367,-3.2582,-3.2711,-3.2711,-3.2711,-3.2791,-3.2963,-3.2978,-3.3054,-3.3255,-3.3447,-3.355,-3.355,-3.3721,-3.3807,-3.3807,-3.3807,-3.3807,-3.3807,-3.3807,-3.3807,0.0,0.0,0.0,0.0,-3.423,0.0,0.0,-3.4695,-3.4812,0.0,0.0,0.0,-3.4724,-3.4963,-3.4755,0.0,0.0,0.0,0.0,0.0,0.0,0.0,0.0,0.0,0.0,0.0,0.0,0.0,0.0,-3.55,0.0,0.0,0.0,0.0,0.0,0.0,0.0,0.0,0.0,0.0,0.0,0.0,0.0,0.0,0.0,0.0,0.0,0.0,-3.5996,-3.5996,-3.5996,-3.6328,-3.7051,-3.8047,-3.918,-4.0391,-4.0937,-4.1191,-4.1191,-4.1191,-4.1191,-4.1191,-4.1191,-4.1191,-4.1191,-4.1191,-4.1191,-4.1191,-4.1191,-4.1191,-4.1191,-4.1191,-4.1191,-4.1191,-4.1191,-4.1191,-4.1191,-4.1191,-4.1191,-4.1191,0.0,0.0,0.0,0.0,0.0,-3.119,-3.119,-3.119,-3.119,0.0,-3.119,-3.119,-3.119,-3.1249,-3.1291,-3.1349,-3.1349,-3.1368,-3.1408,-3.137,-3.1506,-3.1861,-3.1897,-3.2074,-3.2484,-3.2921,-3.3105,-3.3105,-3.3536,-3.3734,-3.3734,-3.3793,-3.3807,-3.3807,-3.3807,0.0,0.0,0.0,0.0,-3.3889,-3.442,-3.4497,0.0,0.0,-3.4972,0.0,-3.5062,-3.499,-3.4841,-3.5273,-3.5096,0.0,0.0,0.0,0.0,0.0,-3.4584,0.0,0.0,0.0,0.0,0.0,0.0,0.0,-3.55,-3.55,-3.55,0.0,0.0,0.0,0.0,0.0,0.0,0.0,0.0,0.0,0.0,0.0,0.0,0.0,0.0,0.0,0.0,-3.5996,-3.5996,-3.5996,-3.6094,-3.6855,-3.8516,-3.8691,-3.9492,-4.1152,-4.1191,-4.1191,-4.1191,-4.1191,-4.1191,-4.1191,-4.1191,-4.1191,-4.1191,-4.1191,-4.1191,-4.1191,-4.1191,-4.1191,-4.1191,-4.1191,-4.1191,-4.1191,-4.1191,-4.1191,-4.1191,-4.1191,-4.1191,-4.1191,0.0,0.0,0.0,0.0,0.0,0.0,-3.119,-3.119,-3.119,-3.119,-3.119,-3.119,-3.119,-3.1488,-3.1842,-3.2213,-3.2265,-3.2401,-3.2795,-3.2451,-3.2282,-3.2367,-3.2349,-3.2417,-3.2501,-3.2583,-3.2632,-3.2632,-3.309,-3.3317,-3.3317,-3.3652,-3.3807,-3.3807,-3.3807,0.0,0.0,0.0,0.0,-3.4135,-3.4253,0.0,-3.4653,-3.4972,-3.5207,-3.5354,-3.5391,-3.5383,-3.5297,0.0,-3.4803,-3.4653,0.0,0.0,0.0,0.0,0.0,0.0,0.0,0.0,0.0,0.0,0.0,0.0,-3.55,-3.55,-3.55,0.0,0.0,0.0,0.0,0.0,0.0,0.0,0.0,0.0,0.0,0.0,0.0,0.0,0.0,0.0,0.0,-3.5973,-3.5996,-3.5996,-3.6641,-3.75,-3.8535,-3.9277,-4.0117,-4.1172,-4.1191,-4.1191,-4.1191,-4.1191,-4.1191,-4.1191,-4.1191,-4.1191,-4.1191,-4.1191,-4.1191,-4.1191,-4.1191,-4.1191,-4.1191,-4.1191,-4.1191,-4.1191,-4.1191,-4.1191,-4.1191,-4.1191,-4.1191,-4.1191,0.0,0.0,0.0,0.0,0.0,0.0,-3.119,-3.119,-3.119,-3.119,-3.1372,-3.1601,-3.1823,-3.2021,-3.223,-3.2484,-3.2501,-3.2501,-3.25,-3.2281,-3.2144,-3.2144,-3.2144,-3.2247,-3.2501,-3.2729,-3.284,-3.284,-3.3288,-3.3508,-3.3508,-3.3707,-3.3807,-3.3807,-3.3807,0.0,0.0,0.0,-3.3876,-3.4018,-3.4323,0.0,-3.4935,-3.5198,-3.5376,-3.55,-3.55,-3.55,-3.5439,-3.5044,-3.4803,0.0,0.0,-3.4445,-3.4412,0.0,-3.4416,-3.4656,0.0,0.0,0.0,-3.5231,0.0,0.0,0.0,-3.55,-3.55,0.0,0.0,0.0,0.0,0.0,0.0,0.0,0.0,0.0,0.0,0.0,0.0,0.0,0.0,0.0,0.0,-3.589,-3.6147,-3.6601,-3.7051,-3.7871,-3.918,-3.9668,-4.0293,-4.1172,-4.1191,-4.1191,-4.1191,-4.1191,-4.1191,-4.1191,-4.1191,-4.1191,-4.1191,-4.1191,-4.1191,-4.1191,-4.1191,-4.1191,-4.1191,-4.1191,-4.1191,-4.1191,-4.1191,-4.1191,-4.1191,-4.1191,-4.1191,-4.1191,0.0,0.0,0.0,0.0,0.0,0.0,0.0,-3.119,-3.119,-3.119,-3.1547,-3.1933,-3.2315,-3.2451,-3.2534,-3.2632,-3.255,-3.235,-3.1951,-3.1861,-3.1771,-3.1696,-3.1678,-3.1861,-3.223,-3.2616,-3.284,-3.2919,-3.3361,-3.3592,-3.3694,-3.3762,-3.3807,-3.3807,-3.3807,0.0,0.0,0.0,0.0,-3.4018,0.0,-3.4793,-3.4962,-3.5297,-3.5424,-3.5432,-3.5486,-3.55,-3.5446,-3.513,0.0,-3.4684,-3.4614,-3.4653,0.0,0.0,0.0,0.0,0.0,0.0,0.0,0.0,0.0,-3.5361,0.0,0.0,0.0,0.0,0.0,0.0,0.0,0.0,0.0,0.0,0.0,0.0,0.0,0.0,0.0,0.0,0.0,0.0,0.0,-3.5805,-3.6345,-3.7439,-3.7539,-3.8242,-3.9824,-4.0059,-4.0469,-4.1172,-4.1191,-4.1191,-4.1191,-4.1191,-4.1191,-4.1191,-4.1191,-4.1191,-4.1191,-4.1191,-4.1191,-4.1191,-4.1191,-4.1191,-4.1191,-4.1191,-4.1191,-4.1191,-4.1191,-4.1191,-4.1191,-4.1191,-4.1191,-4.1191,-3.119,-3.119,0.0,0.0,0.0,0.0,0.0,-3.119,-3.119,-3.119,-3.1547,-3.1825,-3.1862,-3.2247,0.0,-3.3075,0.0,0.0,-3.2434,0.0,-3.1641,-3.1291,-3.1271,-3.1291,-3.1349,-3.1389,-3.1601,-3.1951,-3.2416,-3.2856,-3.3273,-3.362,-3.3807,0.0,-3.3807,0.0,0.0,0.0,-3.4099,0.0,-3.4663,-3.454,0.0,-3.4935,-3.5157,-3.5182,-3.5405,-3.55,-3.5424,0.0,-3.4733,-3.4653,0.0,-3.4456,0.0,0.0,0.0,0.0,0.0,0.0,0.0,0.0,-3.4764,0.0,0.0,0.0,0.0,0.0,0.0,0.0,0.0,0.0,0.0,0.0,0.0,0.0,0.0,0.0,0.0,0.0,0.0,0.0,0.0,-3.5794,-3.6567,-3.817,-3.8394,-3.8887,-3.9844,-4.0625,-4.1094,-4.1191,-4.1191,-4.1191,-4.1191,-4.1191,-4.1191,-4.1191,-4.1191,-4.1191,-4.1191,-4.1191,-4.1191,-4.1191,-4.1191,-4.1191,-4.1191,-4.1191,-4.1191,-4.1191,-4.1191,-4.1191,-4.1191,-4.1191,-4.1191,-4.1191,-3.119,-3.119,0.0,0.0,0.0,0.0,0.0,-3.119,-3.1291,-3.1526,-3.1696,-3.1897,0.0,0.0,0.0,0.0,0.0,-3.3166,0.0,0.0,-3.2247,-3.235,0.0,0.0,-3.2695,-3.2484,-3.2567,-3.2945,-3.3163,-3.3361,-3.355,-3.3721,-3.3807,0.0,-3.3961,0.0,-3.4031,0.0,0.0,0.0,0.0,0.0,0.0,-3.5032,-3.532,-3.5354,-3.5453,-3.55,-3.5479,0.0,-3.4954,0.0,0.0,0.0,0.0,0.0,0.0,0.0,0.0,0.0,0.0,0.0,0.0,0.0,-3.5457,0.0,-3.513,0.0,0.0,0.0,0.0,0.0,0.0,0.0,0.0,0.0,0.0,0.0,0.0,0.0,0.0,0.0,0.0,0.0,0.0,0.0,-3.9181,-3.9615,-4.0494,-4.0955,-4.1191,-4.1191,-4.1191,-4.1191,-4.1191,-4.1191,-4.1191,-4.1191,-4.1191,-4.1191,-4.1191,-4.1191,-4.1191,-4.1191,-4.1191,-4.1191,-4.1191,-4.1191,-4.1191,-4.1191,-4.1191,-4.1191,-4.1191,-4.1191,-4.1191,-4.1191,-3.119,0.0,0.0,0.0,0.0,0.0,0.0,0.0,0.0,0.0,0.0,0.0,-3.288,-3.3273,0.0,0.0,-3.3678,-3.3638,0.0,0.0,-3.2648,0.0,0.0,0.0,0.0,0.0,-3.3151,-3.3447,-3.3578,-3.3694,-3.3807,-3.3807,-3.3807,-3.382,0.0,-3.4086,-3.4086,0.0,0.0,-3.4176,-3.3999,-3.408,-3.4405,-3.5111,-3.5439,-3.55,-3.55,-3.55,-3.5493,-3.5424,-3.513,0.0,-3.4954,0.0,0.0,0.0,0.0,0.0,-3.4289,0.0,0.0,0.0,0.0,0.0,0.0,0.0,0.0,0.0,0.0,0.0,0.0,0.0,0.0,0.0,0.0,0.0,0.0,0.0,0.0,0.0,0.0,0.0,0.0,0.0,0.0,-3.9805,-3.9754,-4.0053,-4.0894,-4.1077,-4.1149,-4.1149,-4.1171,-4.1191,-4.1191,-4.1191,-4.1191,-4.1191,-4.1191,-4.1191,-4.1191,-4.1191,-4.1191,-4.1191,-4.1191,-4.1191,-4.1191,-4.1191,-4.1191,-4.1191,-4.1191,-4.1191,-4.1191,-4.1191,-4.1191,-4.1191,-3.119,-3.119,0.0,0.0,0.0,0.0,0.0,0.0,0.0,0.0,0.0,0.0,0.0,0.0,0.0,0.0,0.0,-3.3638,-3.3229,0.0,-3.2501,0.0,0.0,-3.1842,0.0,0.0,0.0,-3.2534,-3.2999,-3.3422,-3.3807,-3.3807,-3.3807,-3.3807,0.0,-3.3802,-3.3802,-3.3802,-3.3961,-3.42,-3.4188,-3.4379,-3.4714,0.0,-3.5281,-3.55,-3.55,0.0,0.0,-3.5198,-3.5105,0.0,0.0,0.0,0.0,0.0,0.0,0.0,0.0,0.0,0.0,-3.6141,0.0,0.0,0.0,0.0,-3.6715,0.0,0.0,0.0,0.0,0.0,-3.7441,-3.7441,0.0,0.0,0.0,0.0,0.0,0.0,0.0,0.0,0.0,0.0,0.0,-4.0548,-4.0014,-3.9961,-4.0766,-4.0925,-4.1017,-4.1017,-4.1128,-4.1191,-4.1191,-4.1191,-4.1191,-4.1191,-4.1191,-4.1191,-4.1191,-4.1191,-4.1191,-4.1191,-4.1191,-4.1191,-4.1191,-4.1191,-4.1191,-4.1191,-4.1191,-4.1191,-4.1191,-4.1191,-4.1191,-4.1191,0.0,0.0,0.0,0.0,0.0,0.0,0.0,-3.2662,0.0,0.0,0.0,0.0,0.0,0.0,-3.5167,0.0,0.0,-3.5398,-3.525,-3.4801,0.0,0.0,0.0,-3.3193,0.0,0.0,0.0,0.0,0.0,0.0,-3.339,-3.339,-3.3536,-3.382,0.0,-3.4068,0.0,0.0,0.0,0.0,0.0,-3.4277,-3.4401,0.0,0.0,-3.4972,-3.4972,-3.4972,0.0,-3.487,-3.4685,-3.4532,-3.4663,-3.485,-3.5086,-3.5394,-3.5811,0.0,0.0,0.0,-3.7016,-3.7563,0.0,0.0,0.0,0.0,0.0,0.0,0.0,0.0,0.0,0.0,-3.7824,-3.7824,-3.8405,0.0,0.0,0.0,0.0,0.0,0.0,0.0,0.0,0.0,0.0,-4.0516,-4.0415,-4.046,-4.0717,-4.0893,-4.0996,-4.0996,-4.1128,-4.1191,-4.1191,-4.1191,-4.1191,-4.1191,-4.1191,-4.1191,-4.1191,-4.1191,-4.1191,-4.1191,-4.1191,-4.1191,-4.1191,-4.1191,-4.1191,-4.1191,-4.1191,-4.1191,-4.1191,-4.1191,-4.1191,-4.1191,-3.3322,0.0,0.0,0.0,0.0,0.0,0.0,0.0,0.0,0.0,-3.4741,0.0,-3.5651,0.0,-3.5979,0.0,-3.6173,-3.6227,-3.6024,-3.574,0.0,-3.5177,-3.4881,0.0,0.0,0.0,0.0,0.0,0.0,-3.3827,-3.4309,-3.4309,-3.4426,-3.4702,0.0,0.0,-3.4482,0.0,-3.4315,0.0,0.0,-3.4222,0.0,0.0,-3.4749,-3.4694,0.0,-3.4694,-3.4751,-3.5023,-3.4983,-3.4888,-3.5394,-3.5652,-3.5826,-3.6216,-3.6629,-3.7066,-3.7486,-3.7811,0.0,-3.8688,-3.8563,0.0,-3.8476,0.0,0.0,0.0,0.0,0.0,0.0,0.0,0.0,-3.8756,-3.9307,-3.9727,0.0,0.0,0.0,0.0,0.0,0.0,0.0,0.0,-4.0496,-4.0496,-4.0588,-4.063,0.0,0.0,-4.0922,-4.0922,-4.1104,-4.1191,-4.1191,-4.1191,-4.1191,-4.1191,-4.1191,-4.1191,-4.1191,-4.1191,-4.1191,-4.1191,-4.1191,-4.1191,-4.1191,-4.1191,-4.1191,-4.1191,-4.1191,-4.1191,-4.1191,-4.1191,-4.1191,-4.1191,0.0,0.0,0.0,0.0,-3.3508,0.0,0.0,0.0,-3.4567,0.0,-3.5798,-3.6397,-3.7196,-3.6986,-3.6793,-3.6793,-3.6559,0.0,-3.5688,-3.5722,0.0,0.0,-3.567,-3.5686,-3.5596,0.0,0.0,0.0,0.0,0.0,-3.6227,-3.6227,-3.6256,0.0,-3.6303,0.0,-3.5059,-3.5059,-3.4619,-3.3917,-3.3917,-3.438,-3.5059,-3.5059,-3.4952,-3.4785,-3.4785,-3.4785,-3.4898,-3.5649,-3.5913,-3.6045,-3.6821,-3.7092,-3.7111,-3.7134,-3.7349,-3.768,-3.8228,-3.8614,-3.8994,-3.9501,0.0,0.0,0.0,0.0,-3.9622,0.0,0.0,0.0,0.0,0.0,0.0,-4.0101,-4.0302,-4.0481,0.0,0.0,0.0,0.0,0.0,0.0,0.0,-4.0496,-4.0496,-4.0496,-4.0496,0.0,0.0,0.0,-4.0797,-4.0797,-4.1055,-4.1191,-4.1191,-4.1191,-4.1191,-4.1191,-4.1191,-4.1191,-4.1191,-4.1191,-4.1191,-4.1191,-4.1191,-4.1191,-4.1191,-4.1191,-4.1191,-4.1191,-4.1191,-4.1191,-4.1191,-4.1191,-4.1191,-4.1191,-3.4923,-3.5042,-3.5042,0.0,-3.5042,-3.5042,0.0,0.0,0.0,0.0,-3.7112,-3.7643,-3.8251,-3.8234,-3.8188,-3.8188,-3.8132,0.0,0.0,0.0,0.0,-3.7016,-3.7191,-3.6772,-3.5614,-3.5789,0.0,-3.4564,0.0,0.0,-3.5181,0.0,0.0,0.0,0.0,0.0,-3.5973,-3.5973,-3.5844,-3.5661,-3.5661,-3.5771,0.0,0.0,-3.592,-3.5898,-3.5898,-3.5898,-3.5917,-3.6139,-3.6213,-3.6231,-3.644,-3.692,-3.7438,-3.7641,-3.8159,-3.8764,-3.9157,-3.9507,-3.9795,-3.9935,-4.011,-4.0221,0.0,0.0,0.0,0.0,0.0,0.0,0.0,0.0,0.0,0.0,-4.0158,0.0,0.0,0.0,0.0,0.0,0.0,0.0,0.0,0.0,-4.0496,-4.0496,-4.0496,0.0,0.0,0.0,0.0,-4.0797,-4.1055,-4.1191,-4.1191,-4.1103,-4.1103,-4.1191,-4.1103,-4.1104,-4.1191,-4.1191,-4.1191,-4.1191,-4.1191,-4.1191,-4.1191,-4.1191,-4.1191,-4.1191,-4.1191,-4.1191,-4.1191,-4.1191,-4.1191,-4.1191,-3.5515,0.0,0.0,-3.56,0.0,0.0,-3.5644,0.0,0.0,-3.6803,-3.7452,0.0,-3.8334,-3.8562,-3.8707,-3.8707,-3.8707,0.0,0.0,0.0,0.0,-3.7692,-3.8029,-3.7849,-3.6971,-3.6873,0.0,-3.5808,0.0,0.0,-3.5846,0.0,0.0,0.0,0.0,-3.6927,0.0,-3.645,-3.6303,-3.6303,-3.6303,0.0,0.0,-3.6831,-3.7037,-3.7349,-3.7349,-3.689,-3.634,-3.6707,-3.6831,-3.6905,-3.7239,-3.7739,-3.8224,-3.8388,-3.8946,-3.9587,-3.9775,-4.0033,-4.0267,-4.0267,-4.0381,-4.0465,-4.0313,-4.0267,-4.0267,0.0,0.0,0.0,0.0,0.0,0.0,0.0,0.0,0.0,0.0,0.0,0.0,0.0,0.0,0.0,0.0,0.0,0.0,0.0,0.0,0.0,0.0,0.0,0.0,-4.0762,-4.0983,-4.1081,-4.1025,-4.1017,-4.1017,-4.1025,-4.1017,-4.1049,-4.1106,-4.1171,-4.1191,-4.1191,-4.1191,-4.1191,-4.1191,-4.1191,-4.1191,-4.1191,-4.1191,-4.1191,-4.1191,-4.1191,-4.1191,-4.1191,0.0,0.0,0.0,0.0,0.0,0.0,0.0,-3.6165,0.0,-3.6603,0.0,-3.7997,-3.7997,-3.8415,-3.8707,-3.8707,0.0,-3.8496,-3.8048,-3.8449,-3.8481,-3.8032,-3.8449,-3.8707,-3.8707,-3.8232,0.0,0.0,0.0,0.0,0.0,0.0,0.0,0.0,0.0,0.0,0.0,-3.6876,-3.6615,-3.6615,-3.6615,-3.7019,-3.7658,-3.7658,-3.8083,-3.8707,-3.8707,-3.7808,-3.6707,-3.7419,-3.7658,-3.7786,-3.8487,-3.8855,-3.9049,-3.9049,-3.9457,-3.992,-3.992,-4.0148,-4.037,-4.037,-4.0438,-4.0496,-4.0496,-4.0496,-4.0496,-4.0496,-4.0496,-4.0496,0.0,0.0,0.0,0.0,0.0,0.0,0.0,0.0,0.0,0.0,0.0,0.0,0.0,0.0,0.0,0.0,0.0,0.0,0.0,0.0,0.0,-4.0697,-4.0889,-4.0917,-4.0801,0.0,-4.0905,-4.0801,-4.0908,-4.0976,-4.0986,-4.1083,-4.1149,-4.1149,-4.1149,-4.1149,-4.1149,-4.1149,-4.1151,-4.1171,-4.1191,-4.1191,-4.1191,-4.1191,-4.1191,-4.1191,0.0,0.0,0.0,0.0,0.0,-3.5717,-3.5622,-3.6768,-3.7649,-3.7649,-3.8167,-3.8562,-3.8562,-3.8643,-3.8707,-3.8707,-3.8707,0.0,0.0,0.0,0.0,-3.8562,-3.8643,-3.8707,-3.8707,-3.8611,-3.8152,0.0,0.0,0.0,0.0,0.0,0.0,0.0,0.0,0.0,-3.7848,-3.8149,0.0,-3.8285,-3.8285,-3.8358,-3.8487,-3.8487,-3.8579,-3.8707,-3.8707,-3.8524,-3.8303,-3.845,-3.8487,-3.8505,-3.867,-3.8735,-3.8777,-3.8777,-3.8848,-3.8946,-3.8946,-3.9339,-3.9757,-3.9757,-4.0138,-4.0496,-4.0496,-4.0496,-4.0496,-4.0496,-4.0496,-4.0496,-4.0496,0.0,0.0,0.0,0.0,0.0,0.0,0.0,0.0,0.0,0.0,0.0,0.0,0.0,0.0,0.0,0.0,0.0,0.0,0.0,0.0,0.0,-4.0799,0.0,0.0,0.0,-4.0762,-4.0797,-4.0781,-4.0776,-4.0847,-4.086,-4.087,-4.087,-4.087,-4.087,-4.087,-4.087,-4.0947,-4.1051,-4.115,-4.1191,-4.1191,-4.1191,-4.1191,-4.1191,0.0,0.0,0.0,0.0,0.0,0.0,0.0,-3.6884,0.0,-3.7155,-3.7808,-3.8283,-3.8283,-3.853,-3.8707,-3.8707,-3.8707,-3.8707,-3.8707,-3.8707,-3.8707,-3.8707,-3.8707,0.0,-3.8707,-3.8707,-3.8219,-3.7209,0.0,0.0,0.0,0.0,0.0,0.0,0.0,-3.7843,0.0,0.0,0.0,-3.8707,-3.8707,-3.8707,-3.8707,-3.8707,-3.8707,-3.8707,-3.8707,-3.8707,-3.8707,-3.8707,-3.8707,-3.8707,-3.8707,-3.8788,-3.8909,-3.8909,-3.9031,-3.9168,-3.9168,-3.9377,-3.9599,-3.9599,-3.9821,-4.0034,-4.0034,-4.0176,-4.0285,-4.0285,-4.0397,-4.0465,-4.0321,-4.0186,0.0,0.0,0.0,0.0,0.0,0.0,0.0,0.0,0.0,0.0,0.0,0.0,0.0,0.0,0.0,0.0,0.0,0.0,0.0,0.0,0.0,0.0,0.0,0.0,0.0,-4.0639,-4.0678,-4.0718,-4.0747,-4.0773,-4.0797,-4.0797,-4.0797,-4.0797,-4.0797,-4.0797,-4.0847,-4.0908,-4.0962,-4.0992,-4.0996,-4.1077,-4.1052,-4.1,0.0,-3.56,0.0,0.0,-3.5963,0.0,-3.6224,-3.6684,-3.6921,-3.6603,-3.7249,-3.779,-3.7876,-3.8283,-3.8596,-3.8692,-3.8707,-3.8707,-3.8707,-3.8707,-3.8707,-3.8707,-3.8707,-3.8707,-3.8707,-3.8707,-3.8269,0.0,0.0,0.0,0.0,0.0,0.0,0.0,0.0,0.0,0.0,0.0,-3.8707,-3.8707,-3.8707,-3.8707,-3.8707,-3.8707,-3.8707,-3.8707,-3.8707,-3.8707,-3.8707,-3.8707,-3.8707,-3.8707,-3.8707,-3.8826,-3.9008,-3.9008,-3.921,-3.9414,-3.9414,-3.9445,-3.9486,-3.9486,-3.9552,-3.9599,-3.9599,-3.9797,-3.9992,-3.9992,-4.0223,-4.0356,-4.0139,-4.0148,0.0,0.0,0.0,0.0,0.0,0.0,0.0,0.0,0.0,0.0,0.0,0.0,0.0,0.0,0.0,0.0,0.0,0.0,0.0,0.0,0.0,-4.0603,-4.0496,0.0,-4.0603,-4.0496,-4.0603,-4.0668,-4.0655,-4.0717,-4.0747,-4.0747,-4.0747,-4.0747,-4.0747,-4.0775,-4.0784,-4.0784,-4.0789,-4.0797,-4.0809,-4.0917,-4.0883,-4.0824,0.0,0.0,0.0,0.0,0.0,0.0,0.0,-3.6139,-3.6623,-3.7076,-3.7209,-3.7433,-3.7842,-3.7946,-3.8167,-3.8658,-3.8707,-3.8707,-3.8707,-3.8707,-3.8707,-3.8707,-3.8707,-3.8707,-3.8707,-3.8707,-3.8433,0.0,0.0,0.0,0.0,0.0,0.0,0.0,0.0,0.0,0.0,-3.8496,-3.8707,-3.8707,-3.8707,-3.8707,-3.8707,-3.8707,-3.8707,-3.8707,-3.8707,-3.8707,-3.8707,-3.8707,-3.8707,-3.8707,-3.8707,-3.8719,-3.875,-3.875,-3.8765,-3.8777,-3.8777,-3.8947,-3.9152,-3.9152,-3.9377,-3.9599,-3.9599,-3.9622,-3.9645,-3.9645,-3.9912,-4.0129,-4.0101,-4.0304,-4.0465,0.0,0.0,0.0,0.0,0.0,0.0,0.0,0.0,0.0,0.0,0.0,0.0,0.0,0.0,0.0,0.0,0.0,0.0,-4.0496,0.0,-4.0512,-4.0496,-4.0512,-4.0512,-4.0496,-4.0512,-4.0519,-4.0527,-4.0523,-4.053,-4.053,-4.053,-4.053,-4.0545,-4.0661,-4.0701,-4.0713,-4.0779,-4.0797,-4.0801,-4.0809,-4.0809,-4.0816,0.0,0.0,0.0,0.0,0.0,0.0,0.0,-3.5783,-3.6006,-3.6207,-3.6805,-3.7267,-3.7451,-3.7488,-3.7578,-3.7791,-3.8066,-3.8216,-3.8216,-3.853,-3.8707,-3.8707,-3.8707,-3.8707,-3.8707,-3.8707,-3.8449,0.0,0.0,0.0,0.0,0.0,0.0,0.0,0.0,-3.7894,-3.8399,-3.8611,-3.8707,-3.8707,-3.8707,-3.8707,-3.8707,-3.8707,-3.8707,-3.8707,-3.8707,-3.8707,-3.8707,-3.8707,-3.8707,-3.8707,-3.8707,-3.8707,-3.8707,-3.8707,-3.8707,-3.8707,-3.8707,-3.8792,-3.8855,-3.8855,-3.897,-3.9064,-3.9064,-3.9184,-3.9289,-3.9289,-3.9576,-3.987,-4.0052,-4.0186,-4.0321,0.0,0.0,0.0,0.0,0.0,0.0,0.0,0.0,0.0,0.0,0.0,0.0,0.0,0.0,0.0,0.0,0.0,0.0,-4.0496,0.0,-4.0496,-4.0496,-4.0496,-4.0496,-4.0496,-4.0496,-4.0496,-4.0496,-4.0496,-4.0496,-4.0496,-4.0496,-4.0496,-4.0504,-4.0559,-4.0588,-4.0575,-4.061,-4.0616,-4.0629,-4.0715,-4.0693,-4.0633,-3.56,0.0,-3.56,0.0,-3.56,-3.56,-3.56,-3.56,-3.56,-3.56,-3.627,-3.6786,-3.696,-3.6962,-3.7038,-3.719,-3.7506,-3.7685,-3.7685,-3.805,-3.8318,-3.8465,-3.8465,0.0,-3.8692,-3.8707,-3.8512,-3.815,-3.7649,0.0,0.0,0.0,0.0,0.0,-3.7893,-3.82,-3.8707,-3.8707,-3.8707,-3.8707,-3.8707,-3.8707,-3.8707,-3.8707,-3.8707,-3.8707,-3.8707,-3.8707,-3.8707,-3.8707,-3.8707,-3.8707,-3.8707,-3.8707,-3.8707,-3.8707,-3.8707,-3.8707,-3.8707,-3.8707,-3.8707,-3.8707,-3.8707,-3.8707,-3.8707,-3.8859,-3.8985,-3.8985,-3.9231,-3.9529,-3.9765,-3.9891,-4.0052,-4.0339,0.0,0.0,0.0,0.0,0.0,0.0,-4.0496,-4.0496,-4.0496,0.0,0.0,0.0,0.0,0.0,0.0,0.0,0.0,0.0,0.0,0.0,0.0,-4.0496,-4.0496,-4.0496,-4.0496,-4.0496,-4.0496,-4.0496,-4.0496,-4.0496,-4.0496,-4.0496,-4.0496,-4.0496,-4.0496,-4.0496,-4.0496,-4.0496,-4.0512,-4.0603,-4.0568,-4.0523,-3.56,-3.56,-3.56,-3.56,-3.56,-3.56,-3.56,-3.56,-3.56,-3.56,-3.5622,-3.581,-3.6333,-3.6395,-3.6623,-3.7135,-3.7209,-3.7209,-3.7209,-3.721,-3.7415,0.0,0.0,-3.8167,-3.8692,-3.8707,-3.8692,-3.8692,0.0,0.0,-3.7859,0.0,-3.7451,-3.7893,-3.7893,-3.82,-3.8707,-3.8707,-3.8707,-3.8707,-3.8707,-3.8707,-3.8707,-3.8707,-3.8707,-3.8707,-3.8707,-3.8707,-3.8707,-3.8707,-3.8707,-3.8707,-3.8707,-3.8707,-3.8707,-3.8707,-3.8707,-3.8707,-3.8707,-3.8707,-3.8707,-3.8707,-3.8707,-3.8707,-3.8707,-3.8707,-3.8707,-3.8707,-3.8923,-3.9112,-3.9125,-3.9377,-3.972,-4.0042,0.0,0.0,0.0,0.0,0.0,0.0,-4.0496,-4.0496,-4.0496,0.0,0.0,0.0,0.0,0.0,0.0,0.0,0.0,-4.0496,-4.0496,0.0,-4.0496,-4.0496,-4.0496,-4.0496,-4.0496,-4.0496,-4.0496,-4.0496,-4.0496,-4.0496,-4.0496,-4.0496,-4.0496,-4.0496,-4.0496,-4.0496,-4.0496,-4.0496,-4.0496,-4.0496,-4.0496,-4.0527,-3.7077,-3.7155,-3.7155,-3.7155,-3.7155,-3.7155,-3.7155,-3.7155,-3.7155,-3.7155,-3.6738,-3.6469,-3.6655,-3.6178,-3.5902,0.0,-3.644,-3.6803,0.0,-3.7506,-3.7737,-3.7893,-3.8251,-3.8348,-3.8167,-3.8512,-3.8707,-3.8707,0.0,0.0,0.0,-3.7737,-3.7964,-3.8449,-3.8449,-3.8546,-3.8707,-3.8707,-3.8707,-3.8707,-3.8707,-3.8707,-3.8707,-3.8707,-3.8707,-3.8707,-3.8707,-3.8707,-3.8707,-3.8707,-3.8707,-3.8707,-3.8707,-3.8707,-3.8707,-3.8707,-3.8707,-3.8707,-3.8707,-3.8707,-3.8707,-3.8707,-3.8707,-3.8707,-3.8707,-3.8707,-3.8707,-3.8707,-3.8777,-3.8884,-3.9058,-3.9186,-3.9364,-3.9701,-3.9943,0.0,0.0,0.0,0.0,0.0,-4.0496,-4.0496,0.0,-4.0496,0.0,0.0,0.0,0.0,0.0,0.0,0.0,0.0,-4.0496,0.0,-4.0496,-4.0496,-4.0496,-4.0496,-4.0496,-4.0496,-4.0496,-4.0496,-4.0496,-4.0496,-4.0496,-4.0496,-4.0496,-4.0496,-4.0496,-4.0496,-4.0496,-4.0496,-4.0496,-4.0496,-4.0496,-4.0504,-3.7821,-3.7905,-3.7905,-3.7905,-3.7905,-3.7905,-3.7905,-3.7905,-3.7905,-3.7905,-3.7499,-3.7195,-3.7195,-3.6518,0.0,-3.5616,-3.6097,-3.6539,-3.6882,-3.736,-3.772,-3.7876,-3.8216,-3.835,-3.82,-3.853,0.0,-3.8707,-3.8366,-3.82,-3.82,-3.82,-3.8382,-3.8707,-3.8707,-3.8707,-3.8707,-3.8707,-3.8707,-3.8707,-3.8707,-3.8707,-3.8707,-3.8707,-3.8707,-3.8707,-3.8707,-3.8707,-3.8707,-3.8707,-3.8707,-3.8707,-3.8707,-3.8707,-3.8707,-3.8707,-3.8707,-3.8707,-3.8707,-3.8707,-3.8707,-3.8707,-3.8707,-3.8707,-3.8707,-3.8707,-3.8707,-3.8707,-3.8707,-3.8747,-3.8923,-3.8947,-3.9054,-3.9352,-3.9587,-3.9775,-3.9901,0.0,0.0,0.0,0.0,0.0,0.0,-4.0496,-4.0496,0.0,0.0,0.0,0.0,0.0,0.0,-4.0496,-4.0496,0.0,-4.0496,-4.0496,-4.0496,-4.0496,-4.0496,-4.0669,-4.0989,-4.0989,-4.1162,-4.1458,-4.1123,-4.0989,-4.095,-4.0631,-4.0496,-4.0496,-4.0496,-4.0496,-4.0496,-4.0496,-4.0496,-4.0496,-3.8041,-3.8058,0.0,0.0,-3.8058,0.0,-3.8058,-3.8058,-3.8058,-3.8058,-3.8024,-3.799,-3.799,-3.7313,-3.6569,-3.5819,0.0,0.0,0.0,-3.6862,-3.736,-3.7825,-3.7876,-3.8132,-3.8627,-3.8692,-3.8707,-3.8707,-3.8707,-3.8707,-3.8707,-3.8707,-3.8707,-3.8707,-3.8707,-3.8707,-3.8707,-3.8707,-3.8707,-3.8707,-3.8707,-3.8707,-3.8707,-3.8707,-3.8707,-3.8707,-3.8707,-3.8707,-3.8707,-3.8707,-3.8707,-3.8707,-3.8707,-3.8707,-3.8707,-3.8707,-3.8707,-3.8707,-3.8707,-3.8707,-3.8707,-3.8707,-3.8707,-3.8707,-3.8707,-3.8707,-3.8707,-3.8707,-3.8707,-3.8707,-3.8707,-3.8707,-3.8788,-3.9063,-3.9125,-3.9251,-3.9587,0.0,0.0,0.0,0.0,0.0,0.0,-4.0496,-4.0496,0.0,0.0,0.0,0.0,0.0,-4.0496,-4.0496,-4.0496,-4.0496,-4.0496,-4.0496,-4.0535,-4.0593,-4.065,-4.1104,-4.1885,-4.1885,-4.2335,-4.3047,-4.2239,-4.1885,-4.1835,-4.1008,-4.0689,-4.0689,-4.0689,-4.0689,-4.0669,-4.0612,-4.0593,-4.0573,0.0,0.0,-3.9588,-3.9588,-3.9588,-3.9588,-3.9588,-3.9588,-3.9588,-3.9588,-3.9089,-3.8734,-3.8734,-3.8075,-3.7567,-3.7381,-3.6395,-3.5963,-3.6374,-3.6519,-3.6823,-3.7341,-3.7702,-3.7963,-3.8082,-3.8481,-3.8707,-3.8707,-3.8707,-3.8707,-3.8707,-3.8707,-3.8707,-3.8707,-3.8707,-3.8707,-3.8707,-3.8707,-3.8707,-3.8707,-3.8707,-3.8707,-3.8707,-3.8707,-3.8707,-3.8707,-3.8707,-3.8707,-3.8707,-3.8707,-3.8707,-3.8707,-3.8707,-3.8707,-3.8707,-3.8707,-3.8707,-3.8707,-3.8707,-3.8707,-3.8707,-3.8707,-3.8707,-3.8707,-3.8707,-3.8707,-3.8707,-3.8707,-3.8707,-3.8707,-3.8707,-3.8707,-3.8788,-3.9063,-3.9314,-3.9599,-3.9932,-4.0167,0.0,0.0,-4.0417,-4.0441,-4.0489,-4.0496,-4.0496,0.0,0.0,0.0,0.0,-4.0496,-4.0496,-4.0496,-4.0496,-4.0496,-4.0496,-4.0496,-4.0835,-4.1508,-4.2162,-4.2585,-4.2797,-4.2797,-4.2893,-4.3085,-4.2874,-4.2797,-4.2777,-4.2566,-4.247,-4.247,-4.247,-4.247,-4.2393,-4.1739,-4.1489,-4.1393,-4.0028,-4.0096,-4.0096,-4.0096,-4.0096,-4.0096,-4.0096,-4.0096,-4.0096,-4.0096,-3.9757,-3.9503,-3.9503,-3.8836,-3.8396,-3.8396,-3.7206,-3.659,-3.6876,-3.6815,-3.6902,-3.719,-3.7451,-3.7685,-3.7911,-3.8183,-3.8465,-3.8707,-3.8707,-3.8707,-3.8707,-3.8707,-3.8707,-3.8707,-3.8707,-3.8707,-3.8707,-3.8707,-3.8707,-3.8707,-3.8707,-3.8707,-3.8707,-3.8707,-3.8707,-3.8707,-3.8707,-3.8707,-3.8707,-3.8707,-3.8707,-3.8707,-3.8707,-3.8707,-3.8707,-3.8707,-3.8707,-3.8707,-3.8707,-3.8707,-3.8707,-3.8707,-3.8707,-3.8707,-3.8707,-3.8707,-3.8707,-3.8707,-3.8707,-3.8707,-3.8707,-3.8707,-3.875,-3.888,-3.9073,-3.9242,-3.9433,-3.9701,0.0,-4.0072,-4.0221,-4.0364,-4.0489,-4.0496,-4.0496,-4.0496,-4.0496,0.0,-4.0496,-4.0496,-4.0496,-4.0496,-4.0496,-4.0689,-4.1085,-4.1489,-4.1931,-4.2412,-4.2874,-4.3297,-4.3643,-4.3643,-4.3874,-4.422,-4.3816,-4.3643,-4.3624,-4.3258,-4.3104,-4.3104,-4.3104,-4.3104,-4.3047,-4.2566,-4.2393,-4.2335,-4.0096,-4.0096,-4.0096,-4.0096,-4.0096,-4.0096,-4.0096,-4.0096,-4.0096,-4.0096,-4.0096,-4.0096,-4.0096,-3.9529,-3.9157,-3.9157,-3.8265,-3.7663,-3.7581,-3.7298,-3.7175,-3.7235,-3.7225,-3.7415,-3.7876,-3.798,-3.8232,-3.8707,-3.8707,-3.8707,-3.8707,-3.8707,-3.8707,-3.8707,-3.8707,-3.8707,-3.8707,-3.8707,-3.8707,-3.8707,-3.8707,-3.8707,-3.8707,-3.8707,-3.8707,-3.8707,-3.8707,-3.8707,-3.8707,-3.8707,-3.8707,-3.8707,-3.8707,-3.8707,-3.8707,-3.8707,-3.8707,-3.8707,-3.8707,-3.8707,-3.8707,-3.8707,-3.8707,-3.8707,-3.8707,-3.8707,-3.8707,-3.8707,-3.8707,-3.8707,-3.8707,-3.8707,-3.8704,-3.8747,-3.8762,-3.8777,-3.8837,0.0,-3.9352,-3.9634,-3.9963,-4.0241,-4.0481,-4.0496,-4.0496,-4.0496,-4.0496,-4.0496,-4.0496,-4.0631,-4.0708,-4.0708,-4.0708,-4.1104,-4.1981,-4.2854,-4.3278,-4.3278,-4.3412,-4.3835,-4.4489,-4.4489,-4.4893,-4.5556,-4.4816,-4.4489,-4.4432,-4.3758,-4.347,-4.347,-4.347,-4.347,-4.3451,-4.3335,-4.3278,-4.3258,-4.0096,-4.0096,-4.0096,-4.0096,-4.0096,-4.0096,-4.0096,-4.0096,-4.0096,-4.0096,-4.0096,-4.0096,-4.0096,-3.9994,-3.9943,-3.9943,-3.9221,-3.8506,-3.7872,-3.7223,-3.7031,-3.7436,-3.7294,-3.7415,-3.7876,-3.8332,-3.8627,-3.8707,-3.8707,-3.8707,-3.8707,-3.8707,-3.8707,-3.8707,-3.8707,-3.8707,-3.8707,-3.8707,-3.8707,-3.8707,-3.8707,-3.8707,-3.8707,-3.8707,-3.8707,-3.8707,-3.8707,-3.8707,-3.8707,-3.8707,-3.8707,-3.8707,-3.8707,-3.8707,-3.8707,-3.8707,-3.8707,-3.8707,-3.8707,-3.8707,-3.8707,-3.8707,-3.8707,-3.8707,-3.8707,-3.8707,-3.8707,-3.8707,-3.8707,-3.8707,-3.8707,-3.8707,-3.8777,-3.8999,-3.9036,-3.9144,-3.942,0.0,-3.9953,-4.0012,-4.0267,-4.0457,-4.0496,-4.0496,-4.0496,-4.0496,-4.0496,-4.0496,-4.0496,-4.12,-4.1604,-4.1604,-4.1604,-4.2027,-4.2893,-4.3701,-4.4105,-4.4124,-4.4863,-4.5287,-4.5402,-4.5402,-4.5479,-4.5594,-4.546,-4.5402,-4.5383,-4.5267,-4.521,-4.521,-4.521,-4.521,-4.5114,-4.4393,-4.4105,-4.4028,-4.0096,-4.0096,-4.0096,-4.0096,-4.0096,-4.0096,-4.0096,-4.0096,-4.0096,-4.0096,-4.0096,-4.0096,-4.0096,-4.0096,-4.0096,-4.0096,-3.9791,-3.9453,-3.9106,-3.8293,-3.7924,-3.8131,-3.8368,-3.8504,-3.856,-3.9069,-3.9129,-3.8707,-3.8707,-3.8707,-3.8707,-3.8707,-3.8707,-3.8707,-3.8707,-3.8707,-3.8707,-3.8707,-3.8707,-3.8707,-3.8707,-3.8707,-3.8707,-3.8707,-3.8707,-3.8707,-3.8707,-3.8707,-3.8707,-3.8707,-3.8707,-3.8707,-3.8707,-3.8707,-3.8707,-3.8707,-3.8707,-3.8707,-3.8707,-3.8707,-3.8707,-3.8707,-3.8707,-3.8707,-3.8707,-3.8707,-3.8707,-3.8707,-3.8707,-3.8707,-3.8707,-3.8707,-3.875,-3.8855,-3.8865,0.0,0.0,-3.9377,-3.9634,-3.9808,-4.0101,-4.0347,-4.0481,-4.0496,-4.0496,-4.0496,-4.0931,-4.12,-4.12,-4.2027,-4.2508,-4.2508,-4.2912,-4.3335,-4.3739,-4.4586,-4.4998,-4.5017,-4.5421,-4.5594,-4.5594,-4.5594,-4.5594,-4.5594,-4.5594,-4.5594,-4.5594,-4.5594,-4.5594,-4.5594,-4.5594,-4.5594,-4.5556,-4.5152,-4.4998,-4.496,-4.0096,-4.0096,-4.0096,-4.0096,-4.0096,-4.0096,-4.0096,-4.0096,-4.0096,-4.0096,-4.0096,-4.0096,-4.0096,-4.0096,-4.0096,-4.0096,-4.0096,-4.0096,-4.0096,-3.9525,-3.9079,-3.8789,-3.9294,-3.956,-3.9567,-3.9977,-3.9882,-3.9258,-3.9258,-3.9166,-3.8982,-3.8982,-3.8891,-3.8707,-3.8707,-3.8707,-3.8707,-3.8707,-3.8707,-3.8707,-3.8707,-3.8707,-3.8707,-3.8707,-3.8707,-3.8707,-3.8707,-3.8707,-3.8707,-3.8707,-3.8707,-3.8707,-3.8707,-3.8707,-3.8707,-3.8707,-3.8707,-3.8707,-3.8707,-3.8707,-3.8707,-3.8707,-3.8707,-3.8707,-3.8707,-3.8707,-3.8707,-3.8707,-3.8707,-3.8707,-3.8707,-3.8707,-3.8707,-3.8707,0.0,0.0,0.0,-3.8919,-3.9205,-3.945,-3.9775,-4.0167,-4.065,-4.0685,-4.0806,-4.1085,-4.172,-4.2104,-4.2104,-4.2912,-4.347,-4.3662,-4.4085,-4.4393,-4.4605,-4.5267,-4.5594,-4.5594,-4.5594,-4.5594,-4.5594,-4.5594,-4.5594,-4.5594,-4.5594,-4.5594,-4.5594,-4.5594,-4.5594,-4.5594,-4.5594,-4.5594,-4.5594,-4.5594,-4.5594,-4.5594,-4.0096,-4.0096,-4.0096,-4.0096,-4.0096,-4.0096,-4.0096,-4.0096,-4.0096,-4.0096,-4.0096,-4.0096,-4.0096,-4.0096,-4.0096,-4.0096,-4.0096,-4.0096,-4.0096,-4.0497,-4.0214,-3.9018,-3.9334,-3.9942,-4.0919,-4.0987,-4.0967,-4.0912,-4.0912,-4.0543,-3.9808,-3.9808,-3.9405,-3.8707,-3.8707,-3.8707,-3.8707,-3.8707,-3.8707,-3.8707,-3.8707,-3.8707,-3.8707,-3.8707,-3.8707,-3.8707,-3.8707,-3.8707,-3.8707,-3.8707,-3.8707,-3.8707,-3.8707,-3.8707,-3.8707,-3.8707,-3.8707,-3.8707,-3.8707,-3.8707,-3.8707,-3.8707,-3.8707,-3.8707,-3.8707,-3.8707,-3.8707,-3.8707,-3.8707,-3.8707,-3.8707,-3.8707,-3.8707,-3.8707,0.0,0.0,-3.8707,-3.8919,-3.9112,-3.912,-3.9426,-4.006,-4.114,-4.1246,-4.1705,-4.2819,-4.297,-4.3008,-4.3008,-4.3778,-4.4586,-4.5383,-4.4682,-4.4682,-4.5498,-4.5575,-4.5594,-4.5594,-4.5594,-4.5594,-4.5594,-4.5594,-4.5594,-4.5594,-4.5594,-4.5594,-4.5594,-4.5594,-4.5594,-4.5594,-4.5594,-4.5594,-4.5594,-4.5594,-4.5594,-4.5594,-4.0096,-4.0096,-4.0096,-4.0096,-4.0096,-4.0096,-4.0096,-4.0096,-4.0096,-4.0096,-4.0096,-4.0096,-4.0096,-4.0096,-4.0096,-4.0096,-4.0096,-4.0096,-4.0096,-4.0286,-4.0504,-4.0727,-4.1227,-4.1407,-4.1306,-4.1657,-4.159,-4.1095,-4.1095,-4.093,-4.0653,-4.0653,-4.0471,-4.0178,-4.0178,-4.0178,-4.0175,-3.9662,-3.9441,-3.9405,-3.8909,-3.8707,-3.8707,-3.8707,-3.8707,-3.8707,-3.8707,-3.8707,-3.8707,-3.8707,-3.8707,-3.8707,-3.8707,-3.8707,-3.8707,-3.8707,-3.9056,-3.9441,-3.9441,-3.9074,-3.8707,-3.8707,-3.8707,-3.8707,-3.8707,-3.8707,-3.8707,-3.8707,-3.8707,-3.8707,-3.8707,-3.8707,-3.8707,-3.8707,0.0,-3.8707,-3.8707,-3.923,-3.9649,-3.9821,-4.0437,-4.1079,-4.168,-4.1931,-4.2238,-4.269,-4.3422,-4.3835,-4.3835,-4.4643,-4.5267,-4.5594,-4.5287,-4.5267,-4.5594,-4.5594,-4.5594,-4.5594,-4.5594,-4.5594,-4.5594,-4.5594,-4.5594,-4.5594,-4.5594,-4.5594,-4.5594,-4.5594,-4.5594,-4.5594,-4.5594,-4.5594,-4.5594,-4.5594,-4.5594,-4.5594,-4.0096,-4.0096,-4.0096,-4.0096,-4.0096,-4.0096,-4.0096,-4.0096,-4.0096,-4.0096,-4.0096,-4.0096,-4.0096,-4.0096,-4.0096,-4.0096,-4.0096,-4.0096,-4.0096,-4.0096,-4.0521,-4.1468,-4.1916,-4.2016,-4.1808,-4.2196,-4.2243,-4.1864,-4.1864,-4.1735,-4.148,-4.148,-4.1334,-4.1095,-4.1095,-4.1095,-4.1058,-4.0506,-4.0286,-4.023,-3.968,-3.946,-3.946,-3.946,-3.9313,-3.9074,-3.9074,-3.8909,-3.8744,-3.9001,-3.9074,-3.9129,-3.9368,-3.946,-3.946,-3.946,-3.9845,-4.0286,-4.0286,-3.9882,-3.946,-3.946,-3.946,-3.946,-3.946,-3.946,-3.946,-3.946,-3.946,-3.946,-3.946,-3.946,-3.946,-3.946,-3.946,-3.946,-3.946,-3.9937,-4.0344,-4.0544,-4.1074,-4.1667,-4.2198,-4.2454,-4.2792,-4.3283,-4.4087,-4.4602,-4.4701,-4.5287,-4.5594,-4.5594,-4.5594,-4.5594,-4.5594,-4.5594,-4.5594,-4.5594,-4.5594,-4.5594,-4.5594,-4.5594,-4.5594,-4.5594,-4.5594,-4.5594,-4.5594,-4.5594,-4.5594,-4.5594,-4.5594,-4.5594,-4.5594,-4.5594,-4.5594,-4.5594,-4.0096,-4.0096,-4.0096,-4.0096,-4.0096,-4.0096,-4.0096,-4.0096,-4.0096,-4.0096,-4.0096,-4.0096,-4.0096,-4.0096,-4.0096,-4.0096,-4.0096,-4.0096,-4.0096,-4.0096,-4.0336,-4.0856,-4.0903,-4.1468,-4.2674,-4.2693,-4.2958,-4.3515,-4.3515,-4.3075,-4.2304,-4.2304,-4.1882,-4.1113,-4.1113,-4.1113,-4.1113,-4.1113,-4.1113,-4.1113,-4.1095,-4.1095,-4.1095,-4.1095,-4.0598,-3.9916,-3.9916,-3.9405,-3.8836,-3.9643,-3.9916,-4.0047,-4.0838,-4.1095,-4.1095,-4.1095,-4.1095,-4.1113,-4.1113,-4.1113,-4.1113,-4.1095,-4.1095,-4.1095,-4.1095,-4.1095,-4.1095,-4.1095,-4.1095,-4.1095,-4.1095,-4.1095,-4.1095,-4.1095,-4.1095,-4.1095,-4.1095,-4.1113,-4.1113,-4.1113,-4.1113,-4.1565,-4.2698,-4.2816,-4.3444,-4.4976,-4.5096,-4.5243,-4.5577,-4.5594,-4.5594,-4.5594,-4.5594,-4.5594,-4.5594,-4.5594,-4.5594,-4.5594,-4.5594,-4.5594,-4.5594,-4.5594,-4.5594,-4.5594,-4.5594,-4.5594,-4.5594,-4.5594,-4.5594,-4.5594,-4.5594,-4.5594,-4.5594,-4.5594,-4.5594,-4.5594,-4.0096,-4.0096,-4.0096,-4.0096,-4.0096,-4.0096,-4.0096,-4.0096,-4.0096,-4.0096,-4.0096,-4.0096,-4.0096,-4.0096,-4.0096,-4.0096,-4.0096,-4.0096,-4.0096,-4.0096,-4.0154,-4.0336,-4.1105,-4.1895,-4.2674,-4.3069,-4.3339,-4.3515,-4.3515,-4.3386,-4.313,-4.313,-4.3002,-4.2782,-4.2782,-4.2782,-4.2745,-4.2176,-4.1937,-4.1901,-4.1334,-4.1095,-4.1095,-4.1095,-4.0948,-4.0744,-4.0744,-4.0581,-4.0416,-4.0671,-4.0744,-4.0765,-4.1022,-4.1095,-4.1095,-4.1095,-4.1515,-4.1937,-4.1937,-4.2359,-4.2506,-4.137,-4.1095,-4.1095,-4.1095,-4.1095,-4.1095,-4.1095,-4.1095,-4.1095,-4.1095,-4.1095,-4.1095,-4.1095,-4.1095,-4.1095,-4.1095,-4.1589,-4.1937,-4.1937,-4.2641,-4.3175,-4.3291,-4.397,-4.4516,-4.4726,-4.5171,-4.5495,-4.5586,-4.5594,-4.5594,-4.5594,-4.5594,-4.5594,-4.5594,-4.5594,-4.5594,-4.5594,-4.5594,-4.5594,-4.5594,-4.5594,-4.5594,-4.5594,-4.5594,-4.5594,-4.5594,-4.5594,-4.5594,-4.5594,-4.5594,-4.5594,-4.5594,-4.5594,-4.5594,-4.5594,-4.0096,-4.0096,-4.0096,-4.0096,-4.0096,-4.0096,-4.0096,-4.0096,-4.0096,-4.0096,-4.0096,-4.0096,-4.0096,-4.0096,-4.0096,-4.0096,-4.0096,-4.0096,-4.0096,-4.0096,-4.0179,-4.0417,-4.1082,-4.1746,-4.2322,-4.2657,-4.3051,-4.3515,-4.3515,-4.3515,-4.3515,-4.3515,-4.3515,-4.3515,-4.3515,-4.3515,-4.3478,-4.2983,-4.2763,-4.2727,-4.2249,-4.2047,-4.2047,-4.2047,-4.1864,-4.1572,-4.1572,-4.137,-4.115,-4.1462,-4.1791,-4.2047,-4.2047,-4.2047,-4.2047,-4.2047,-4.2396,-4.2763,-4.2763,-4.313,-4.3276,-4.2286,-4.2047,-4.2047,-4.2047,-4.2047,-4.2047,-4.2047,-4.2047,-4.2047,-4.2047,-4.2047,-4.2047,-4.2047,-4.2047,-4.2047,-4.2047,-4.247,-4.2763,-4.2763,-4.3508,-4.3909,-4.3726,-4.4428,-4.4872,-4.4793,-4.5302,-4.5594,-4.5594,-4.5594,-4.5594,-4.5594,-4.5594,-4.5594,-4.5594,-4.5594,-4.5594,-4.5594,-4.5594,-4.5594,-4.5594,-4.5594,-4.5594,-4.5594,-4.5594,-4.5594,-4.5594,-4.5594,-4.5594,-4.5594,-4.5594,-4.5594,-4.5594,-4.5594,-4.5594,-4.5594,-4.0096,-4.0096,-4.0096,-4.0096,-4.0096,-4.0096,-4.0096,-4.0096,-4.0096,-4.0096,-4.0096,-4.0096,-4.0096,-4.0096,-4.0096,-4.0096,-4.0096,-4.0096,-4.0096,-4.0096,-4.0311,-4.0803,-4.0827,-4.111,-4.1725,-4.1832,-4.2404,-4.3427,-4.348,-4.3515,-4.3515,-4.3515,-4.3515,-4.3515,-4.3515,-4.3515,-4.3515,-4.3515,-4.3515,-4.3515,-4.3515,-4.3515,-4.3515,-4.3515,-4.3039,-4.2415,-4.2415,-4.1937,-4.1425,-4.2158,-4.2892,-4.3515,-4.3515,-4.3515,-4.3515,-4.3515,-4.3515,-4.3515,-4.3515,-4.3515,-4.3515,-4.3515,-4.3515,-4.3515,-4.3515,-4.3515,-4.3515,-4.3515,-4.3515,-4.3515,-4.3515,-4.3515,-4.3515,-4.3515,-4.3515,-4.3515,-4.3515,-4.3515,-4.3515,-4.3515,-4.3804,-4.4001,-4.3955,-4.435,-4.4745,-4.5107,-4.5429,-4.5594,-4.5594,-4.5594,-4.5594,-4.5594,-4.5594,-4.5594,-4.5594,-4.5594,-4.5594,-4.5594,-4.5594,-4.5594,-4.5594,-4.5594,-4.5594,-4.5594,-4.5594,-4.5594,-4.5594,-4.5594,-4.5594,-4.5594,-4.5594,-4.5594,-4.5594,-4.5594,-4.5594,-4.5594,-4.0096,-4.0096,-4.0096,-4.0096,-4.0096,-4.0096,-4.0096,-4.0096,-4.0096,-4.0096,-4.0096,-4.0096,-4.0096,-4.0096,-4.0096,-4.0096,-4.0096,-4.0096,-4.0096,-4.0096,-4.0146,-4.0262,-4.0262,-4.0546,-4.1087,-4.2021,-4.2635,-4.2883,-4.3286,-4.3515,-4.3515,-4.3515,-4.3515,-4.3515,-4.3515,-4.3515,-4.3515,-4.3515,-4.3515,-4.3515,-4.3515,-4.3515,-4.3515,-4.3515,-4.3404,-4.3239,-4.3239,-4.313,-4.3002,-4.3167,-4.3368,-4.3515,-4.3515,-4.3515,-4.3515,-4.3515,-4.3515,-4.3515,-4.3515,-4.3515,-4.3515,-4.3515,-4.3515,-4.3515,-4.3515,-4.3515,-4.3515,-4.3515,-4.3515,-4.3515,-4.3515,-4.3515,-4.3515,-4.3515,-4.3515,-4.3515,-4.3515,-4.3515,-4.3515,-4.3515,-4.3804,-4.3912,-4.3629,-4.4209,-4.4861,-4.5438,-4.5559,-4.5594,-4.5594,-4.5594,-4.5594,-4.5594,-4.5594,-4.5594,-4.5594,-4.5594,-4.5594,-4.5594,-4.5594,-4.5594,-4.5594,-4.5594,-4.5594,-4.5594,-4.5594,-4.5594,-4.5594,-4.5594,-4.5594,-4.5594,-4.5594,-4.5594,-4.5594,-4.5594,-4.5594,-4.5594,-4.0096,-4.0096,-4.0096,-4.0096,-4.0096,-4.0096,-4.0096,-4.0096,-4.0096,-4.0096,-4.0096,-4.0096,-4.0096,-4.0096,-4.0096,-4.0096,-4.0434,-4.0612,-4.0612,-4.0959,-4.1162,-4.1162,-4.1162,-4.1418,-4.2035,-4.2532,-4.2759,-4.2711,-4.2976,-4.325,-4.3515,-4.3515,-4.3515,-4.3515,-4.3515,-4.3515,-4.3515,-4.3515,-4.3515,-4.3515,-4.3515,-4.3515,-4.3515,-4.3515,-4.3515,-4.3515,-4.3515,-4.3515,-4.3515,-4.3515,-4.3515,-4.3515,-4.3515,-4.3515,-4.3515,-4.3515,-4.3515,-4.3515,-4.3515,-4.3515,-4.3515,-4.3515,-4.3515,-4.3515,-4.3515,-4.3515,-4.3515,-4.3515,-4.3515,-4.3515,-4.3515,-4.3515,-4.3515,-4.3515,-4.3515,-4.3515,-4.3515,-4.3515,-4.3515,-4.3515,-4.3804,-4.4058,-4.4252,-4.4618,-4.5044,-4.5568,-4.5594,-4.5594,-4.5594,-4.5594,-4.5594,-4.5594,-4.5594,-4.5594,-4.5594,-4.5594,-4.5594,-4.5594,-4.5594,-4.5594,-4.5594,-4.5594,-4.5594,-4.5594,-4.5594,-4.5594,-4.5594,-4.5594,-4.5594,-4.5594,-4.5594,-4.5594,-4.5594,-4.5594,-4.5594,-4.5594,-4.0485,-4.0485,-4.0485,-4.0485,-4.0485,-4.0485,-4.0485,-4.0485,-4.0485,-4.0485,-4.0485,-4.0485,-4.0485,-4.0485,-4.0485,-4.0485,-4.1035,-4.139,-4.139,-4.1948,-4.2286,-4.2286,-4.2286,-4.2559,-4.3136,-4.3016,-4.2956,-4.291,-4.2861,-4.305,-4.3515,-4.3515,-4.3515,-4.3515,-4.3515,-4.3515,-4.3515,-4.3515,-4.3515,-4.3515,-4.3515,-4.3515,-4.3515,-4.3515,-4.3515,-4.3515,-4.3515,-4.3515,-4.3515,-4.3515,-4.3515,-4.3515,-4.3515,-4.3515,-4.3515,-4.3515,-4.3515,-4.3515,-4.3515,-4.3515,-4.3515,-4.3515,-4.3515,-4.3515,-4.3515,-4.3515,-4.3515,-4.3515,-4.3515,-4.3515,-4.3515,-4.3515,-4.3515,-4.3515,-4.3515,-4.3515,-4.3515,-4.3515,-4.3515,-4.3515,-4.3758,-4.4175,-4.4842,-4.4966,-4.515,-4.5495,-4.5568,-4.5594,-4.5594,-4.5594,-4.5594,-4.5594,-4.5594,-4.5594,-4.5594,-4.5594,-4.5594,-4.5594,-4.5594,-4.5594,-4.5594,-4.5594,-4.5594,-4.5594,-4.5594,-4.5594,-4.5594,-4.5594,-4.5594,-4.5594,-4.5594,-4.5594,-4.5594,-4.5594,-4.5594,-4.5594,-4.1982,-4.1982,-4.1982,-4.1982,-4.1982,-4.1982,-4.1982,-4.1982,-4.1982,-4.1982,-4.1982,-4.1982,-4.1982,-4.1982,-4.1982,-4.1982,-4.2083,-4.2151,-4.2151,-4.2236,-4.2286,-4.2286,-4.2286,-4.2339,-4.2428,-4.2965,-4.3414,-4.3742,-4.3506,-4.3427,-4.3515,-4.3515,-4.3515,-4.3515,-4.3515,-4.3515,-4.3515,-4.3515,-4.3515,-4.3515,-4.3515,-4.3515,-4.3515,-4.3515,-4.3515,-4.3515,-4.3515,-4.3515,-4.3515,-4.3515,-4.3515,-4.3515,-4.3515,-4.3515,-4.3515,-4.3515,-4.3515,-4.3515,-4.3515,-4.3515,-4.3515,-4.3515,-4.3515,-4.3515,-4.3515,-4.3515,-4.3515,-4.3515,-4.3515,-4.3515,-4.3515,-4.3515,-4.3515,-4.3515,-4.3515,-4.3515,-4.3515,-4.3515,-4.3515,-4.3515,-4.3548,-4.3726,-4.4117,-4.4455,-4.4812,-4.514,-4.5429,-4.5594,-4.5594,-4.5594,-4.5594,-4.5594,-4.5594,-4.5594,-4.5594,-4.5594,-4.5594,-4.5594,-4.5594,-4.5594,-4.5594,-4.5594,-4.5594,-4.5594,-4.5594,-4.5594,-4.5594,-4.5594,-4.5594,-4.5594,-4.5594,-4.5594,-4.5594,-4.5594,-4.5594,-4.5594,-4.2286,-4.2286,-4.2286,-4.2286,-4.2286,-4.2286,-4.2286,-4.2286,-4.2286,-4.2286,-4.2286,-4.2286,-4.2286,-4.2286,-4.2286,-4.2286,-4.2675,-4.2912,-4.2912,-4.3335,-4.3572,-4.3572,-4.3572,-4.3729,-4.406,-4.3931,-4.4113,-4.4628,-4.4471,-4.4309,-4.4176,-4.4176,-4.392,-4.3515,-4.3515,-4.3515,-4.3515,-4.3515,-4.3515,-4.3515,-4.3515,-4.3515,-4.3515,-4.3515,-4.3515,-4.3515,-4.3515,-4.3515,-4.3515,-4.3515,-4.3515,-4.3515,-4.3515,-4.3515,-4.3515,-4.3515,-4.3515,-4.3515,-4.3515,-4.3515,-4.3515,-4.3515,-4.3515,-4.3608,-4.4066,-4.4176,-4.4048,-4.3589,-4.3515,-4.3515,-4.3515,-4.3515,-4.3515,-4.3515,-4.3515,-4.3515,-4.3515,-4.3515,-4.3515,-4.3515,-4.3515,-4.3629,-4.3971,-4.4161,-4.4495,-4.5063,-4.5232,-4.541,-4.5586,-4.5594,-4.5594,-4.5594,-4.5594,-4.5594,-4.5594,-4.5594,-4.5594,-4.5594,-4.5594,-4.5594,-4.5594,-4.5594,-4.5594,-4.5594,-4.5594,-4.5594,-4.5594,-4.5594,-4.5594,-4.5594,-4.5594,-4.5594,-4.5594,-4.5594,-4.5594,-4.5594]},{"header":{"parameterUnit":"m.s-1","parameterCategory":1,"la1":30.6,"la2":28.766,"lo1":-90.7593,"lo2":-88.6598,"dy":0.0162,"dx":0.0183,"nx":116,"ny":114,"refTime":"2023-03-22T06:00:00:Z","depth":0,"parameterNumber":3,"parameterNumberName":"V-component_of_WINDS"},"data":[0.0,0.0,0.0,0.0,0.0,0.0,0.0,0.0,0.0,0.0,0.0,0.0,0.0,0.0,0.0,0.0,0.0,0.0,0.0,0.0,0.0,0.0,0.0,0.0,0.0,0.0,0.0,0.0,0.0,0.0,0.0,0.0,0.0,0.0,0.0,0.0,0.0,0.0,0.0,0.0,0.0,0.0,0.0,0.0,0.0,0.0,0.0,0.0,0.0,0.0,0.0,0.0,0.0,0.0,0.0,0.0,0.0,0.0,0.0,0.0,0.0,0.0,0.0,0.0,0.0,0.0,0.0,0.0,0.0,0.0,0.0,0.0,0.0,0.0,0.0,0.0,0.0,0.0,0.0,0.0,0.0,0.0,0.0,0.0,0.0,0.0,0.0,0.0,0.0,0.0,0.0,0.0,0.0,0.0,0.0,0.0,0.0,0.0,0.0,0.0,0.0,0.0,0.0,0.0,0.0,0.0,0.0,0.0,0.0,0.0,0.0,0.0,0.0,0.0,0.0,0.0,0.0,0.0,0.0,0.0,0.0,0.0,0.0,0.0,0.0,0.0,0.0,0.0,0.0,0.0,0.0,0.0,0.0,0.0,0.0,0.0,0.0,0.0,0.0,0.0,0.0,0.0,0.0,0.0,0.0,0.0,0.0,0.0,0.0,0.0,0.0,0.0,0.0,0.0,0.0,0.0,0.0,0.0,0.0,0.0,0.0,0.0,0.0,0.0,0.0,0.0,0.0,0.0,0.0,0.0,0.0,0.0,0.0,0.0,0.0,0.0,0.0,0.0,0.0,0.0,0.0,0.0,0.0,0.0,0.0,0.0,0.0,0.0,0.0,0.0,0.0,0.0,0.0,0.0,0.0,0.0,0.0,0.0,0.0,0.0,0.0,0.0,0.0,0.0,0.0,0.0,0.0,0.0,0.0,0.0,0.0,0.0,0.0,0.0,0.0,0.0,0.0,0.0,0.0,0.0,0.0,0.0,0.0,0.0,0.0,0.0,0.0,0.0,0.0,0.0,0.0,0.0,0.0,0.0,0.0,0.0,0.0,0.0,0.0,0.0,0.0,0.0,0.0,0.0,0.0,0.0,0.0,0.0,0.0,0.0,0.0,0.0,0.0,0.0,0.0,0.0,0.0,0.0,0.0,0.0,0.0,0.0,0.0,0.0,0.0,0.0,0.0,0.0,0.0,0.0,0.0,0.0,0.0,0.0,0.0,0.0,0.0,0.0,0.0,0.0,0.0,0.0,0.0,0.0,0.0,0.0,0.0,0.0,0.0,0.0,0.0,0.0,0.0,0.0,0.0,0.0,0.0,0.0,0.0,0.0,0.0,0.0,0.0,0.0,0.0,0.0,0.0,0.0,0.0,0.0,0.0,0.0,0.0,0.0,0.0,0.0,0.0,0.0,0.0,0.0,0.0,0.0,0.0,0.0,0.0,0.0,0.0,0.0,0.0,0.0,0.0,0.0,0.0,0.0,0.0,0.0,0.0,0.0,0.0,0.0,0.0,0.0,0.0,0.0,0.0,0.0,0.0,0.0,0.0,0.0,0.0,0.0,0.0,0.0,0.0,0.0,0.0,0.0,0.0,0.0,0.0,0.0,0.0,0.0,0.0,0.0,0.0,0.0,0.0,0.0,0.0,0.0,0.0,0.0,0.0,0.0,0.0,0.0,0.0,0.0,0.0,0.0,0.0,0.0,0.0,0.0,0.0,0.0,0.0,0.0,0.0,0.0,0.0,0.0,0.0,0.0,0.0,0.0,0.0,0.0,0.0,0.0,0.0,0.0,0.0,0.0,0.0,0.0,0.0,0.0,0.0,0.0,0.0,0.0,0.0,0.0,0.0,0.0,0.0,0.0,0.0,0.0,0.0,0.0,0.0,0.0,0.0,0.0,0.0,0.0,0.0,0.0,0.0,0.0,0.0,0.0,0.0,0.0,0.0,0.0,0.0,0.0,0.0,0.0,0.0,0.0,0.0,0.0,0.0,0.0,0.0,0.0,0.0,0.0,0.0,0.0,0.0,0.0,0.0,0.0,0.0,0.0,0.0,0.0,0.0,0.0,0.0,0.0,0.0,0.0,0.0,0.0,0.0,0.0,0.0,0.0,0.0,0.0,0.0,0.0,0.0,0.0,0.0,0.0,0.0,0.0,0.0,0.0,0.0,0.0,0.0,0.0,0.0,0.0,0.0,0.0,0.0,0.0,0.0,0.0,0.0,0.0,0.0,0.0,0.0,0.0,0.0,0.0,0.0,0.0,0.0,0.0,0.0,0.0,0.0,0.0,0.0,0.0,0.0,0.0,0.0,0.0,0.0,0.0,0.0,0.0,0.0,0.0,0.0,0.0,0.0,0.0,0.0,0.0,0.0,0.0,0.0,0.0,0.0,0.0,0.0,0.0,0.0,0.0,0.0,0.0,0.0,0.0,0.0,0.0,0.0,0.0,0.0,0.0,0.0,0.0,0.0,0.0,0.0,0.0,0.0,0.0,0.0,0.0,0.0,0.0,0.0,0.0,0.0,0.0,0.0,0.0,0.0,0.0,0.0,0.0,0.0,0.0,0.0,0.0,0.0,0.0,0.0,0.0,0.0,0.0,0.0,0.0,0.0,0.0,0.0,0.0,0.0,0.0,0.0,0.0,0.0,0.0,0.0,0.0,0.0,0.0,0.0,0.0,0.0,0.0,0.0,0.0,0.0,0.0,0.0,0.0,0.0,0.0,0.0,0.0,0.0,0.0,0.0,0.0,0.0,0.0,0.0,0.0,0.0,0.0,0.0,0.0,0.0,0.0,0.0,0.0,0.0,0.0,0.0,0.0,0.0,0.0,0.0,0.0,0.0,0.0,0.0,0.0,0.0,0.0,0.0,0.0,0.0,0.0,0.0,0.0,0.0,0.0,0.0,0.0,0.0,0.0,0.0,0.0,0.0,0.0,0.0,0.0,0.0,0.0,0.0,0.0,0.0,0.0,0.0,0.0,0.0,0.0,0.0,0.0,0.0,0.0,0.0,0.0,0.0,0.0,0.0,0.0,0.0,0.0,0.0,0.0,0.0,0.0,0.0,0.0,0.0,0.0,0.0,0.0,0.0,0.0,0.0,0.0,0.0,0.0,0.0,0.0,0.0,0.0,0.0,0.0,0.0,0.0,0.0,0.0,0.0,0.0,0.0,0.0,0.0,0.0,0.0,0.0,0.0,0.0,0.0,0.0,0.0,0.0,0.0,0.0,0.0,0.0,0.0,0.0,0.0,0.0,0.0,0.0,0.0,0.0,0.0,0.0,0.0,0.0,0.0,0.0,0.0,0.0,0.0,0.0,0.0,0.0,0.0,0.0,0.0,0.0,0.0,0.0,0.0,0.0,0.0,0.0,0.0,0.0,0.0,0.0,0.0,0.0,0.0,0.0,0.0,0.0,0.0,0.0,0.0,0.0,0.0,0.0,0.0,0.0,0.0,0.0,0.0,0.0,0.0,0.0,0.0,0.0,0.0,0.0,0.0,0.0,0.0,0.0,0.0,0.0,0.0,0.0,0.0,0.0,0.0,0.0,0.0,0.0,0.0,0.0,0.0,0.0,0.0,0.0,0.0,0.0,0.0,0.0,0.0,0.0,0.0,0.0,0.0,0.0,0.0,0.0,0.0,0.0,0.0,0.0,0.0,0.0,0.0,0.0,0.0,0.0,0.0,0.0,0.0,0.0,0.0,0.0,0.0,0.0,0.0,0.0,0.0,0.0,0.0,0.0,0.0,0.0,0.0,0.0,0.0,0.0,0.0,0.0,0.0,0.0,0.0,0.0,0.0,0.0,0.0,0.0,0.0,0.0,0.0,0.0,0.0,0.0,0.0,0.0,0.0,0.0,0.0,0.0,0.0,0.0,0.0,0.0,0.0,0.0,0.0,0.0,0.0,0.0,0.0,0.0,0.0,0.0,0.0,0.0,0.0,0.0,0.0,0.0,0.0,0.0,0.0,0.0,0.0,0.0,0.0,0.0,0.0,0.0,0.0,0.0,0.0,0.0,0.0,0.0,0.0,0.0,0.0,0.0,0.0,0.0,0.0,0.0,0.0,0.0,0.0,0.0,0.0,0.0,0.0,0.0,0.0,0.0,0.0,0.0,0.0,0.0,0.0,0.0,0.0,0.0,0.0,0.0,0.0,0.0,0.0,0.0,0.0,0.0,0.0,0.0,0.0,0.0,0.0,0.0,0.0,0.0,0.0,0.0,0.0,0.0,0.0,0.0,0.0,0.0,0.0,0.0,0.0,0.0,0.0,0.0,0.0,0.0,0.0,0.0,0.0,0.0,0.0,0.0,0.0,0.0,0.0,0.0,0.0,0.0,0.0,0.0,0.0,0.0,0.0,0.0,0.0,0.0,0.0,0.0,0.0,0.0,0.0,0.0,0.0,0.0,0.0,0.0,0.0,0.0,0.0,0.0,0.0,0.0,0.0,0.0,0.0,0.0,0.0,0.0,0.0,0.0,0.0,0.0,0.0,0.0,0.0,0.0,0.0,0.0,0.0,0.0,0.0,0.0,0.0,0.0,0.0,0.0,0.0,0.0,0.0,0.0,0.0,0.0,0.0,0.0,0.0,0.0,0.0,0.0,0.0,0.0,0.0,0.0,0.0,0.0,0.0,0.0,0.0,0.0,0.0,0.0,0.0,0.0,0.0,0.0,0.0,0.0,0.0,0.0,0.0,0.0,0.0,0.0,0.0,0.0,0.0,0.0,0.0,0.0,0.0,0.0,0.0,0.0,0.0,0.0,0.0,0.0,0.0,0.0,0.0,0.0,0.0,0.0,0.0,0.0,0.0,0.0,0.0,0.0,0.0,0.0,0.0,0.0,0.0,0.0,0.0,0.0,0.0,0.0,0.0,0.0,0.0,0.0,0.0,0.0,0.0,0.0,0.0,0.0,0.0,0.0,0.0,0.0,0.0,0.0,0.0,0.0,0.0,0.0,0.0,0.0,0.0,0.0,0.0,0.0,0.0,0.0,0.0,0.0,0.0,0.0,0.0,0.0,0.0,0.0,0.0,0.0,0.0,0.0,0.0,0.0,0.0,0.0,0.0,0.0,0.0,0.0,0.0,0.0,0.0,0.0,0.0,0.0,0.0,0.0,0.0,0.0,0.0,0.0,0.0,0.0,0.0,0.0,0.0,0.0,0.0,0.0,0.0,0.0,0.0,0.0,0.0,0.0,0.0,0.0,0.0,0.0,0.0,0.0,0.0,0.0,0.0,0.0,0.0,0.0,0.0,0.0,0.0,0.0,0.0,0.0,0.0,0.0,0.0,0.0,0.0,0.0,0.0,0.0,0.0,0.0,0.0,0.0,0.0,0.0,0.0,0.0,0.0,0.0,0.0,0.0,0.0,0.0,0.0,0.0,0.0,0.0,0.0,0.0,0.0,0.0,0.0,0.0,0.0,0.0,0.0,0.0,0.0,0.0,0.0,0.0,0.0,0.0,0.0,0.0,0.0,0.0,0.0,0.0,0.0,0.0,0.0,0.0,0.0,0.0,0.0,0.0,0.0,0.0,0.0,0.0,0.0,0.0,0.0,0.0,0.0,0.0,0.0,0.0,0.0,0.0,0.0,0.0,0.0,0.0,0.0,0.0,0.0,0.0,0.0,0.0,0.0,0.0,0.0,0.0,0.0,0.0,0.0,0.0,0.0,0.0,0.0,0.0,0.0,0.0,0.0,0.0,0.0,0.0,0.0,0.0,0.0,0.0,0.0,0.0,0.0,0.0,0.0,0.0,0.0,0.0,0.0,0.0,0.0,0.0,0.0,0.0,0.0,0.0,0.0,0.0,0.0,0.0,0.0,0.0,0.0,0.0,0.0,0.0,0.0,0.0,0.0,0.0,0.0,0.0,0.0,0.0,0.0,0.0,0.0,0.0,0.0,0.0,0.0,0.0,0.0,0.0,0.0,0.0,0.0,0.0,0.0,0.0,0.0,0.0,0.0,0.0,0.0,0.0,0.0,0.0,0.0,0.0,0.0,0.0,0.0,0.0,0.0,0.0,0.0,0.0,0.0,0.0,0.0,0.0,0.0,0.0,0.0,0.0,0.0,0.0,0.0,0.0,0.0,0.0,0.0,0.0,0.0,0.0,0.0,0.0,-0.7015,0.0,0.0,0.0,0.0,0.0,0.0,0.0,0.0,0.0,0.0,0.0,0.0,0.0,0.0,0.0,0.0,0.0,0.0,0.0,0.0,0.0,0.0,0.0,0.0,0.0,0.0,0.0,0.0,0.0,0.0,0.0,0.0,0.0,0.0,0.0,0.0,0.0,0.0,0.0,2.0798,2.1475,2.2461,2.1589,2.0716,1.9858,0.0,0.0,0.0,0.0,0.0,0.0,0.0,0.0,0.0,0.0,0.0,0.0,0.0,0.0,0.0,0.0,0.0,0.0,0.0,0.0,0.0,0.0,0.0,0.0,0.0,0.0,0.0,0.0,0.0,0.0,0.0,0.0,0.0,0.0,0.0,0.0,0.0,0.0,0.0,0.0,0.0,0.0,0.0,0.0,0.0,0.0,0.0,0.0,0.0,0.0,0.0,0.0,0.0,0.0,0.0,0.0,0.0,0.0,0.0,0.0,0.0,0.0,0.0,0.0,0.0,0.0,0.0,0.0,0.0,0.0,0.0,-0.6804,0.0,0.0,0.0,0.0,0.0,0.0,0.0,0.0,0.0,0.0,0.0,0.0,0.0,0.0,0.0,0.0,0.0,0.0,0.0,0.0,0.0,0.0,0.0,0.0,0.0,0.0,0.0,0.0,0.0,0.0,0.0,0.0,0.0,0.0,0.0,0.0,0.0,0.0,2.1428,2.227,2.3474,2.3214,2.2532,2.149,2.0796,0.0,0.0,0.0,0.0,0.0,0.0,0.0,0.0,0.0,0.0,0.0,0.0,0.0,0.0,0.0,0.0,0.0,0.0,0.0,0.0,0.0,0.0,0.0,0.0,0.0,0.0,0.0,0.0,0.0,0.0,0.0,0.0,0.0,0.0,0.0,0.0,0.0,0.0,0.0,0.0,0.0,0.0,0.0,0.0,0.0,0.0,0.0,0.0,0.0,0.0,0.0,0.0,0.0,0.0,0.0,0.0,0.0,0.0,0.0,0.0,0.0,0.0,0.0,-0.8685,-0.8982,-0.8982,-0.8857,-0.8804,-0.8725,-0.7503,-0.7316,-0.7803,0.0,0.0,0.0,0.0,0.0,0.0,0.0,0.0,0.0,0.0,0.0,0.0,0.0,0.0,0.0,0.0,0.0,0.0,0.0,0.0,0.0,0.0,0.0,2.0141,1.9744,1.9708,1.9708,0.0,0.0,0.0,0.0,0.0,0.0,0.0,1.9796,2.0703,2.1667,2.3146,2.4131,2.4584,2.4081,2.3769,2.3555,2.2246,2.1654,2.1568,0.0,0.0,0.0,0.0,0.0,0.0,0.0,0.0,0.0,0.0,0.0,0.0,0.0,0.0,0.0,0.0,0.0,0.0,0.0,0.0,0.0,0.0,0.0,0.0,0.0,0.0,0.0,0.0,0.0,0.0,0.0,0.0,0.0,0.0,0.0,0.0,0.0,0.0,0.0,0.0,0.0,-0.7477,-0.767,0.0,0.0,0.0,0.0,0.0,0.0,0.0,0.0,0.0,0.0,0.0,0.0,0.0,-0.7969,-0.8507,-0.9197,-0.9529,-0.9529,-0.9607,-0.9666,-0.964,-0.9061,-0.8804,-0.8778,-0.8593,0.0,-0.8646,-0.8454,0.0,0.0,0.0,0.0,0.0,0.0,0.0,0.0,0.0,0.0,0.0,0.0,0.0,0.0,0.0,0.0,0.0,0.0,0.0,0.0,0.0,2.0701,2.0895,2.0734,2.0863,2.0767,2.0338,0.0,0.0,0.0,0.0,0.0,1.8893,1.9999,2.1256,2.2641,2.3822,2.4543,2.4797,2.4437,2.4282,2.4255,2.3527,2.2868,2.2243,2.1563,0.0,0.0,0.0,0.0,0.0,0.0,0.0,0.0,0.0,0.0,0.0,0.0,0.0,0.0,0.0,0.0,0.0,0.0,0.0,0.0,0.0,0.0,0.0,0.0,0.0,0.0,0.0,0.0,0.0,0.0,0.0,0.0,0.0,0.0,0.0,0.0,0.0,0.0,0.0,-0.6416,-0.7074,-0.7074,-0.8103,-0.848,0.0,0.0,0.0,0.0,0.0,0.0,0.0,0.0,0.0,-0.8295,-0.8315,-0.848,-0.8804,-0.908,-0.9237,-0.9237,-0.9237,-0.9237,-0.9237,-0.8929,-0.8804,-0.8818,-0.8951,-0.9024,-0.8984,-0.8411,-0.8182,-0.8103,0.0,0.0,0.0,0.0,-0.7831,-0.8492,0.0,0.0,0.0,0.0,0.0,0.0,0.0,0.0,0.0,0.0,0.0,0.0,2.0486,2.128,2.1795,2.1626,2.1773,2.1599,2.0846,0.0,0.0,0.0,0.0,1.8598,1.8864,2.0494,2.2036,2.3474,2.4155,2.4586,2.4723,2.452,2.4409,2.44,2.4172,2.3667,2.2952,2.2027,2.1185,2.0352,0.0,0.0,0.0,0.0,0.0,0.0,0.0,0.0,0.0,0.0,0.0,0.0,0.0,0.0,0.0,0.0,0.0,0.0,0.0,0.0,0.0,0.0,0.0,0.0,0.0,0.0,0.0,0.0,0.0,0.0,0.0,0.0,0.0,0.0,0.0,0.0,0.0,-0.6308,-0.6885,-0.6885,-0.8017,-0.8374,0.0,0.0,0.0,0.0,0.0,0.0,-0.7937,-0.799,-0.8235,-0.8778,-0.8804,-0.8804,-0.8804,-0.8878,-0.8891,-0.8891,-0.8998,-0.9031,-0.9031,-0.9031,-0.9031,-0.9045,-0.9231,-0.9324,-0.9276,-0.853,-0.8224,-0.8142,-0.7395,-0.7229,-0.7417,-0.7451,-0.7949,-0.861,0.0,0.0,0.0,0.0,0.0,0.0,0.0,0.0,0.0,0.0,0.0,2.1368,2.083,2.199,2.2581,2.1935,2.188,2.1599,2.0846,1.9819,1.8914,1.8171,1.7646,1.784,1.8773,2.1428,2.3169,2.396,2.4327,2.4512,2.4512,2.4312,2.4209,2.4199,2.3858,2.3858,2.4066,2.3385,2.2568,2.1572,1.9989,0.0,0.0,0.0,0.0,0.0,0.0,0.0,0.0,0.0,0.0,0.0,0.0,0.0,0.0,0.0,0.0,0.0,0.0,0.0,0.0,0.0,0.0,0.0,0.0,0.0,0.0,0.0,0.0,0.0,0.0,0.0,0.0,0.0,0.0,0.0,0.0,0.0,0.0,-0.7643,-0.8321,0.0,0.0,0.0,0.0,-0.8699,-0.8699,-0.8699,-0.8752,-0.8752,-0.8752,-0.8804,-0.8804,-0.8804,-0.8804,-0.9051,-0.9191,-0.9191,-0.9506,-0.9668,-0.9668,-0.9668,-0.9668,-0.9668,-0.9682,-0.9659,-0.9659,-0.9617,-0.961,-0.9517,-0.8779,-0.8924,-0.9466,-0.8762,-0.8978,-0.963,0.0,0.0,0.0,0.0,0.0,0.0,0.0,0.0,0.0,2.0764,2.1315,2.1709,2.1641,2.2822,2.3462,2.3094,2.3251,2.3076,2.2332,2.1108,1.993,1.8874,1.8508,1.9104,2.0749,2.2259,2.34,2.4126,2.4247,2.4312,2.4312,2.4237,2.4084,2.3876,2.3746,2.3649,2.3544,2.3311,2.2574,2.1529,2.0607,1.8994,0.0,0.0,0.0,0.0,0.0,0.0,0.0,0.0,0.0,0.0,0.0,0.0,0.0,0.0,0.0,0.0,0.0,0.0,0.0,0.0,0.0,0.0,0.0,0.0,0.0,0.0,0.0,0.0,0.0,0.0,0.0,0.0,0.0,0.0,0.0,0.0,0.0,-0.7047,-0.8076,0.0,-0.8129,-0.8507,-0.8884,-0.9044,-0.9058,-0.9144,-0.9359,-0.9372,-0.9372,-0.9372,-0.9372,-0.9372,-0.9372,-0.9472,-0.9526,-0.9526,-0.9633,-0.9715,-0.9715,-0.9715,-0.9715,-0.9722,-0.988,-0.996,-0.9973,-1.0198,-1.0057,-0.9686,-0.9418,-0.9476,-0.9677,-0.959,-0.9744,-0.9993,0.0,0.0,0.0,0.0,0.0,0.0,0.0,0.0,0.0,2.0653,2.1249,2.1851,2.2378,2.3458,2.4099,2.3878,2.3976,2.357,2.2494,2.1325,2.0062,1.8623,1.8987,2.0067,2.1829,2.2809,2.3534,2.4026,2.4026,2.3976,2.3847,2.3847,2.3735,2.3533,2.3414,2.3147,2.2813,2.2699,2.23,2.1615,2.0703,1.9164,1.7283,0.0,0.0,0.0,0.0,0.0,0.0,0.0,0.0,0.0,0.0,0.0,0.0,0.0,0.0,0.0,0.0,0.0,0.0,0.0,0.0,0.0,0.0,0.0,0.0,0.0,0.0,0.0,0.0,0.0,0.0,0.0,0.0,0.0,0.0,0.0,-0.7816,-0.7339,-0.8346,-0.8907,-0.8428,-0.8825,-0.9185,-0.9344,-0.9357,-0.9479,-0.9702,-0.9715,-0.9715,-0.9715,-0.9715,-0.9715,-0.9715,-0.978,-0.9826,-0.9833,-0.9963,-1.001,-1.001,-1.001,-1.001,-1.0017,-1.018,-1.0267,-1.0281,-1.0512,-1.0358,-1.001,-1.001,-1.001,-1.003,-1.0194,-1.0267,-1.0294,0.0,0.0,0.0,0.0,0.0,0.0,0.0,0.0,1.9705,2.0017,2.0855,2.1846,2.2982,2.3939,2.4392,2.419,2.3876,2.297,2.1236,2.0369,1.9162,1.745,1.9015,2.0543,2.1783,2.3047,2.3682,2.3682,2.3682,2.3522,2.32,2.32,2.3189,2.3153,2.2835,2.2438,2.2054,2.17,2.1728,2.1879,2.0239,1.8869,1.7679,0.0,0.0,0.0,0.0,0.0,0.0,0.0,0.0,0.0,0.0,0.0,0.0,0.0,0.0,0.0,0.0,0.0,0.0,0.0,0.0,0.0,0.0,0.0,0.0,0.0,0.0,0.0,0.0,0.0,0.0,0.0,0.0,0.0,-0.7512,-0.8163,-0.8639,-0.8639,-0.9266,-0.9715,-0.9715,-0.9715,-0.9715,-0.9699,-0.9699,-0.9729,-0.9742,-0.9742,-0.9742,-0.9742,-0.9742,-0.9742,-0.9742,-0.9993,-1.0134,-1.0134,-1.0452,-1.0593,-1.0593,-1.0593,-1.0593,-1.0593,-1.0593,-1.0593,-1.0593,-1.0593,-1.0593,-1.0593,-1.0593,-1.0593,-1.0593,-1.0593,-1.0593,-1.0593,0.0,0.0,0.0,0.0,0.0,0.0,0.0,2.0333,2.0337,2.1004,2.1614,2.2287,2.3082,2.3751,2.3957,2.3515,2.3392,2.2844,2.1683,2.0901,2.0033,1.9012,2.0234,2.1254,2.2009,2.2877,2.3335,2.3335,2.3335,2.33,2.32,2.32,2.29,2.2394,2.2317,2.1912,2.1258,2.0486,2.0203,2.0255,1.9786,1.8735,1.7363,0.0,0.0,0.0,0.0,0.0,0.0,0.0,0.0,0.0,0.0,0.0,0.0,0.0,0.0,0.0,0.0,0.0,0.0,0.0,0.0,0.0,0.0,0.0,0.0,0.0,0.0,0.0,0.0,0.0,0.0,0.0,0.0,-0.7913,-0.8244,-0.8938,-0.9382,-0.9382,-0.9563,-0.9715,-0.9715,-0.9715,-0.9773,-0.998,-1.0,-1.0094,-1.0338,-1.0352,-1.0352,-1.0352,-1.0352,-1.0352,-1.0352,-1.0432,-1.0472,-1.0472,-1.0553,-1.0593,-1.0593,-1.0593,-1.0593,-1.0593,-1.0593,-1.0593,-1.0593,-1.0593,-1.0593,-1.0593,-1.0593,-1.0593,-1.0593,-1.0593,-1.0593,-1.0593,0.0,0.0,0.0,0.0,0.0,0.0,0.0,1.9555,1.974,2.0703,2.1261,2.1983,2.3082,2.3483,2.3458,2.2992,2.2625,2.1912,2.0789,1.9992,1.9723,2.0087,2.0861,2.163,2.233,2.2917,2.3129,2.2996,2.2996,2.294,2.2824,2.263,2.2187,2.1554,2.1374,2.0863,2.0032,1.9504,1.9012,1.8631,1.8631,1.8104,1.7216,1.6625,1.5915,1.505,1.3713,1.2677,1.1771,1.061,0.0,0.0,0.0,0.0,0.0,0.0,0.0,0.0,0.0,0.0,0.0,0.0,0.0,0.0,0.0,0.0,0.0,0.0,0.0,0.0,0.0,0.0,0.0,0.0,-0.7697,-0.7807,-0.8765,-0.9587,-1.0084,-1.0084,-1.0084,-1.0084,-1.0084,-1.0084,-1.0151,-1.0294,-1.0301,-1.0381,-1.0586,-1.0593,-1.0593,-1.0593,-1.0593,-1.0593,-1.0593,-1.0593,-1.0593,-1.0593,-1.0593,-1.0593,-1.0593,-1.0593,-1.0593,0.0,-1.0593,-1.0593,-1.0593,-1.0593,-1.0593,0.0,0.0,0.0,0.0,0.0,-1.0593,-1.0593,0.0,0.0,0.0,0.0,0.0,0.0,0.0,1.8171,1.8536,1.974,2.0334,2.1226,2.2828,2.3015,2.2858,2.2457,2.1657,2.0607,1.9235,1.8587,1.8983,2.0655,2.1171,2.1792,2.2647,2.288,2.2868,2.2578,2.2521,2.2354,2.2046,2.1627,2.1132,2.0573,2.0192,1.9549,1.8717,1.866,1.8129,1.7291,1.7167,1.7113,1.705,1.6519,1.5574,1.4514,1.3899,1.2483,1.0889,1.0737,0.0,0.0,0.0,0.0,0.0,0.0,0.0,0.0,0.0,0.0,0.0,0.0,0.0,0.0,0.0,0.0,0.0,0.0,0.0,0.0,0.0,0.0,0.0,0.0,-0.7209,-0.7274,-0.8909,-0.9817,-1.0301,-1.0301,-1.0396,-1.0466,-1.0466,-1.053,-1.0593,-1.0593,-1.0593,-1.0593,-1.0593,0.0,0.0,0.0,0.0,-1.0593,-1.0593,-1.0593,-1.0593,-1.0593,-1.0593,-1.0593,-1.0593,-1.0593,-1.0593,-1.0593,-1.0593,-1.0593,-1.0593,-1.0593,-1.0593,-1.0593,-1.0593,-1.0593,-1.0593,-1.0593,-1.0593,-1.0593,0.0,0.0,0.0,0.0,0.0,0.0,0.0,1.8622,1.8551,1.9817,2.007,2.0559,2.1699,2.1833,2.1689,2.1334,2.0767,1.9974,1.8943,1.9447,1.9936,2.0291,2.1471,2.2186,2.2374,2.2065,2.1874,2.1818,2.1488,2.1085,2.0604,2.0522,2.002,1.9174,1.9097,1.8754,1.8216,1.776,1.7483,1.7229,1.6296,1.5928,1.5906,1.5796,1.4982,1.381,1.3205,1.2366,1.1373,1.033,0.9325,0.8403,0.7871,0.0,0.0,0.0,0.0,0.0,0.0,0.0,0.0,0.0,0.0,0.0,0.0,0.0,0.0,0.0,0.0,0.0,0.0,0.0,0.0,-0.6617,-0.6817,-0.7079,-0.8091,-0.8382,-0.8511,-0.8511,-0.9134,-0.9562,-0.9562,-1.0174,-1.0593,-1.0593,-1.0593,-1.0593,-1.0593,-1.0593,-1.0593,-1.0593,-1.0593,-1.0593,-1.0593,-1.0593,-1.0593,-1.0593,0.0,0.0,-1.0593,-1.0593,-1.0593,-1.0593,-1.0593,-1.0593,-1.0593,-1.0593,-1.0593,-1.0593,-1.0593,-1.0593,-1.0593,-1.0593,-1.0593,-1.0593,0.0,0.0,0.0,0.0,0.0,0.0,0.0,1.78,1.7699,1.8848,1.8998,1.9257,1.9938,1.999,1.972,1.9015,1.8811,1.8498,1.7985,1.9177,1.9982,2.0189,2.1117,2.1522,2.1258,2.129,2.1165,2.0911,2.0701,2.0455,2.0189,1.9725,1.9115,1.8398,1.8154,1.778,1.7271,1.668,1.6446,1.6339,1.5139,1.4482,1.4194,1.4194,1.3799,1.3114,1.2156,1.134,1.0637,1.0012,0.9347,0.8639,0.8,0.7323,0.6369,0.0,0.0,0.0,0.0,0.0,0.0,0.0,0.0,0.0,0.0,0.0,0.0,0.0,0.0,-0.2978,0.0,0.0,-0.461,-0.642,-0.633,-0.6367,-0.7242,-0.6985,-0.7022,-0.7897,-0.878,-0.9306,-0.9306,-1.0079,-1.0593,-1.0593,-1.0593,-1.0593,-1.0593,-1.0593,-1.0593,-1.0593,-1.0593,-1.0593,-1.0593,-1.0593,-1.0593,-1.0593,-1.0593,-1.0593,-1.0593,-1.0593,-1.0593,-1.0593,-1.0593,-1.0593,-1.0593,-1.0593,-1.0593,-1.0593,-1.0593,-1.0593,-1.0593,-1.0593,-1.0593,-1.0593,0.0,0.0,0.0,0.0,0.0,0.0,0.0,0.0,1.6651,1.7572,1.7598,1.7657,1.8035,1.8078,1.7675,1.6705,1.6971,1.7119,1.6958,1.8527,1.9594,1.9917,2.0422,2.0504,2.0039,2.0387,2.0353,1.9934,1.983,1.9743,1.9622,1.8857,1.8166,1.7518,1.7149,1.6663,1.6129,1.5644,1.5432,1.5309,1.4032,1.3233,1.2749,1.2446,1.227,1.2083,1.0981,1.0205,0.9649,0.9485,0.9111,0.8599,0.7959,0.7369,0.6476,0.4171,0.3119,0.0,0.0,0.0,0.0,0.0,0.0,0.0,0.0,0.0,-0.1842,-0.2778,-0.3111,-0.3447,-0.4148,-0.4284,-0.4746,-0.6199,-0.5848,-0.5653,-0.6367,-0.5976,-0.6112,-0.7344,-0.842,-0.9043,-0.9043,-0.9849,-1.0333,-1.0333,-1.0333,-1.0428,-1.0593,-1.0593,-1.0593,-1.0593,-1.0593,-1.0593,-1.0593,-1.0593,-1.0593,-1.0593,-1.0593,-1.0593,-1.0593,-1.0593,-1.0593,-1.0593,-1.0593,-1.0626,-1.0673,-1.0673,-1.0713,-1.076,-1.076,-1.076,-1.0754,-1.07,-1.0713,-1.076,0.0,0.0,0.0,0.0,0.0,0.0,0.0,0.0,0.0,1.6494,1.6114,1.5979,1.6489,1.6552,1.6313,1.5709,1.6599,1.6993,1.6515,1.7995,1.8923,1.8946,1.9361,1.9544,1.9491,1.9192,1.902,1.8964,1.8536,1.8084,1.7619,1.7511,1.6899,1.5872,1.5818,1.5454,1.4915,1.4835,1.4789,1.4698,1.3409,1.286,1.2643,1.1142,1.0404,1.0108,0.9961,0.9638,0.9158,0.838,0.8256,0.8311,0.746,0.7146,0.6602,0.4197,0.0,0.2889,0.0604,0.0,0.0,0.0,0.0,-0.0235,0.0,0.0,-0.2778,-0.368,-0.4519,-0.5123,-0.5226,-0.5259,-0.5326,-0.5524,-0.5458,-0.5428,-0.5524,-0.6141,-0.633,-0.5752,-0.7149,-0.8156,-0.8156,-0.8941,-0.9434,-0.9434,-0.9434,-0.9786,-1.0561,-1.0593,-1.0593,-1.0593,-1.0593,-1.0593,-1.0593,-1.0593,-1.0593,-1.0593,-1.0593,-1.0593,-1.0593,-1.0593,-1.0593,-1.0593,-1.0593,-1.074,-1.0949,-1.0949,-1.1096,-1.1295,-1.1295,-1.1295,-1.1296,-1.1042,-1.1109,-1.1295,0.0,0.0,0.0,0.0,0.0,0.0,0.0,0.0,0.0,0.0,1.5928,1.5518,1.5384,1.4744,1.4218,1.4005,1.5338,1.5985,1.5453,1.7281,1.8246,1.7946,1.8393,1.8498,1.8171,1.831,1.8241,1.7926,1.7733,1.7524,1.7291,1.6972,1.6386,1.561,1.561,1.505,1.41,1.375,1.3457,1.313,1.1875,1.1452,1.1467,1.0372,0.9855,0.9688,0.9161,0.8874,0.0,0.0,0.7541,0.7523,0.6808,0.6226,0.5465,0.3587,0.2641,0.0,0.0395,0.0,0.0,0.0,0.0,-0.037,-0.1775,-0.241,-0.3111,-0.4519,-0.5123,-0.5395,-0.5395,-0.5395,-0.5395,0.0,-0.5395,-0.5395,-0.5395,-0.5719,-0.6009,-0.6137,-0.6785,-0.7242,-0.7242,-0.8027,-0.8748,-0.9274,-0.9306,-0.969,-1.0555,-1.0593,-1.0593,-1.0593,-1.0593,-1.0364,-0.9849,-1.0333,-1.0333,-0.9849,-1.0364,-1.0593,-1.06,-1.0767,-1.0935,-1.1062,-1.1062,-1.1136,-1.1243,-1.1243,-1.1282,-1.1389,-1.1389,-1.153,-1.165,-1.1356,-1.1289,-1.1389,0.0,0.0,0.0,0.0,0.0,0.0,0.0,0.0,0.0,0.0,0.0,0.0,0.0,1.343,1.2822,1.2608,1.4089,1.4858,1.4446,1.6311,1.7306,1.7097,1.7442,1.7483,1.7097,1.7463,1.7401,1.6841,1.6841,1.6744,1.6574,1.6204,1.5588,1.4835,1.4835,1.4167,1.3017,1.2571,1.2251,1.1972,1.0864,1.0528,1.0637,1.0022,0.9653,0.9362,0.8651,0.831,0.7969,0.0,0.6384,0.6137,0.5449,0.4813,0.403,0.2692,0.1676,0.0806,0.0168,0.0,0.0,0.0,0.0,-0.0404,-0.1977,-0.2511,-0.3145,-0.4686,-0.5226,-0.5395,-0.5395,-0.5395,-0.5395,-0.5395,-0.5395,-0.5395,-0.5395,-0.5624,-0.5914,-0.6297,-0.656,-0.6621,-0.6363,-0.7144,-0.7994,-0.8877,-0.8941,-0.9428,-1.053,-1.0364,-1.0238,-1.0238,-1.0009,-0.9588,-0.8941,-0.9817,-0.9951,-0.9412,-1.029,-1.0754,-1.0841,-1.1015,-1.1229,-1.1389,-1.1389,-1.1435,-1.155,-1.155,-1.1597,-1.1663,-1.1663,-1.1797,-1.1964,-1.175,-1.1663,-1.1663,0.0,0.0,0.0,0.0,0.0,0.0,0.0,0.0,0.0,0.0,0.0,0.0,0.0,0.0,1.2608,1.1898,1.3082,1.3818,1.3729,1.4937,1.593,1.6488,1.6531,1.6531,1.6522,1.6531,1.6247,1.5654,1.5654,1.5343,1.4766,1.4766,1.4099,1.2884,1.2884,1.2329,1.1368,1.135,1.1494,1.1655,1.0969,1.07,1.0659,1.0256,0.9565,0.8779,0.8504,0.8012,0.0,0.0,0.4575,0.3949,0.3068,0.2774,0.0,0.1608,0.0739,0.0,0.0,0.0,0.0,0.0,0.0,-0.0236,-0.114,-0.2043,-0.2945,-0.3849,-0.4755,-0.5395,-0.5395,-0.5395,-0.5395,-0.5395,-0.5395,-0.5395,-0.5395,-0.6141,-0.6367,-0.5524,-0.617,-0.6363,0.0,-0.6235,-0.7111,-0.7962,-0.8027,-0.8807,-1.0523,-0.9786,-0.9338,-0.9338,-0.8517,-0.8059,-0.8027,-0.8909,-0.9462,-0.971,-1.058,-1.1129,-1.1369,-1.1375,-1.1382,-1.1389,-1.1389,-1.159,-1.1893,-1.1893,-1.206,-1.2278,-1.2278,-1.2278,-1.2285,-1.2278,-1.2278,-1.2278,0.0,0.0,0.0,0.0,0.0,0.0,0.0,0.0,0.0,0.0,0.0,0.0,0.0,0.0,0.0,0.0,0.0,1.2599,1.3066,1.4265,1.5217,1.5864,1.6281,1.6303,1.5908,1.5908,1.5622,1.5005,1.5005,1.4903,1.4698,1.425,1.3683,1.3059,1.2597,1.1843,1.09,1.09,1.0787,1.0629,1.0399,1.0435,1.0567,0.9831,0.9391,0.8957,0.0,0.6744,0.0,0.0,0.0,0.0,0.2776,0.0,0.0,0.0706,0.0,0.0,0.0,0.0,0.0,0.0,0.0,-0.0236,-0.1106,-0.1541,-0.2209,-0.368,-0.4251,-0.4652,-0.5292,-0.5395,-0.5395,-0.5395,-0.5395,-0.5395,-0.5395,-0.5653,-0.5719,-0.5428,-0.5653,0.0,0.0,0.0,0.0,-0.7079,-0.7233,-0.7779,-0.8953,-0.8828,-0.8704,-0.8704,-0.8426,-0.7986,-0.741,-0.826,-0.878,-0.9002,-1.0517,-1.1436,-1.1724,-1.1724,-1.1824,-1.2004,-1.2004,-1.1689,-1.1181,-1.1181,-1.083,-1.0314,-1.0314,-1.0314,-1.0314,-1.0314,-1.072,-1.1391,0.0,0.0,0.0,0.0,0.0,0.0,0.0,0.0,0.0,0.0,0.0,0.0,0.0,0.0,0.0,0.0,0.0,0.0,1.204,1.3006,1.3852,1.4529,1.4948,1.497,1.4574,1.4552,1.4265,1.3635,1.389,1.3912,1.3666,1.3343,1.2961,1.2512,1.1911,1.1241,1.0486,1.0486,1.0226,0.9804,0.9804,0.975,0.9614,0.9037,0.8646,0.0,0.7111,0.569,0.0,0.0,0.0,0.0,0.0,0.0,0.0,0.0,0.0,0.0,0.0,0.0,0.0,0.0,0.0,-0.0135,-0.0706,-0.1073,-0.1641,-0.2811,-0.3547,-0.4184,-0.4788,-0.516,-0.5395,-0.5395,-0.5395,-0.5395,-0.5395,-0.5395,-0.5395,-0.5395,-0.5395,-0.5416,0.0,0.0,0.0,-0.6722,-0.6865,-0.7309,-0.8235,-0.8055,-0.795,-0.795,-0.7633,-0.7212,-0.6655,-0.7495,-0.8377,-0.9278,-1.0573,-1.1291,-1.1505,-1.1143,-1.1052,-1.1211,-1.1211,-1.087,-1.0265,-1.0265,-0.9895,-0.9296,-0.9296,-0.9296,-0.9296,-0.9296,-0.9933,-1.0901,0.0,0.0,0.0,0.0,0.0,0.0,0.0,0.0,0.0,0.0,0.0,0.0,0.0,0.0,0.0,0.0,0.0,0.0,1.0713,1.1306,1.1978,1.2618,1.268,1.268,1.2642,1.2642,1.2291,1.1603,1.2308,1.2288,1.1667,1.1938,1.1736,1.1129,1.0722,1.0339,0.9982,0.9982,0.9699,0.9242,0.9242,0.8748,0.7994,0.7962,0.7405,0.6687,0.6654,0.0,0.0,0.0,0.0,0.0,0.0,0.0,0.0,0.0,0.0,0.0,0.0,0.0,0.0,0.0,0.0,0.0,0.0,-0.0638,-0.1274,-0.134,-0.2743,-0.3949,0.0,0.0,-0.5395,-0.5395,-0.5395,-0.5395,-0.5395,-0.5402,-0.5405,0.0,0.0,0.0,0.0,0.0,0.0,-0.6795,0.0,-0.7281,-0.8232,-0.7486,-0.7071,-0.7071,-0.6251,-0.5823,-0.5823,-0.6682,-0.8193,-1.028,-1.0598,-1.0714,-1.0677,-0.9744,-0.9296,-0.9296,-0.9296,-0.9258,-0.9221,-0.9221,-0.9183,-0.9145,-0.9145,-0.9145,-0.9145,-0.9145,-0.9814,-1.0714,0.0,0.0,0.0,0.0,0.0,0.0,0.0,0.0,0.0,0.0,0.0,0.0,0.0,0.0,0.0,0.0,0.0,0.0,1.0049,1.1073,1.1776,1.1954,1.2436,1.2474,1.1978,1.1954,1.1379,1.0208,1.0411,1.0198,0.9623,0.9221,0.9084,0.9204,0.8583,0.8404,0.8552,0.8552,0.8457,0.8318,0.8318,0.8188,0.7929,0.7274,0.6883,0.6621,0.0,0.0,0.0,0.0,0.0,0.0,0.0,0.0,0.0,0.0,0.0,0.0,0.0,0.0,0.0,0.0,0.0,0.0,0.0,-0.0168,-0.0706,-0.2076,-0.2711,-0.3447,0.0,0.0,0.0,-0.5395,-0.5395,0.0,-0.5395,-0.5494,0.0,0.0,0.0,-0.5705,-0.5742,-0.5745,0.0,0.0,-0.624,-0.6328,-0.6585,-0.6525,-0.6522,-0.6522,-0.6294,-0.6184,-0.6184,-0.7153,-0.7886,-0.8458,-0.9304,-0.9669,-0.9669,-0.941,-0.9296,-0.9296,-0.9296,-0.8879,-0.8199,-0.8199,-0.7744,-0.7061,-0.7061,-0.7061,-0.7061,-0.7061,-0.8161,-0.9669,0.0,0.0,0.0,0.0,0.0,0.0,0.0,0.0,0.0,0.0,0.0,0.0,0.0,0.0,0.0,0.0,0.0,0.0,0.0,1.0023,1.0434,1.0434,1.078,1.0806,1.0434,1.0112,0.9566,0.8829,0.8877,0.8743,0.8459,0.8258,0.8286,0.8468,0.7965,0.7813,0.7994,0.7994,0.7762,0.0,0.0,0.7214,0.6793,0.6301,0.6141,0.0,0.0,0.0,0.0,0.0,0.0,0.1307,0.1307,0.0706,0.0,0.0,0.0,0.0,0.0,0.0,0.0,0.0,0.0,0.0,0.0,0.0,-0.0405,-0.1907,-0.2523,0.0,0.0,0.0,0.0,0.0,0.0,0.0,-0.5579,-0.563,-0.5684,0.0,-0.5752,0.0,-0.5895,-0.5901,-0.5966,0.0,-0.6067,-0.6023,-0.6129,-0.6252,-0.63,-0.63,-0.63,-0.63,-0.63,-0.7288,-0.7783,-0.7821,-0.8389,-0.8656,-0.8618,-0.8199,-0.7974,-0.7974,0.0,-0.7668,-0.7138,-0.7138,-0.6795,-0.63,-0.63,-0.63,-0.63,-0.63,-0.7292,-0.8694,0.0,0.0,0.0,0.0,0.0,0.0,0.0,0.0,0.0,0.0,0.0,0.0,0.0,0.0,0.0,0.0,0.0,0.0,0.0,0.0,0.0,0.8804,0.8804,0.8804,0.8804,0.0,0.0,0.0,0.0,0.7588,0.7547,0.7876,0.8055,0.8067,0.7797,0.767,0.767,0.767,0.7209,0.6523,0.6523,0.6075,0.5395,0.0,0.0,0.0,0.0,0.0,0.0,0.0,0.3045,0.1641,0.1507,0.0873,0.0135,0.0034,0.0,0.0,0.0,0.0,0.0,0.0,0.0,0.0,0.0,0.0,-0.0307,-0.1328,0.0,-0.3002,-0.4078,0.0,-0.5447,-0.5565,0.0,-0.5661,-0.5783,-0.582,-0.583,-0.583,-0.585,-0.5915,-0.6047,-0.6023,-0.6115,-0.6289,-0.6135,-0.6118,-0.6293,-0.63,-0.63,-0.63,-0.63,-0.63,-0.63,-0.7176,-0.7591,-0.7591,-0.7591,-0.7591,-0.7553,-0.6679,-0.63,-0.63,-0.63,0.0,-0.63,-0.63,-0.63,-0.63,-0.63,-0.63,-0.63,-0.63,-0.6945,-0.7936,0.0,0.0,0.0,0.0,0.0,0.0,0.0,0.0,0.0,0.0,1.2598,1.2905,0.0,0.0,0.0,0.0,0.0,0.0,0.0,0.0,0.0,0.0,0.8804,0.8804,0.0,0.0,0.0,0.0,0.0,0.0,0.56,0.5657,0.5794,0.593,0.587,0.5851,0.5851,0.5851,0.5752,0.562,0.562,0.5524,0.5395,0.0,0.0,0.0,0.0,0.0,0.0,0.0,0.4417,0.3411,0.2678,0.1809,0.094,0.0202,0.0,0.0,0.0,0.0,0.0,0.0,0.0,0.0,0.0,0.0,0.0,0.0,0.0,-0.1878,-0.2827,-0.3797,0.0,-0.446,0.0,0.0,0.0,0.0,-0.5952,0.0,0.0,0.0,0.0,0.0,0.0,0.0,0.0,-0.6272,-0.6296,-0.63,-0.63,-0.63,-0.63,-0.63,-0.63,-0.649,-0.6567,-0.6567,-0.6567,-0.6567,-0.6567,-0.6377,-0.63,-0.63,-0.63,0.0,-0.63,-0.63,-0.63,-0.63,-0.63,-0.63,-0.63,-0.63,-0.6945,-0.7936,0.0,0.0,0.0,0.0,0.0,0.0,0.0,1.2905,1.2774,1.2427,1.2344,1.2187,1.1841,1.12,1.0661,0.0,0.0,0.0,0.0,0.0,0.0,0.0,0.0,0.0,0.0,0.0,0.0,0.0,0.0,0.0,0.0,0.0,0.0,0.0,0.0,0.0,0.0,0.0,0.0,0.0,0.0,0.0,0.0,0.0,0.0,0.0,0.0,0.0,0.0,0.0,0.509,0.4586,0.3647,0.241,0.1207,0.0806,0.037,0.0,0.0,0.0,0.0,0.0,0.0,0.0,0.0,0.0,0.0,0.0,-0.1446,-0.1749,-0.2711,0.0,0.0,0.0,0.0,0.0,0.0,0.0,0.0,0.0,0.0,0.0,0.0,0.0,0.0,0.0,0.0,-0.63,-0.63,-0.63,-0.63,-0.63,-0.63,-0.63,-0.63,-0.63,-0.63,-0.63,-0.63,-0.63,-0.63,-0.63,-0.63,-0.63,-0.63,0.0,-0.63,-0.63,-0.63,-0.63,-0.63,-0.63,-0.63,-0.63,-0.6606,-0.7176,0.0,0.0,0.0,0.0,0.0,0.0,0.0,1.2905,1.2847,1.2691,1.2163,1.1491,1.0661,1.0593,1.0364,0.0,0.0,0.0,0.0,0.0,0.0,0.0,0.0,0.0,0.0,0.0,0.0,0.0,0.0,0.0,0.0,0.0,0.0,0.0,0.0,0.0,0.0,0.0,0.0,0.0,0.0,0.0,0.0,0.0,0.0,0.0,0.0,0.0,0.0,0.0,0.5395,0.5259,0.4519,0.3178,0.1842,0.1641,0.0974,0.0269,0.0269,0.0135,0.0,0.0,0.0,0.0,0.0,0.0,0.0,0.0,-0.1257,-0.1494,-0.2299,0.0,0.0,0.0,0.0,0.0,0.0,0.0,0.0,0.0,0.0,0.0,0.0,0.0,0.0,0.0,0.0,0.0,-0.63,-0.63,-0.63,-0.63,-0.63,-0.63,-0.63,-0.63,-0.63,-0.63,-0.63,-0.63,-0.63,-0.63,-0.63,-0.63,-0.63,0.0,0.0,-0.63,-0.63,-0.63,-0.63,-0.63,-0.63,-0.63,-0.63,-0.6451,0.0,0.0,0.0,0.0,0.0,0.0,0.0,1.2905,1.2666,1.1996,1.1839,1.1316,1.0038,0.9891,0.9865,0.0,0.0,0.0,0.0,0.0,0.0,0.0,0.0,0.0,0.0,0.0,0.0,0.0,0.0,0.0,0.0,0.0,0.0,0.0,0.0,0.0,0.0,0.0,0.0,0.0,0.0,0.0,0.0,0.0,0.0,0.0,0.0,0.0,0.0,0.0,0.0,0.5395,0.5292,0.4586,0.358,0.2811,0.0,0.0,0.1173,0.0605,0.0,0.0,0.0,0.0,0.0,0.0,0.0,-0.0117,-0.0157,-0.0157,-0.0275,-0.1057,0.0,0.0,0.0,0.0,0.0,0.0,0.0,0.0,0.0,0.0,0.0,0.0,0.0,0.0,0.0,0.0,-0.63,-0.63,-0.63,-0.63,-0.63,-0.63,-0.63,-0.63,-0.63,-0.63,-0.63,-0.63,-0.63,-0.63,-0.63,-0.63,-0.63,0.0,0.0,-0.63,-0.63,-0.63,-0.63,-0.63,-0.63,-0.63,-0.63,-0.6451,0.0,0.0,0.0,0.0,0.0,0.0,1.2905,1.2905,1.2798,1.251,1.2064,1.1609,1.1065,1.0287,0.964,0.9237,0.0,0.0,0.0,0.0,0.0,0.0,0.0,0.0,0.0,0.0,0.0,0.0,0.0,0.0,0.0,0.0,0.0,0.0,0.0,0.0,0.0,0.0,0.0,0.0,0.0,0.0,0.0,0.0,0.0,0.0,0.0,0.0,0.0,0.0,0.0,0.0,0.5599,0.4958,0.0,0.0,0.2845,0.2143,0.2143,0.1494,0.0932,0.1569,0.085,0.0181,0.0825,0.0,0.0,0.0,0.0,0.0,0.0,-0.0353,-0.0628,-0.0628,0.0,0.0,0.0,0.0,0.0,0.0,0.0,0.0,0.0,0.0,0.0,0.0,0.0,0.0,-0.63,-0.63,-0.63,-0.63,-0.63,-0.63,-0.63,-0.63,-0.63,-0.63,-0.63,-0.63,-0.63,-0.63,-0.63,-0.63,-0.63,0.0,0.0,-0.63,-0.63,-0.63,-0.63,-0.63,-0.63,-0.63,-0.63,-0.6387,0.0,0.0,0.0,0.0,0.0,1.2905,1.2905,1.2905,1.2905,1.2905,1.2446,1.2049,1.1814,1.0788,0.9814,0.9159,0.891,0.0,0.0,0.0,0.0,0.0,0.0,0.0,0.0,0.0,0.8576,0.7661,0.0,0.0,0.0,0.0,0.0,0.0,0.0,0.0,0.0,0.0,0.0,0.0,0.0,0.0,0.0,0.0,0.0,0.0,0.0,0.0,0.0,0.0,0.0,0.0,0.0,0.0,0.0,0.0,0.3703,0.2812,0.3154,0.2539,0.1946,0.239,0.1487,0.0593,0.0,0.0,0.0,0.0,0.0,0.0,0.0,0.0,0.0,0.0,0.0,-0.1254,0.0,0.0,0.0,0.0,0.0,0.0,0.0,0.0,0.0,0.0,0.0,0.0,0.0,-0.63,-0.63,-0.63,-0.63,-0.63,-0.63,-0.63,-0.63,-0.63,-0.63,-0.63,-0.63,-0.63,-0.63,-0.63,-0.63,0.0,0.0,-0.63,-0.63,-0.63,-0.63,-0.63,-0.6306,-0.6347,-0.6361,-0.6381,0.0,0.0,0.0,0.0,0.0,0.0,1.2905,1.2905,1.2905,1.2905,1.2881,1.2618,1.1888,1.1191,1.0517,0.984,0.9185,0.0,0.0,0.0,0.0,0.0,0.0,0.0,0.0,0.0,0.7671,0.7989,0.7144,0.6719,0.0,0.0,0.0,0.0,0.0,0.0,0.0,0.0,0.0,0.0,0.0,0.0,0.0,0.0,0.0,0.0,0.0,0.0,0.0,0.0,0.0,0.0,0.0,0.0,0.0,0.0,0.4421,0.3118,0.42,0.3806,0.285,0.1875,0.1585,0.1293,0.0,0.0,0.0,0.0,0.0,0.0,0.0,0.0,0.0,0.0,0.0,0.0,0.0,0.0,0.0,0.0,0.0,0.0,0.0,0.0,0.0,0.0,0.0,0.0,0.0,-0.63,-0.63,-0.63,-0.63,-0.63,-0.63,-0.63,-0.63,-0.63,-0.63,-0.63,-0.63,-0.63,-0.63,0.0,0.0,0.0,0.0,-0.63,-0.63,-0.63,-0.63,-0.63,-0.6317,-0.6457,-0.6511,-0.6532,0.0,0.0,0.0,0.0,0.0,0.0,0.0,1.2905,1.2905,1.2905,1.2905,1.2608,1.1888,1.1191,1.0542,0.9865,0.9185,0.0,0.0,0.0,0.0,0.0,0.0,0.0,0.0,0.7817,0.7387,0.7111,0.685,0.6396,0.5818,0.5524,0.5395,0.0,0.0,0.0,0.0,0.0,0.0,0.0,0.0,0.0,0.0,0.0,0.0,0.0,0.0,0.0,0.0,0.0,0.0,0.0,0.0,0.0,0.0,0.0,0.0,0.0,0.3372,0.2573,0.1981,0.2373,0.1492,0.0622,0.1017,0.0,0.0,0.0,0.0,0.0,0.0,0.0,0.0,0.0,0.0,0.0,0.0,0.0,0.0,0.0,0.0,0.0,0.0,0.0,0.0,0.0,0.0,0.0,0.0,-0.63,-0.63,-0.63,-0.63,-0.63,-0.63,-0.63,-0.63,-0.63,-0.63,-0.63,-0.63,-0.63,-0.63,0.0,0.0,0.0,0.0,-0.63,-0.63,-0.63,-0.63,-0.6361,-0.645,-0.6497,-0.6539,-0.6651,0.0,0.0,0.0,0.0,0.0,0.0,0.0,1.2905,1.2905,1.2905,1.2905,1.2608,1.1888,1.1191,1.0542,0.9865,0.9185,0.0,0.0,0.0,0.0,0.0,0.0,0.0,0.8556,0.7664,0.7049,0.6687,0.6363,0.5947,0.5395,0.5395,0.5395,0.5395,0.5395,0.0,0.0,0.0,0.0,0.0,0.0,0.0,0.5395,0.0,0.0,0.0,0.0,0.0,0.0,0.0,0.0,0.0,0.0,0.0,0.0,0.0,0.0,0.0,0.0,0.3022,0.2561,0.2448,0.1511,0.0,0.0,0.0,0.0,0.0,0.0,0.0,0.0,0.0,0.0,0.0,0.0,0.0,0.0,0.0,0.0,0.0,0.0,0.0,0.0,0.0,0.0,0.0,0.0,0.0,0.0,-0.63,-0.63,-0.63,-0.63,-0.63,-0.63,-0.63,-0.63,-0.63,-0.63,-0.63,-0.63,-0.63,-0.63,0.0,0.0,0.0,0.0,-0.63,-0.63,-0.6306,-0.6358,-0.6433,-0.6525,-0.6603,-0.6705,-0.6807,0.0,0.0,0.0,0.0,0.0,0.0,0.0,1.2905,1.2905,1.2905,1.2856,1.2535,1.1823,1.1141,1.0466,0.9788,0.0,0.0,0.0,0.0,0.0,0.0,0.0,0.0,0.879,0.7484,0.6752,0.6687,0.5881,0.5458,0.5395,0.5395,0.5395,0.5395,0.5395,0.5395,0.5395,0.5395,0.5395,0.5395,0.5395,0.5395,0.0,0.0,0.0,0.0,0.0,0.0,0.0,0.0,0.0,0.0,0.0,0.0,0.0,0.0,0.0,0.0,0.0,0.0,0.0,0.0,0.0,0.0,0.0,0.0,0.0,0.0,0.0,0.0,0.0,0.0,0.0,0.0,0.0,0.0,0.0,0.0,0.0,0.0,0.0,0.0,0.0,0.0,0.0,0.0,0.0,0.0,0.0,-0.63,-0.63,-0.63,-0.63,-0.63,-0.63,-0.63,-0.63,-0.63,-0.63,-0.63,-0.63,-0.63,-0.63,0.0,0.0,0.0,0.0,-0.631,-0.6317,-0.633,-0.6474,-0.6535,-0.6539,-0.6824,-0.6893,-0.692,0.0,0.0,0.0,0.0,0.0,0.0,0.0,0.0,0.0,0.0,1.2403,1.1798,1.1116,1.044,0.9762,0.0,0.0,0.0,0.0,0.0,0.0,0.0,0.0,0.0,0.8795,0.8064,0.7372,0.6687,0.6494,0.6042,0.5395,0.5395,0.5395,0.5395,0.5395,0.5395,0.5395,0.5395,0.5395,0.5395,0.5395,0.5395,0.0,0.0,0.0,0.0,0.5395,0.5395,0.0,0.0,0.0,0.0,0.0,0.0,0.0,0.0,0.5816,0.0,0.3904,0.0,0.2192,0.1724,0.098,0.0314,0.0,0.0,0.0,0.0,0.0,0.0,0.0,0.0,0.0,0.0,0.0,0.0,0.0,0.0,0.0,0.0,0.0,0.0,0.0,0.0,0.0,0.0,0.0,0.0,0.0,-0.63,-0.63,-0.63,-0.63,-0.63,-0.63,-0.63,-0.63,-0.63,-0.63,-0.63,-0.63,-0.63,-0.63,0.0,0.0,0.0,-0.631,-0.6416,-0.6463,-0.6477,-0.6586,-0.6719,-0.6831,-0.6859,-0.6953,-0.7051,0.0,0.0,0.0,0.0,0.0,0.0,0.0,0.0,0.0,0.0,0.0,0.0,0.0,0.0,0.0,0.0,0.0,0.0,0.0,0.0,0.0,0.0,0.0,0.9481,0.9637,0.8963,0.8355,0.7892,0.7502,0.6854,0.6009,0.6009,0.5782,0.5395,0.5395,0.5395,0.5395,0.5395,0.5395,0.5395,0.5395,0.0,0.0,0.0,0.0,0.0,0.5395,0.5395,0.0,0.5395,0.545,0.5532,0.0,0.0,0.0,0.0,0.5745,0.5237,0.4126,0.3086,0.2074,0.1097,0.0432,0.0,0.0,0.0,0.0,0.0,0.0,0.0,0.0,0.0,0.0,0.0,0.0,0.0,0.0,0.0,0.0,0.0,0.0,0.0,0.0,0.0,0.0,0.0,0.0,0.0,0.0,-0.63,-0.63,-0.63,-0.63,-0.63,-0.63,-0.63,-0.63,-0.63,-0.63,-0.63,-0.63,-0.63,-0.63,0.0,0.0,0.0,-0.6402,-0.648,-0.6555,-0.6593,-0.6746,-0.6854,-0.6893,-0.6957,-0.7031,-0.7095,0.0,0.0,0.0,0.0,0.0,0.0,0.0,0.0,0.0,0.0,0.0,0.0,0.0,0.0,0.0,0.0,0.0,0.0,0.0,0.0,0.0,0.0,1.018,1.0301,1.0586,0.9881,0.9434,0.9306,0.8549,0.7767,0.6915,0.6915,0.6429,0.5591,0.5458,0.5395,0.5395,0.5395,0.5395,0.5395,0.5395,0.0,0.0,0.0,0.0,0.0,0.0,0.0,0.0,0.5395,0.5395,0.5419,0.5549,0.0,0.0,0.0,0.0,0.0,0.4462,0.3671,0.2462,0.0666,0.0118,0.0,0.0,0.0,0.0,0.0,0.0,0.0,0.0,0.0,0.0,0.0,0.0,0.0,0.0,0.0,0.0,0.0,0.0,0.0,0.0,0.0,0.0,0.0,0.0,0.0,0.0,-0.63,-0.63,-0.63,-0.63,-0.63,-0.63,-0.63,-0.63,-0.63,-0.63,-0.63,-0.63,-0.63,-0.63,-0.6303,0.0,0.0,-0.6515,-0.6562,-0.6617,-0.6749,-0.6859,-0.6916,-0.6933,-0.7051,-0.7095,-0.7095,0.0,0.0,0.0,0.0,0.0,0.0,0.0,0.0,0.0,0.0,0.0,0.0,0.0,0.0,0.0,0.0,0.0,0.0,0.0,0.0,0.0,1.0512,1.0526,1.0546,1.0593,1.0466,1.004,0.9306,0.9172,0.8651,0.78,0.78,0.734,0.6461,0.5719,0.5395,0.5395,0.5395,0.5395,0.5395,0.5395,0.0,0.0,0.0,0.0,0.0,0.0,0.0,0.0,0.5395,0.5395,0.5399,0.5423,0.0,0.0,0.0,0.0,0.0,0.3567,0.262,0.1762,0.145,0.0667,0.0,0.0,0.0,0.0,0.0,0.0,0.0,0.0,0.0,0.0,0.0,0.0,0.0,0.0,0.0,0.0,0.0,0.0,0.0,0.0,0.0,0.0,0.0,0.0,0.0,-0.63,-0.63,-0.63,-0.63,-0.63,-0.63,-0.63,-0.63,-0.63,-0.63,-0.63,-0.63,-0.63,-0.63,-0.63,-0.6306,0.0,-0.6494,-0.6532,-0.6753,-0.6829,-0.6866,-0.7007,-0.7065,-0.7065,-0.7088,-0.7095,-0.7095,0.0,0.0,0.0,0.0,0.0,0.0,0.0,0.0,0.0,0.0,0.0,0.0,0.0,0.0,0.0,0.0,0.0,0.0,0.0,0.0,1.0445,1.0586,1.0593,1.0593,1.0593,1.0593,1.0396,1.0009,1.0009,0.9556,0.8683,0.8221,0.78,0.7372,0.699,0.6793,0.6761,0.6305,0.6104,0.6075,0.0,0.0,0.0,0.0,0.0,0.0,0.0,0.0,0.0,0.0,0.5395,0.5395,0.5395,0.0,0.0,0.0,0.0,0.0,0.3324,0.2347,0.145,0.0863,0.0353,0.0,0.0,0.0,0.0,0.0,0.0,0.0,0.0,0.0,0.0,0.0,0.0,0.0,0.0,0.0,0.0,0.0,0.0,0.0,0.0,0.0,0.0,0.0,0.0,0.0,-0.63,-0.63,-0.63,-0.63,-0.63,-0.63,-0.63,-0.63,-0.63,-0.63,-0.63,-0.63,-0.63,-0.63,-0.634,-0.6419,0.0,-0.6566,-0.6729,-0.6829,-0.693,-0.7007,-0.7071,-0.7095,-0.7095,-0.7095,-0.7095,-0.7095,0.0,0.0,0.0,0.0,0.0,0.0,0.0,0.0,0.0,0.0,0.0,0.0,0.0,0.0,0.0,0.0,0.0,0.0,0.0,1.0863,1.0807,1.0624,1.0593,1.0593,1.0593,1.0593,1.0593,1.0593,1.0593,1.0269,0.9594,0.871,0.8291,0.8285,0.7864,0.7697,0.7632,0.6756,0.6396,0.633,0.0,0.0,0.0,0.0,0.0,0.0,0.0,0.0,0.0,0.0,0.0,0.0,0.0,0.0,0.0,0.5715,0.5042,0.4111,0.3623,0.2542,0.1411,0.0588,0.0196,0.0,0.0,0.0,0.0,0.0,0.0,0.0,0.0,0.0,0.0,0.0,0.0,0.0,0.0,0.0,0.0,0.0,0.0,0.0,0.0,0.0,0.0,0.0,0.0,0.0,-0.63,-0.63,-0.63,-0.63,-0.63,-0.63,-0.63,-0.63,-0.63,-0.63,-0.63,-0.63,-0.63,-0.63,-0.6378,-0.6515,-0.6552,-0.6678,-0.6886,-0.692,-0.6997,-0.7095,-0.7095,-0.7095,-0.7095,-0.7095,-0.7095,-0.7095,0.0,0.0,0.0,0.0,0.0,0.0,0.0,0.0,0.0,0.0,0.0,0.0,0.0,0.0,0.0,0.0,0.0,0.0,0.0,1.171,1.1375,1.0618,1.0593,1.0593,1.0593,1.0593,1.0593,1.0593,1.0593,1.0561,1.0491,0.9626,0.9204,0.9139,0.7502,0.6785,0.6719,0.5848,0.5491,0.5491,0.5428,0.0,0.0,0.0,0.0,0.0,0.0,0.0,0.0,0.0,0.0,0.0,0.0,0.0,0.5453,0.5715,0.5042,0.4257,0.451,0.3127,0.1568,0.1489,0.0745,0.0,0.0,0.0,0.0,0.0,0.0,0.0,0.0,0.0,0.0,0.0,0.0,0.0,0.0,0.0,0.0,0.0,0.0,0.0,0.0,0.0,0.0,0.0,0.0,0.0,-0.63,-0.63,-0.63,-0.63,-0.63,-0.63,-0.63,-0.63,-0.63,-0.63,-0.63,-0.63,-0.63,-0.63,-0.6378,-0.6521,-0.6624,-0.6776,-0.6896,-0.7028,-0.7088,-0.7095,-0.7095,-0.7095,-0.7095,-0.7095,-0.7095,-0.7095,0.0,0.0,0.0,0.0,0.0,0.0,0.0,0.0,0.0,0.0,0.0,0.0,0.0,0.0,0.0,0.0,0.0,0.0,0.0,1.1313,1.0926,1.0624,1.0593,1.0593,1.0593,1.0593,1.0593,1.0593,1.0593,1.0593,1.0593,0.9722,0.9306,0.9236,0.8059,0.7502,0.7437,0.656,0.6203,0.6174,0.562,0.5395,0.0,0.0,0.0,0.0,0.0,0.0,0.0,0.0,0.5395,0.5395,0.5395,0.546,0.5576,0.5742,0.5577,0.5241,0.4801,0.3634,0.2386,0.1762,0.0784,0.0,0.0,0.0,0.0,0.0,0.0,0.0,0.0,0.0,0.0,0.0,0.0,0.0,0.0,0.0,0.0,0.0,0.0,0.0,0.0,0.0,0.0,0.0,0.0,0.0,0.0,-0.63,-0.63,-0.63,-0.63,-0.63,-0.63,-0.63,-0.6344,-0.6429,-0.634,-0.6347,-0.6433,-0.6433,-0.6525,-0.6759,-0.6817,-0.6883,-0.7021,-0.7071,-0.7095,-0.7095,-0.7095,-0.7095,-0.7095,-0.7095,-0.7095,-0.7095,0.0,0.0,0.0,0.0,0.0,0.0,0.0,0.0,0.0,0.0,0.0,0.0,0.0,0.0,0.0,0.0,0.0,0.0,1.1865,1.1288,1.0863,1.0624,1.0593,1.0593,1.0593,1.0593,1.0593,1.0593,1.0593,1.0593,1.0593,0.9983,0.9562,0.9274,0.8388,0.7832,0.7535,0.6658,0.6301,0.6268,0.5943,0.5653,0.0,0.0,0.0,0.0,0.0,0.0,0.0,0.0,0.5395,0.5395,0.5395,0.5501,0.5616,0.5759,0.5685,0.5413,0.4851,0.3673,0.2464,0.1762,0.0,0.0,0.0,0.0,0.0,0.0,0.0,0.0,0.0,0.0,0.0,0.0,0.0,0.0,0.0,0.0,0.0,0.0,0.0,0.0,0.0,0.0,0.0,0.0,0.0,0.0,0.0,-0.63,-0.63,-0.63,-0.63,-0.63,-0.63,-0.6344,-0.6416,-0.6511,-0.6463,-0.6491,-0.6546,-0.6546,-0.6685,-0.6886,-0.6886,-0.6967,-0.7095,-0.7095,-0.7095,-0.7095,-0.7095,-0.7095,-0.7095,-0.7095,-0.7095,-0.7095,0.0,0.0,0.0,0.0,0.0,0.0,0.0,0.0,0.0,0.0,0.0,0.0,0.0,0.0,0.0,0.0,0.0,0.0,1.1865,1.1795,1.1437,1.0618,1.0593,1.0593,1.0593,1.0593,1.0593,1.0593,1.0593,1.0593,1.0593,1.0593,1.0142,0.9274,0.8388,0.7535,0.6654,0.5782,0.5428,0.5491,0.6363,0.6203,0.5524,0.0,0.0,0.0,0.0,0.0,0.0,0.0,0.5395,0.5395,0.5395,0.5501,0.562,0.5762,0.5206,0.4543,0.4694,0.3207,0.1607,0.0,0.0,0.0,0.0,0.0,0.0,0.0,0.0,0.0,0.0,0.0,0.0,0.0,0.0,0.0,0.0,0.0,0.0,0.0,0.0,0.0,0.0,0.0,0.0,0.0,0.0,0.0,0.0,-0.63,-0.63,-0.63,-0.63,-0.63,-0.6303,-0.6443,-0.6515,-0.6518,-0.663,-0.6702,-0.6702,-0.6702,-0.6787,-0.6886,-0.6886,-0.6967,-0.7095,-0.7095,-0.7095,-0.7095,-0.7095,-0.7095,-0.7095,-0.7095,-0.7095,-0.7095,0.0,0.0,0.0,0.0,0.0,0.0,0.0,0.0,0.0,0.0,0.0,0.0,0.0,0.0,0.0,0.0,0.0,0.0,1.1834,1.1257,1.0839,1.0624,1.0593,1.0593,1.0593,1.0593,1.0593,1.0593,1.0593,1.0593,1.0593,0.9977,0.9562,0.9274,0.8388,0.7859,0.76,0.7344,0.7214,0.7246,0.7502,0.7474,0.7181,0.0,0.0,0.0,0.0,0.0,0.0,0.0,0.0,0.0,0.5521,0.5623,0.5769,0.5918,0.5842,0.5771,0.5815,0.4258,0.0,0.0,0.0,0.0,0.0,0.0,0.0,0.0,0.0,0.0,0.0,0.0,0.0,0.0,0.0,0.0,0.0,0.0,0.0,0.0,0.0,0.0,0.0,0.0,0.0,0.0,0.0,0.0,0.0,-0.5157,-0.5512,-0.6261,-0.63,-0.6347,-0.645,-0.6491,-0.658,-0.6793,-0.6841,-0.6861,-0.6861,-0.6861,-0.6896,-0.7034,-0.7034,-0.7058,-0.7095,-0.7095,-0.7095,-0.7095,-0.7095,-0.7095,-0.7095,-0.7095,-0.7095,-0.7095,0.0,0.0,0.0,0.0,0.0,0.0,0.0,0.0,0.0,0.0,1.541,0.0,0.0,0.0,0.0,0.0,0.0,0.0,0.0,1.1045,1.0593,1.0593,1.0593,1.0593,1.0593,1.0593,1.0593,1.0593,1.0593,1.0593,1.0593,1.0047,0.9626,0.9274,0.8748,0.8323,0.7994,0.7994,0.7994,0.8027,0.8388,0.8323,0.7994,0.0,0.0,0.0,0.0,0.0,0.0,0.0,0.0,0.0,0.5696,0.5728,0.5835,0.551,0.5214,0.4924,0.4535,0.0,0.0,0.0,0.0,0.0,0.0,0.0,0.0,0.0,0.0,0.0,0.0,0.0,0.0,0.0,0.0,0.0,0.0,0.0,0.0,0.0,0.0,0.0,0.0,0.0,0.0,0.0,0.0,0.0,0.0,-0.4062,-0.4569,-0.5628,-0.567,-0.593,-0.6511,-0.6573,-0.6685,-0.6886,-0.6943,-0.697,-0.697,-0.697,-0.7014,-0.7095,-0.7095,-0.7095,-0.7095,-0.7095,-0.7095,-0.7095,-0.7095,-0.7095,-0.7095,-0.7095,-0.7095,-0.7095,0.0,0.0,0.0,0.0,0.0,0.0,0.0,0.0,0.0,0.0,1.541,1.5381,0.0,0.0,0.0,0.0,0.0,0.0,0.0,1.1108,1.0681,1.0593,1.0593,1.0593,1.0593,1.0593,1.0593,1.0593,1.0593,1.0593,1.0593,1.0593,1.0174,0.9434,0.9434,0.8973,0.8221,0.8221,0.8221,0.8318,0.9107,0.8941,0.8318,0.9043,0.0,0.0,0.0,0.0,0.0,0.0,0.0,0.0,0.5898,0.5813,0.5806,0.4946,0.3991,0.3047,0.2113,0.0,0.0,0.0,0.0,0.0,0.0,0.0,0.0,0.0,0.0,0.0,0.0,0.0,0.0,0.0,0.0,0.0,0.0,0.0,0.0,0.0,0.0,0.0,0.0,0.0,0.0,0.0,0.0,0.0,0.0,-0.2968,-0.3435,-0.453,-0.4647,-0.5221,-0.6368,-0.6589,-0.6783,-0.6906,-0.7034,-0.7095,-0.7095,-0.7095,-0.7095,-0.7095,-0.7095,-0.7095,-0.7095,-0.7095,-0.7095,-0.7095,-0.7095,-0.7095,-0.7095,-0.7095,-0.7095,-0.7095,0.0,0.0,0.0,0.0,0.0,0.0,0.0,0.0,0.0,0.0,0.0,0.0,0.0,0.0,0.0,0.0,0.0,0.0,0.0,1.1648,1.1257,1.0624,1.0593,1.0593,1.0593,1.0593,1.0593,1.0593,1.0593,1.0593,1.0593,1.0593,1.0498,1.0333,1.0333,1.0238,1.004,1.004,1.004,1.0072,1.0231,1.0199,0.9977,0.9498,0.8748,0.0,0.0,0.0,0.0,0.0,0.0,0.0,0.5931,0.5942,0.5979,0.5943,0.5176,0.4297,0.0,0.266,0.0,0.0,0.0,0.0,0.0,0.0,0.0,0.0,0.0,0.0,0.0,0.0,0.0,0.0,0.0,0.0,0.0,0.0,0.0,0.0,0.0,0.0,0.0,0.0,0.0,0.0,0.0,0.0,-0.188,-0.1919,-0.2386,-0.3396,-0.4256,-0.4941,-0.5394,-0.6261,-0.6831,0.0,-0.7082,-0.7095,-0.7095,-0.7095,-0.7095,-0.7095,-0.7095,-0.7095,-0.7095,-0.7095,-0.7095,-0.7095,-0.7095,-0.7095,-0.7095,-0.7095,-0.7095,-0.7095,0.0,0.0,0.0,0.0,0.0,0.0,0.0,0.0,0.0,0.0,0.0,0.0,0.0,0.0,0.0,0.0,0.0,0.0,0.0,0.0,1.1045,1.0624,1.0593,1.0593,1.0593,1.0727,1.0801,1.0801,1.0909,1.0861,1.0593,1.0593,1.0593,1.0593,1.0593,1.0593,1.0593,1.0593,1.0593,1.0593,1.0593,1.0593,1.0561,1.011,0.9396,0.8565,0.8177,0.0,0.0,0.0,0.0,0.0,0.0,0.0,0.608,0.5648,0.5157,0.4491,0.0,0.0,0.0,0.0,0.0,0.0,0.0,0.0,0.0,0.0,0.0,0.0,0.0,0.0,0.0,0.0,0.0,0.0,0.0,0.0,0.0,0.0,0.0,0.0,0.0,0.0,0.0,0.0,0.0,-0.0235,-0.0824,-0.0824,-0.1293,-0.2347,-0.2926,-0.3559,-0.4224,-0.537,-0.6052,-0.6293,-0.6827,-0.7095,-0.7095,-0.7095,-0.7095,-0.7051,-0.6517,-0.6293,-0.6248,-0.5664,-0.5755,-0.6293,-0.6293,-0.6605,-0.7095,-0.7095,-0.7095,-0.7095,0.0,0.0,0.0,0.0,0.0,0.0,0.0,0.0,0.0,0.0,0.0,0.0,0.0,0.0,0.0,0.0,0.0,0.0,0.0,0.0,0.0,1.0593,1.064,1.0667,1.0667,1.0922,1.1069,1.1069,1.1309,1.1182,1.074,1.074,1.074,1.074,1.074,1.0713,1.0667,1.0667,1.064,1.0593,1.0593,1.0593,1.06,1.0646,1.0117,0.94,0.9548,0.9056,0.8236,0.7429,0.0,0.0,0.0,0.0,0.6141,0.5237,0.4844,0.4336,0.0,0.0,0.0,0.0,0.0,0.0,0.0,0.0,0.0,0.0,0.0,0.0,0.0,0.0,0.0,0.0,0.0,0.0,0.0,0.0,0.0,0.0,0.0,0.0,0.0,0.0,0.0,0.0,0.0,0.0,0.0,0.0,-0.0392,-0.1293,-0.1484,-0.2051,-0.3016,-0.4191,-0.4896,-0.509,-0.6024,-0.6514,-0.6514,-0.6514,-0.6605,-0.6738,-0.5578,-0.509,-0.5001,-0.4016,-0.4194,-0.509,-0.509,-0.5667,-0.6514,-0.6514,-0.6514,-0.6514,0.0,0.0,0.0,0.0,0.0,0.0,0.0,0.0,0.0,0.0,0.0,0.0,0.0,0.0,0.0,0.0,0.0,0.0,0.0,0.0,0.0,1.0593,1.0834,1.0935,1.0935,1.1223,1.1335,1.1335,1.1375,1.1349,1.1275,1.1275,1.1275,1.1275,1.1275,1.1169,1.0935,1.0935,1.0821,1.0593,1.0593,1.0593,1.062,1.0868,1.0403,0.9671,0.9925,0.9558,0.8841,0.7774,0.7584,0.0,0.0,0.0,0.0,0.6141,0.5431,0.4649,0.0,0.0,0.0,0.0,0.0,0.0,0.0,0.0,0.0,0.0,0.0,0.0,0.0,0.0,0.0,0.0,0.0,0.0,0.0,0.0,0.0,0.0,0.0,0.0,0.0,0.0,0.0,0.0,0.0,0.0,0.0,0.0,-0.0079,-0.0196,-0.1124,-0.1723,-0.2012,-0.304,-0.3629,-0.3838,-0.4014,-0.4059,-0.4059,-0.4059,-0.4641,-0.5581,-0.4372,-0.3838,-0.3838,-0.3659,-0.3703,-0.3838,-0.3838,-0.3927,-0.4059,-0.4059,-0.4059,-0.4239,0.0,0.0,0.0,0.0,0.0,0.0,0.0,0.0,0.0,0.0,0.0,0.0,0.0,0.0,0.0,0.0,0.0,0.0,0.0,0.0,0.0,1.1042,1.1169,1.1236,1.1236,1.1523,1.167,1.167,1.1837,1.1917,1.1917,1.1917,1.1702,1.1389,1.1389,1.1322,1.1236,1.1236,1.1162,1.1042,1.1042,1.0704,1.0271,1.0941,1.0337,0.9204,0.9973,0.9777,0.9051,0.8659,0.8576,0.8466,0.7442,0.0,0.0,0.0,0.0,0.0,0.0,0.0,0.0,0.0,0.0,0.0,0.0,0.0,0.0,0.0,0.0,0.0,0.0,0.0,0.0,0.0,0.0,0.0,0.0,0.0,0.0,0.0,0.0,0.0,0.0,0.0,0.0,0.0,0.0,0.0,0.0,0.0,0.0,0.0,-0.0447,-0.0749,-0.0798,-0.191,-0.2834,-0.3614,-0.3614,-0.3614,-0.357,-0.2903,-0.326,-0.433,-0.3127,-0.2592,-0.2547,-0.1879,-0.1969,-0.2592,-0.2592,-0.2992,-0.3614,-0.3614,-0.3614,-0.3792,0.0,0.0,0.0,0.0,0.0,0.0,0.0,0.0,0.0,0.0,0.0,0.0,0.0,0.0,0.0,0.0,0.0,0.0,0.0,0.0,0.0,1.1416,1.1703,1.1778,1.1536,1.2071,1.2221,1.2013,1.2198,1.2305,1.2305,1.2305,1.2071,1.1615,1.1615,1.1575,1.1536,1.1536,1.1496,1.1389,1.1108,1.0579,0.9956,1.0514,0.9868,0.8806,1.0047,1.0064,0.9542,0.9648,0.9669,0.9518,0.8504,0.8199,0.0,0.0,0.0,0.0,0.0,0.0,0.0,0.0,0.0,0.0,0.0,0.0,0.0,0.0,0.0,0.0,0.0,0.0,0.0,0.0,0.0,0.0,0.0,0.0,0.0,0.0,0.0,0.0,0.0,0.0,0.0,0.0,0.0,0.0,0.0,0.0,0.0,0.0,0.0,0.0,0.0,-0.088,-0.179,-0.2681,-0.2681,-0.2681,-0.2637,-0.1746,-0.1835,-0.2637,-0.1746,-0.1344,-0.1254,-0.0359,-0.0539,-0.1344,-0.1344,-0.1879,-0.2681,-0.2681,-0.2681,-0.286,0.0,0.0,0.0,0.0,0.0,0.0,0.0,0.0,0.0,0.0,0.0,0.0,1.6629,1.5925,1.5419,1.5355,1.3835,1.2426,1.1437,1.228,1.2388,1.1423,1.2554,0.0,1.1879,1.3021,1.3179,1.2278,1.2291,1.2305,1.2305,1.2305,1.2285,1.2258,1.2258,1.2104,1.1879,1.1879,1.1683,1.132,1.0372,0.9944,0.9834,0.9165,0.8886,0.8952,1.0296,1.0765,1.0691,1.0708,1.0714,1.0559,0.9523,0.9221,0.0,0.0,0.0,0.0,0.0,0.0,0.0,0.0,0.0,0.0,0.0,0.0,0.0,0.0,0.0,0.0,0.0,0.0,0.0,0.0,0.0,0.0,0.0,0.0,0.0,0.0,0.0,0.0,0.0,0.0,0.0,0.0,0.0,0.0,0.0,0.0,0.0,0.0,0.0,0.0,0.0,-0.0044,-0.0135,-0.018,-0.018,-0.018,-0.018,-0.0135,-0.0135,-0.018,-0.0135,-0.009,-0.009,-0.0045,-0.0045,-0.009,-0.009,-0.0135,-0.018,-0.018,-0.018,-0.0359,0.0,0.0,0.0,0.0,0.0,0.0,0.0,0.0,0.0,0.0,0.0,0.0,0.0,1.5062,1.4345,1.376,1.2631,1.1881,1.1732,1.206,1.2178,1.1977,1.241,1.2501,1.2144,1.2574,1.2629,1.2305,1.2305,1.2305,1.2305,1.2305,1.2305,1.2305,1.2305,1.2245,1.2144,1.2144,1.2084,1.1876,1.0876,1.0471,1.0446,1.0166,0.0,0.0,0.0,0.0,0.0,1.1768,1.1768,1.1583,1.0565,0.0,0.0,0.0,0.0,0.0,0.0,0.0,0.0,0.0,0.0,0.0,0.0,0.0,0.0,0.0,0.0,0.0,0.0,0.0,0.0,0.0,0.0,0.0,0.0,0.0,0.0,0.0,0.0,0.0,0.0,0.0,0.0,0.0,0.0,0.0,0.0,0.0,0.0,0.0,0.0,0.0,0.0,0.0,0.0,0.0,0.0,0.0,0.0,0.0,0.0,0.0,0.0,0.0,0.0,0.0,0.0,0.0,0.0,0.0,0.0,0.0,0.0,-0.018,0.0,0.0,0.0,0.0,0.0,0.0,0.0,0.0,0.0,1.7126,0.0,0.0,0.0,0.0,1.5025,1.408,1.3766,1.3447,1.3012,1.3303,1.3257,1.2799,1.3091,1.2981,1.2298,1.2629,1.2629,1.2305,1.2305,1.2305,1.2305,1.2305,1.2305,1.2305,1.2305,1.2305,1.2305,1.2305,0.0,1.2187,0.0,0.0,1.0746,0.0,0.0,0.0,0.0,0.0,0.0,0.0,0.0,0.0,0.0,0.0,0.0,0.0,0.0,0.0,0.7783,0.0,0.0,0.0,0.0,0.0,0.0,0.0,0.0,0.0,0.0,0.0,0.0,0.0,0.0,0.0,0.0,0.0,0.0,0.0,0.0,0.0,0.0,0.0,0.0,0.0,0.0,0.0,0.0,0.0,0.0,0.0,0.0,0.0,0.0,0.0,0.0,0.0,0.0,0.0,0.0,0.0,0.0,0.0,0.0,0.0,0.0,0.0,0.0,0.0,0.0,0.0,0.0,0.0,0.0,0.0,0.0,-0.0135,0.0,0.0,0.0,0.0,0.0,0.0,0.0,0.0,1.8008,1.8008,0.0,0.0,0.0,0.0,0.0,1.6602,1.7329,1.7044,1.5234,1.5965,1.5614,1.3745,1.4593,1.4235,1.2335,1.3208,1.32,1.2305,1.2305,1.2305,1.2305,1.2305,1.2305,1.2305,1.2305,1.2305,1.2305,0.0,1.2305,1.2114,0.0,0.9933,1.0596,0.0,0.0,0.0,0.9296,0.9296,0.0,0.0,0.0,0.0,0.0,0.0,0.0,0.0,0.0,0.0,0.0,0.0,0.0,0.0,0.0,0.0,0.0,0.0,0.0,0.0,0.0,0.0,0.0,0.0,0.0,0.0,0.0,0.0,0.0,0.0,0.0,0.0,0.0,0.0,0.0,0.0,0.0,0.0,0.0,0.0,0.0,0.0,0.0,0.0,0.0,0.0,0.0,0.0,0.0,0.0,0.0,0.0,0.0,0.0,0.0,0.0,0.0,0.0,0.0,0.0,0.0,0.0,0.0,0.0,0.0,0.0,0.0,0.0,0.0,0.0,0.0,0.0,0.0,0.0,1.7842,1.7939,1.8008,0.0,0.0,0.0,1.707,1.5728,1.4772,1.4522,1.4127,1.3658,1.3127,1.3339,1.3266,1.2696,1.2945,1.2835,1.2298,1.2556,1.2556,1.2305,1.2305,1.2305,1.2305,1.2305,1.2305,1.2305,1.2305,1.2305,1.2305,1.2305,0.0,1.2187,1.0901,1.0559,0.0,0.0,0.0,0.0,0.0,0.9296,0.9296,0.0,0.9782,1.0565,0.0,0.0,0.0,0.0,0.0,0.0,0.9064,0.0,0.0,0.0,0.0,0.0,0.0,0.0,0.0,0.0,0.0,0.0,0.0,0.0,0.0,0.0,0.0,0.0,0.0,0.0,0.0,0.0,0.0,0.0,0.0,0.0,0.0,0.0,0.0,0.0,0.0,0.0,0.0,0.0,0.0,0.0,0.0,0.0,0.0,0.0,0.0,0.0,0.0,0.0,0.0,0.0,0.0,0.0,0.0,0.0,0.0,0.0,0.0,0.0,0.0,0.0,0.0,0.0,0.0,0.0,0.0,0.0,0.0,0.0,1.8008,1.8008,1.8008,0.0,0.0,0.0,1.7242,1.6158,1.5482,1.5482,1.4977,1.4692,1.4692,1.4692,1.4514,1.4119,1.4083,1.3903,1.352,1.3091,1.2879,1.2879,1.2482,1.2305,1.2305,1.2305,1.2305,1.2305,1.2305,1.2305,0.0,0.0,0.0,0.0,1.0752,0.0,0.0,0.9216,0.8922,0.0,0.0,0.0,0.9183,0.8313,0.8988,0.0,0.0,0.0,0.0,0.0,0.0,0.0,0.0,0.0,0.0,0.0,0.0,0.0,0.0,0.63,0.0,0.0,0.0,0.0,0.0,0.0,0.0,0.0,0.0,0.0,0.0,0.0,0.0,0.0,0.0,0.0,0.0,0.0,0.0,0.0,0.0,0.0,0.0,0.0,0.0,0.0,0.0,0.0,0.0,0.0,0.0,0.0,0.0,0.0,0.0,0.0,0.0,0.0,0.0,0.0,0.0,0.0,0.0,0.0,0.0,0.0,0.0,0.0,0.0,0.0,0.0,0.0,0.0,0.0,0.0,1.8008,1.8008,1.8008,1.8008,0.0,1.8008,1.8008,1.8008,1.7906,1.7794,1.7691,1.7691,1.7657,1.7545,1.7613,1.7329,1.6498,1.6428,1.6035,1.5234,1.4314,1.3882,1.3882,1.2915,1.2445,1.2445,1.2342,1.2305,1.2305,1.2305,0.0,0.0,0.0,0.0,1.1959,1.0196,0.9933,0.0,0.0,0.8275,0.0,0.7974,0.8199,0.8727,0.7176,0.7821,0.0,0.0,0.0,0.0,0.0,0.955,0.0,0.0,0.0,0.0,0.0,0.0,0.0,0.63,0.63,0.63,0.0,0.0,0.0,0.0,0.0,0.0,0.0,0.0,0.0,0.0,0.0,0.0,0.0,0.0,0.0,0.0,0.0079,0.0,0.0,0.0,0.0,0.0,0.0,0.0,0.0,0.0,0.0,0.0,0.0,0.0,0.0,0.0,0.0,0.0,0.0,0.0,0.0,0.0,0.0,0.0,0.0,0.0,0.0,0.0,0.0,0.0,0.0,0.0,0.0,0.0,0.0,0.0,0.0,0.0,0.0,1.8008,1.8008,1.8008,1.8008,1.8008,1.8008,1.8008,1.732,1.6576,1.5799,1.5737,1.5411,1.4601,1.5305,1.5658,1.5482,1.5473,1.5376,1.5199,1.5021,1.4914,1.4914,1.3918,1.3419,1.3419,1.2666,1.2305,1.2305,1.2305,0.0,0.0,0.0,0.0,1.105,1.0677,0.0,0.9448,0.8275,0.7403,0.6872,0.6679,0.6718,0.7061,0.0,0.896,0.9448,0.0,0.0,0.0,0.0,0.0,0.0,0.0,0.0,0.0,0.0,0.0,0.0,0.63,0.63,0.63,0.0,0.0,0.0,0.0,0.0,0.0,0.0,0.0,0.0,0.0,0.0,0.0,0.0,0.0,0.0,0.0,0.051,0.0,0.0,0.0,0.0,0.0,0.0,0.0,0.0,0.0,0.0,0.0,0.0,0.0,0.0,0.0,0.0,0.0,0.0,0.0,0.0,0.0,0.0,0.0,0.0,0.0,0.0,0.0,0.0,0.0,0.0,0.0,0.0,0.0,0.0,0.0,0.0,0.0,0.0,1.8008,1.8008,1.8008,1.8008,1.7569,1.7113,1.6655,1.6184,1.572,1.5234,1.5199,1.5199,1.5155,1.5614,1.5895,1.5895,1.5895,1.5685,1.5199,1.47,1.445,1.445,1.3491,1.2989,1.2989,1.2519,1.2305,1.2305,1.2305,0.0,0.0,0.0,1.1996,1.1465,1.0453,0.0,0.8428,0.7442,0.6756,0.63,0.63,0.63,0.6528,0.805,0.8879,0.0,0.0,1.004,1.0153,0.0,1.0072,0.9286,0.0,0.0,0.0,0.7288,0.0,0.0,0.0,0.63,0.63,0.0,0.0,0.0,0.0,0.0,0.0,0.0,0.0,0.0,0.0,0.0,0.0,0.0,0.0,0.0,0.0,0.141,0.0592,0.004,0.0,0.0,0.0,0.0,0.0,0.0,0.0,0.0,0.0,0.0,0.0,0.0,0.0,0.0,0.0,0.0,0.0,0.0,0.0,0.0,0.0,0.0,0.0,0.0,0.0,0.0,0.0,0.0,0.0,0.0,0.0,0.0,0.0,0.0,0.0,0.0,0.0,1.8008,1.8008,1.8008,1.7173,1.6315,1.5544,1.5305,1.5128,1.4914,1.5092,1.5517,1.628,1.6498,1.6671,1.6853,1.6888,1.6498,1.5763,1.495,1.445,1.4271,1.331,1.2769,1.2556,1.2372,1.2305,1.2305,1.2305,0.0,0.0,0.0,0.0,1.1589,0.0,0.8917,0.8232,0.7061,0.6606,0.6567,0.6377,0.63,0.649,0.7668,0.0,0.9334,0.9518,0.9448,0.0,0.0,0.0,0.0,0.0,0.0,0.0,0.0,0.0,0.6834,0.0,0.0,0.0,0.0,0.0,0.0,0.0,0.0,0.0,0.0,0.0,0.0,0.0,0.0,0.0,0.0,0.0,0.0,0.0,0.2308,0.1269,0.0408,0.0123,0.0,0.0,0.0,0.0,0.0,0.0,0.0,0.0,0.0,0.0,0.0,0.0,0.0,0.0,0.0,0.0,0.0,0.0,0.0,0.0,0.0,0.0,0.0,0.0,0.0,0.0,0.0,0.0,0.0,1.8008,1.8008,0.0,0.0,0.0,0.0,0.0,1.8008,1.8008,1.8008,1.7173,1.6567,1.6454,1.5685,0.0,1.3954,0.0,0.0,1.534,0.0,1.6957,1.7794,1.7828,1.7794,1.7691,1.7579,1.7113,1.628,1.5332,1.4414,1.3528,1.2696,1.2305,0.0,1.2305,0.0,0.0,0.0,1.1285,0.0,0.941,0.9782,0.0,0.8347,0.7633,0.7518,0.6602,0.63,0.6606,0.0,0.9226,0.9448,0.0,1.0002,0.0,0.0,0.0,0.0,0.0,0.0,0.0,0.0,0.9031,0.0,0.0,0.0,0.0,0.0,0.0,0.0,0.0,0.0,0.0,0.0,0.0,0.0,0.0,0.0,0.0,0.0,0.0,0.0,0.0,0.2738,0.1597,0.1583,0.0586,0.0,0.0,0.0,0.0,0.0,0.0,0.0,0.0,0.0,0.0,0.0,0.0,0.0,0.0,0.0,0.0,0.0,0.0,0.0,0.0,0.0,0.0,0.0,0.0,0.0,0.0,0.0,0.0,0.0,1.8008,1.8008,0.0,0.0,0.0,0.0,0.0,1.8008,1.7794,1.7251,1.6853,1.6384,0.0,0.0,0.0,0.0,0.0,1.3738,0.0,0.0,1.5685,1.5517,0.0,0.0,1.4728,1.5234,1.5057,1.4112,1.3694,1.331,1.2879,1.2482,1.2305,0.0,1.1694,0.0,1.1428,0.0,0.0,0.0,0.0,0.0,0.0,0.7927,0.6945,0.6872,0.6451,0.63,0.6416,0.0,0.8351,0.0,0.0,0.0,0.0,0.0,0.0,0.0,0.0,0.0,0.0,0.0,0.0,0.0,0.8841,0.0,0.7668,0.0,0.0,0.0,0.0,0.0,0.0,0.0,0.0,0.0,0.0,0.0,0.0,0.0,0.0,0.0,0.0,0.0,0.0,0.0,0.1711,0.1037,0.106,0.0402,0.0,0.0,0.0,0.0,0.0,0.0,0.0,0.0,0.0,0.0,0.0,0.0,0.0,0.0,0.0,0.0,0.0,0.0,0.0,0.0,0.0,0.0,0.0,0.0,0.0,0.0,1.8008,0.0,0.0,0.0,0.0,0.0,0.0,0.0,0.0,0.0,0.0,0.0,1.5992,1.4727,0.0,0.0,1.2928,1.2703,0.0,0.0,1.4879,0.0,0.0,0.0,0.0,0.0,1.3774,1.3091,1.2806,1.2556,1.2305,1.2305,1.2305,1.2268,0.0,1.1199,1.1199,0.0,0.0,1.0858,1.1583,1.1279,1.011,0.7663,0.6528,0.63,0.63,0.63,0.6338,0.6606,0.7668,0.0,0.8351,0.0,0.0,0.0,0.0,0.0,1.164,0.0,0.0,0.0,0.0,0.0,0.0,0.0,0.0,0.0,0.0,0.0,0.0,0.0,0.0,0.0,0.0,0.0,0.0,0.0,0.0,0.0,0.0,0.0,0.0,0.0,0.0,0.414,0.2954,0.2274,0.2277,0.1165,0.0494,0.0494,0.018,0.0,0.0,0.0,0.0,0.0,0.0,0.0,0.0,0.0,0.0,0.0,0.0,0.0,0.0,0.0,0.0,0.0,0.0,0.0,0.0,0.0,0.0,0.0,1.8008,1.8008,0.0,0.0,0.0,0.0,0.0,0.0,0.0,0.0,0.0,0.0,0.0,0.0,0.0,0.0,0.0,1.2703,1.3637,0.0,1.5199,0.0,0.0,1.6576,0.0,0.0,0.0,1.5128,1.4135,1.3208,1.2305,1.2305,1.2305,1.2305,0.0,1.2261,1.2261,1.2261,1.1694,1.0783,1.082,1.0265,0.9221,0.0,0.7138,0.63,0.63,0.0,0.0,0.7442,0.7783,0.0,0.0,0.0,0.0,0.0,0.0,0.0,0.0,0.0,0.0,1.2798,0.0,0.0,0.0,0.0,1.1312,0.0,0.0,0.0,0.0,0.0,0.8343,0.8343,0.0,0.0,0.0,0.0,0.0,0.0,0.0,0.0,0.0,0.0,0.0,0.5338,0.4206,0.354,0.3522,0.2413,0.1746,0.1746,0.0628,0.0,0.0,0.0,0.0,0.0,0.0,0.0,0.0,0.0,0.0,0.0,0.0,0.0,0.0,0.0,0.0,0.0,0.0,0.0,0.0,0.0,0.0,0.0,0.0,0.0,0.0,0.0,0.0,0.0,0.0,1.8857,0.0,0.0,0.0,0.0,0.0,0.0,1.4522,0.0,0.0,1.3015,1.3355,1.4282,0.0,0.0,0.0,1.6504,0.0,0.0,0.0,0.0,0.0,0.0,1.3237,1.3237,1.2915,1.2268,0.0,1.1316,0.0,0.0,0.0,0.0,0.0,1.0602,1.019,0.0,0.0,0.8275,0.8275,0.8275,0.0,0.8694,0.9253,0.9739,0.941,1.0117,1.0894,0.9774,0.9805,0.0,0.0,0.0,0.953,1.086,0.0,0.0,0.0,0.0,0.0,0.0,0.0,0.0,0.0,0.0,0.7267,0.7267,0.7031,0.0,0.0,0.0,0.0,0.0,0.0,0.0,0.0,0.0,0.0,0.6508,0.5455,0.4789,0.4774,0.2904,0.179,0.179,0.0628,0.0,0.0,0.0,0.0,0.0,0.0,0.0,0.0,0.0,0.0,0.0,0.0,0.0,0.0,0.0,0.0,0.0,0.0,0.0,0.0,0.0,0.0,0.0,1.9238,0.0,0.0,0.0,0.0,0.0,0.0,0.0,0.0,0.0,1.7558,0.0,1.653,0.0,1.4857,0.0,1.384,1.3365,1.3738,1.4304,0.0,1.3547,1.5485,0.0,0.0,0.0,0.0,0.0,0.0,1.4533,1.3515,1.3515,1.3215,1.2587,0.0,0.0,1.1496,0.0,1.144,0.0,0.0,1.1409,0.0,0.0,1.0046,0.9296,0.0,0.9296,0.9311,0.9425,0.9866,1.0334,0.9774,1.0645,1.1597,1.0171,1.0072,1.0323,1.0044,0.9165,0.0,1.0005,0.9704,0.0,1.1078,0.0,0.0,0.0,0.0,0.0,0.0,0.0,0.0,0.7489,0.7197,0.696,0.0,0.0,0.0,0.0,0.0,0.0,0.0,0.0,0.7095,0.7095,0.6428,0.6027,0.0,0.0,0.2458,0.2458,0.0852,0.0,0.0,0.0,0.0,0.0,0.0,0.0,0.0,0.0,0.0,0.0,0.0,0.0,0.0,0.0,0.0,0.0,0.0,0.0,0.0,0.0,0.0,0.0,0.0,0.0,0.0,0.0,1.9346,0.0,0.0,0.0,1.7899,0.0,1.7315,1.6779,1.7098,1.5986,1.524,1.524,1.4034,0.0,1.4691,1.466,0.0,0.0,1.4684,1.4645,1.4608,0.0,0.0,0.0,0.0,0.0,1.3365,1.3365,1.3286,0.0,1.3213,0.0,1.2804,1.2804,1.2643,1.2345,1.2345,1.2556,1.2804,1.2804,1.1441,0.9483,0.9483,0.9483,0.9514,0.9803,0.9875,0.9911,1.0255,1.0374,1.0379,1.0298,0.9486,0.8873,1.0065,0.9583,0.9002,1.0216,0.0,0.0,0.0,0.0,1.0524,0.0,0.0,0.0,0.0,0.0,0.0,0.889,0.7925,0.7183,0.0,0.0,0.0,0.0,0.0,0.0,0.0,0.7095,0.7095,0.7095,0.7095,0.0,0.0,0.0,0.3614,0.3614,0.1254,0.0,0.0,0.0045,0.0045,0.0,0.0045,0.0045,0.0,0.0,0.0,0.0,0.0,0.0,0.0,0.0,0.0,0.0,0.0,0.0,0.0,0.0,0.0,0.0,2.0214,2.0282,2.0282,0.0,2.0282,2.0282,0.0,0.0,0.0,0.0,1.6621,1.5688,1.5019,1.4629,1.4421,1.4421,1.4068,0.0,0.0,0.0,0.0,1.3932,1.4885,1.5137,1.4615,1.5654,0.0,1.6905,0.0,0.0,1.5434,0.0,0.0,0.0,0.0,0.0,1.3093,1.3093,1.3046,1.2979,1.2979,1.3019,0.0,0.0,1.272,1.2186,1.2186,1.2186,1.2192,1.2267,1.2293,1.2299,1.2414,1.2578,1.2572,1.1688,1.1394,1.1207,1.0675,0.9713,0.8913,0.9266,0.8663,0.8229,0.0,0.0,0.0,0.0,0.0,0.0,0.0,0.0,0.0,0.0,0.8627,0.0,0.0,0.0,0.0,0.0,0.0,0.0,0.0,0.0,0.7095,0.7095,0.7095,0.0,0.0,0.0,0.0,0.3614,0.1254,0.0,0.0,0.0897,0.0897,0.0,0.0897,0.0852,0.0,0.0,0.0,0.0,0.0,0.0,0.0,0.0,0.0,0.0,0.0,0.0,0.0,0.0,0.0,0.0,2.0556,0.0,0.0,2.0605,0.0,0.0,2.0527,0.0,0.0,1.8149,1.6675,0.0,1.4859,1.437,1.4088,1.4088,1.4088,0.0,0.0,0.0,0.0,1.4516,1.4836,1.4814,1.4377,1.5604,0.0,1.684,0.0,0.0,1.6667,0.0,0.0,0.0,0.0,1.3945,0.0,1.3267,1.3213,1.3213,1.3213,0.0,0.0,1.336,1.348,1.3594,1.3594,1.3427,1.3227,1.336,1.336,1.3387,1.3554,1.3318,1.2929,1.2242,1.149,1.0654,1.0009,0.9013,0.8101,0.8101,0.7621,0.7272,0.7973,0.8101,0.8101,0.0,0.0,0.0,0.0,0.0,0.0,0.0,0.0,0.0,0.0,0.0,0.0,0.0,0.0,0.0,0.0,0.0,0.0,0.0,0.0,0.0,0.0,0.0,0.0,0.4374,0.2058,0.1031,0.1567,0.1746,0.1746,0.1567,0.1746,0.1433,0.0762,0.0225,0.0,0.0,0.0,0.0,0.0,0.0,0.0,0.0,0.0,0.0,0.0,0.0,0.0,0.0,0.0,0.0,0.0,0.0,0.0,0.0,0.0,1.9432,0.0,1.855,0.0,1.5496,1.5496,1.465,1.4088,1.4088,0.0,1.4489,1.5421,1.4615,1.4531,1.5462,1.4615,1.4088,1.4088,1.5012,0.0,0.0,0.0,0.0,0.0,0.0,0.0,0.0,0.0,0.0,0.0,1.3467,1.3327,1.3327,1.3327,1.3474,1.366,1.366,1.3861,1.4088,1.4088,1.3761,1.336,1.3573,1.366,1.3706,1.4008,1.3379,1.2547,1.2547,1.1128,0.9584,0.9584,0.858,0.7573,0.7573,0.7312,0.7095,0.7095,0.7095,0.7095,0.7095,0.7095,0.7095,0.0,0.0,0.0,0.0,0.0,0.0,0.0,0.0,0.0,0.0,0.0,0.0,0.0,0.0,0.0,0.0,0.0,0.0,0.0,0.0,0.0,0.5403,0.3218,0.2547,0.357,0.0,0.2726,0.357,0.2681,0.2192,0.2013,0.0941,0.0494,0.0494,0.0494,0.0494,0.0494,0.0494,0.0359,0.0225,0.0045,0.0,0.0,0.0,0.0,0.0,0.0,0.0,0.0,0.0,0.0,2.0362,2.0566,1.8132,1.6273,1.6273,1.5179,1.437,1.437,1.4208,1.4088,1.4088,1.4088,0.0,0.0,0.0,0.0,1.437,1.4208,1.4088,1.4088,1.4292,1.5269,0.0,0.0,0.0,0.0,0.0,0.0,0.0,0.0,0.0,1.5292,1.4358,0.0,1.3935,1.3935,1.3961,1.4008,1.4008,1.4041,1.4088,1.4088,1.4021,1.3941,1.3995,1.4008,1.4015,1.4075,1.3955,1.3779,1.3779,1.3519,1.3173,1.3173,1.1606,1.0005,1.0005,0.8532,0.7095,0.7095,0.7095,0.7095,0.7095,0.7095,0.7095,0.7095,0.0,0.0,0.0,0.0,0.0,0.0,0.0,0.0,0.0,0.0,0.0,0.0,0.0,0.0,0.0,0.0,0.0,0.0,0.0,0.0,0.0,0.4018,0.0,0.0,0.0,0.4374,0.3614,0.4376,0.4241,0.326,0.3081,0.2948,0.2948,0.2948,0.2948,0.2948,0.2948,0.237,0.1389,0.0404,0.0,0.0,0.0,0.0,0.0,0.0,0.0,0.0,0.0,0.0,0.0,0.0,1.794,0.0,1.7326,1.5951,1.4936,1.4936,1.4454,1.4088,1.4088,1.4088,1.4088,1.4088,1.4088,1.4088,1.4088,1.4088,0.0,1.4088,1.4088,1.5151,1.7302,0.0,0.0,0.0,0.0,0.0,0.0,0.0,1.5869,0.0,0.0,0.0,1.4088,1.4088,1.4088,1.4088,1.4088,1.4088,1.4088,1.4088,1.4088,1.4088,1.4088,1.4088,1.4088,1.4088,1.3688,1.316,1.316,1.2729,1.2303,1.2303,1.1477,1.0611,1.0611,0.9744,0.8921,0.8921,0.8448,0.8013,0.8013,0.7533,0.7272,0.7929,0.8496,0.0,0.0,0.0,0.0,0.0,0.0,0.0,0.0,0.0,0.0,0.0,0.0,0.0,0.0,0.0,0.0,0.0,0.0,0.0,0.0,0.0,0.0,0.0,0.0,0.0,0.5395,0.5401,0.509,0.4508,0.3881,0.3614,0.3614,0.3614,0.3614,0.3614,0.3614,0.326,0.2681,0.2102,0.1879,0.179,0.1165,0.1344,0.17,0.0,2.0605,0.0,0.0,1.9883,0.0,1.9362,1.839,1.7908,1.855,1.7123,1.5944,1.5737,1.4936,1.4334,1.413,1.4088,1.4088,1.4088,1.4088,1.4088,1.4088,1.4088,1.4088,1.4088,1.4088,1.5026,0.0,0.0,0.0,0.0,0.0,0.0,0.0,0.0,0.0,0.0,0.0,1.4088,1.4088,1.4088,1.4088,1.4088,1.4088,1.4088,1.4088,1.4088,1.4088,1.4088,1.4088,1.4088,1.4088,1.4088,1.3464,1.2674,1.2674,1.2035,1.1348,1.1348,1.1171,1.095,1.095,1.0783,1.0611,1.0611,0.9923,0.9279,0.9279,0.8321,0.7753,0.8715,0.8671,0.0,0.0,0.0,0.0,0.0,0.0,0.0,0.0,0.0,0.0,0.0,0.0,0.0,0.0,0.0,0.0,0.0,0.0,0.0,0.0,0.0,0.6204,0.7095,0.0,0.6204,0.7095,0.6204,0.5761,0.5714,0.4774,0.4328,0.4328,0.4328,0.4328,0.4328,0.4061,0.3972,0.3972,0.3703,0.3614,0.3481,0.2547,0.2769,0.3303,0.0,0.0,0.0,0.0,0.0,0.0,0.0,1.952,1.851,1.7585,1.7302,1.6764,1.582,1.5621,1.5179,1.4166,1.4088,1.4088,1.4088,1.4088,1.4088,1.4088,1.4088,1.4088,1.4088,1.4088,1.4657,0.0,0.0,0.0,0.0,0.0,0.0,0.0,0.0,0.0,0.0,1.4489,1.4088,1.4088,1.4088,1.4088,1.4088,1.4088,1.4088,1.4088,1.4088,1.4088,1.4088,1.4088,1.4088,1.4088,1.4088,1.3997,1.3913,1.3913,1.387,1.3779,1.3779,1.2984,1.2157,1.2157,1.1338,1.0611,1.0611,1.0524,1.0438,1.0438,0.9536,0.8759,0.889,0.8017,0.7272,0.0,0.0,0.0,0.0,0.0,0.0,0.0,0.0,0.0,0.0,0.0,0.0,0.0,0.0,0.0,0.0,0.0,0.0,0.7095,0.0,0.7007,0.7095,0.7007,0.7007,0.7095,0.7007,0.6962,0.6918,0.6827,0.6782,0.6782,0.6782,0.6782,0.6694,0.5669,0.5223,0.5134,0.4016,0.3614,0.357,0.3481,0.3481,0.3392,0.0,0.0,0.0,0.0,0.0,0.0,0.0,2.0245,1.9805,1.9353,1.8101,1.7131,1.6723,1.6642,1.6486,1.6041,1.5428,1.5054,1.5054,1.4454,1.4088,1.4088,1.4088,1.4088,1.4088,1.4088,1.4615,0.0,0.0,0.0,0.0,0.0,0.0,0.0,0.0,1.5745,1.4692,1.4292,1.4088,1.4088,1.4088,1.4088,1.4088,1.4088,1.4088,1.4088,1.4088,1.4088,1.4088,1.4088,1.4088,1.4088,1.4088,1.4088,1.4088,1.4088,1.4088,1.4088,1.4088,1.3737,1.3379,1.3379,1.3039,1.2693,1.2693,1.212,1.1638,1.1638,1.0697,0.971,0.9017,0.8496,0.7929,0.0,0.0,0.0,0.0,0.0,0.0,0.0,0.0,0.0,0.0,0.0,0.0,0.0,0.0,0.0,0.0,0.0,0.0,0.7095,0.0,0.7095,0.7095,0.7095,0.7095,0.7095,0.7095,0.7095,0.7095,0.7095,0.7095,0.7095,0.7095,0.7095,0.7051,0.6605,0.6428,0.6381,0.5888,0.5708,0.562,0.4954,0.5132,0.544,2.0605,0.0,2.0605,0.0,2.0605,2.0605,2.0605,2.0605,2.0605,2.0605,1.9234,1.8141,1.7827,1.7779,1.7666,1.7342,1.6601,1.6191,1.6191,1.547,1.4901,1.4573,1.4573,0.0,1.413,1.4088,1.4447,1.522,1.6322,0.0,0.0,0.0,0.0,0.0,1.5696,1.5095,1.4088,1.4088,1.4088,1.4088,1.4088,1.4088,1.4088,1.4088,1.4088,1.4088,1.4088,1.4088,1.4088,1.4088,1.4088,1.4088,1.4088,1.4088,1.4088,1.4088,1.4088,1.4088,1.4088,1.4088,1.4088,1.4088,1.4088,1.4088,1.4088,1.3428,1.2808,1.2808,1.1901,1.0869,1.0053,0.9623,0.9017,0.7841,0.0,0.0,0.0,0.0,0.0,0.0,0.7095,0.7095,0.7095,0.0,0.0,0.0,0.0,0.0,0.0,0.0,0.0,0.0,0.0,0.0,0.0,0.7095,0.7095,0.7095,0.7095,0.7095,0.7095,0.7095,0.7095,0.7095,0.7095,0.7095,0.7095,0.7095,0.7095,0.7095,0.7095,0.7095,0.7007,0.6204,0.6425,0.6827,2.0605,2.0605,2.0605,2.0605,2.0605,2.0605,2.0605,2.0605,2.0605,2.0605,2.0566,2.0157,1.9116,1.8997,1.851,1.7415,1.7302,1.7302,1.7302,1.7253,1.6805,0.0,0.0,1.5179,1.413,1.4088,1.413,1.413,0.0,0.0,1.5779,0.0,1.6723,1.5696,1.5696,1.5095,1.4088,1.4088,1.4088,1.4088,1.4088,1.4088,1.4088,1.4088,1.4088,1.4088,1.4088,1.4088,1.4088,1.4088,1.4088,1.4088,1.4088,1.4088,1.4088,1.4088,1.4088,1.4088,1.4088,1.4088,1.4088,1.4088,1.4088,1.4088,1.4088,1.4088,1.4088,1.4088,1.3118,1.2285,1.2242,1.1338,1.0226,0.9061,0.0,0.0,0.0,0.0,0.0,0.0,0.7095,0.7095,0.7095,0.0,0.0,0.0,0.0,0.0,0.0,0.0,0.0,0.7095,0.7095,0.0,0.7095,0.7095,0.7095,0.7095,0.7095,0.7095,0.7095,0.7095,0.7095,0.7095,0.7095,0.7095,0.7095,0.7095,0.7095,0.7095,0.7095,0.7095,0.7095,0.7095,0.7095,0.6918,2.1406,2.1505,2.1505,2.1505,2.1505,2.1505,2.1505,2.1505,2.1505,2.1505,2.1211,2.0896,2.0528,2.0261,1.9952,0.0,1.8868,1.8149,0.0,1.6601,1.6067,1.5696,1.5019,1.4768,1.5179,1.4447,1.4088,1.4088,0.0,0.0,0.0,1.6067,1.5628,1.4615,1.4615,1.4412,1.4088,1.4088,1.4088,1.4088,1.4088,1.4088,1.4088,1.4088,1.4088,1.4088,1.4088,1.4088,1.4088,1.4088,1.4088,1.4088,1.4088,1.4088,1.4088,1.4088,1.4088,1.4088,1.4088,1.4088,1.4088,1.4088,1.4088,1.4088,1.4088,1.4088,1.4088,1.4088,1.3779,1.3294,1.2456,1.198,1.1381,1.0221,0.9405,0.0,0.0,0.0,0.0,0.0,0.7095,0.7095,0.0,0.7095,0.0,0.0,0.0,0.0,0.0,0.0,0.0,0.0,0.7095,0.0,0.7095,0.7095,0.7095,0.7095,0.7095,0.7095,0.7095,0.7095,0.7095,0.7095,0.7095,0.7095,0.7095,0.7095,0.7095,0.7095,0.7095,0.7095,0.7095,0.7095,0.7095,0.7051,2.1836,2.1885,2.1885,2.1885,2.1885,2.1885,2.1885,2.1885,2.1885,2.1885,2.165,2.1475,2.1475,2.1084,0.0,2.0615,1.9599,1.8718,1.7989,1.6927,1.6108,1.5737,1.5054,1.4817,1.5095,1.4454,0.0,1.4088,1.4776,1.5095,1.5095,1.5095,1.4734,1.4088,1.4088,1.4088,1.4088,1.4088,1.4088,1.4088,1.4088,1.4088,1.4088,1.4088,1.4088,1.4088,1.4088,1.4088,1.4088,1.4088,1.4088,1.4088,1.4088,1.4088,1.4088,1.4088,1.4088,1.4088,1.4088,1.4088,1.4088,1.4088,1.4088,1.4088,1.4088,1.4088,1.4088,1.4088,1.4088,1.3864,1.3118,1.2984,1.2595,1.1423,1.0654,1.0009,0.9579,0.0,0.0,0.0,0.0,0.0,0.0,0.7095,0.7095,0.0,0.0,0.0,0.0,0.0,0.0,0.7095,0.7095,0.0,0.7095,0.7095,0.7095,0.7095,0.7095,0.7125,0.7227,0.7227,0.7258,0.7264,0.7251,0.7227,0.7221,0.7119,0.7095,0.7095,0.7095,0.7095,0.7095,0.7095,0.7095,0.7095,2.1963,2.1973,0.0,0.0,2.1973,0.0,2.1973,2.1973,2.1973,2.1973,2.1953,2.1934,2.1934,2.1543,2.1113,2.0732,0.0,0.0,0.0,1.8029,1.6927,1.5861,1.5737,1.5213,1.425,1.413,1.4088,1.4088,1.4088,1.4088,1.4088,1.4088,1.4088,1.4088,1.4088,1.4088,1.4088,1.4088,1.4088,1.4088,1.4088,1.4088,1.4088,1.4088,1.4088,1.4088,1.4088,1.4088,1.4088,1.4088,1.4088,1.4088,1.4088,1.4088,1.4088,1.4088,1.4088,1.4088,1.4088,1.4088,1.4088,1.4088,1.4088,1.4088,1.4088,1.4088,1.4088,1.4088,1.4088,1.4088,1.4088,1.4088,1.3688,1.2504,1.2242,1.1766,1.0654,0.0,0.0,0.0,0.0,0.0,0.0,0.7095,0.7095,0.0,0.0,0.0,0.0,0.0,0.7095,0.7095,0.7095,0.7095,0.7095,0.7095,0.7102,0.7112,0.7122,0.7248,0.7433,0.7433,0.7465,0.759,0.7448,0.7433,0.7377,0.7231,0.7129,0.7129,0.7129,0.7129,0.7125,0.7115,0.7112,0.7109,0.0,0.0,2.2799,2.2799,2.2799,2.2799,2.2799,2.2799,2.2799,2.2799,2.2568,2.2363,2.2363,2.1982,2.1689,2.1582,2.0749,1.9883,1.9036,1.8758,1.8109,1.6968,1.615,1.5579,1.5338,1.4531,1.4088,1.4088,1.4088,1.4088,1.4088,1.4088,1.4088,1.4088,1.4088,1.4088,1.4088,1.4088,1.4088,1.4088,1.4088,1.4088,1.4088,1.4088,1.4088,1.4088,1.4088,1.4088,1.4088,1.4088,1.4088,1.4088,1.4088,1.4088,1.4088,1.4088,1.4088,1.4088,1.4088,1.4088,1.4088,1.4088,1.4088,1.4088,1.4088,1.4088,1.4088,1.4088,1.4088,1.4088,1.4088,1.4088,1.3688,1.2504,1.1552,1.0611,0.9449,0.8492,0.0,0.0,0.7536,0.7404,0.7139,0.7095,0.7095,0.0,0.0,0.0,0.0,0.7095,0.7095,0.7095,0.7095,0.7095,0.7095,0.7095,0.72,0.7319,0.7434,0.7509,0.7546,0.7546,0.7563,0.7597,0.756,0.7546,0.7543,0.7506,0.7489,0.7489,0.7489,0.7489,0.7475,0.736,0.7316,0.7299,2.3052,2.3091,2.3091,2.3091,2.3091,2.3091,2.3091,2.3091,2.3091,2.3091,2.2896,2.275,2.275,2.2422,2.2168,2.2168,2.0943,1.9918,1.9299,1.8607,1.7948,1.7342,1.6723,1.6191,1.5703,1.5137,1.4573,1.4088,1.4088,1.4088,1.4088,1.4088,1.4088,1.4088,1.4088,1.4088,1.4088,1.4088,1.4088,1.4088,1.4088,1.4088,1.4088,1.4088,1.4088,1.4088,1.4088,1.4088,1.4088,1.4088,1.4088,1.4088,1.4088,1.4088,1.4088,1.4088,1.4088,1.4088,1.4088,1.4088,1.4088,1.4088,1.4088,1.4088,1.4088,1.4088,1.4088,1.4088,1.4088,1.4088,1.4088,1.4088,1.3913,1.3245,1.2601,1.1997,1.1354,1.0221,0.0,0.8746,0.8229,0.7709,0.7139,0.7095,0.7095,0.7095,0.7095,0.0,0.7095,0.7095,0.7095,0.7095,0.7095,0.7129,0.7244,0.7316,0.7394,0.7478,0.756,0.7634,0.7695,0.7695,0.7736,0.7797,0.7726,0.7695,0.7692,0.7628,0.76,0.76,0.76,0.76,0.759,0.7506,0.7475,0.7465,2.3091,2.3091,2.3091,2.3091,2.3091,2.3091,2.3091,2.3091,2.3091,2.3091,2.3091,2.3091,2.3091,2.2822,2.2607,2.2607,2.1047,2.0026,1.993,1.8647,1.7831,1.7661,1.7408,1.6805,1.5737,1.5538,1.5012,1.4088,1.4088,1.4088,1.4088,1.4088,1.4088,1.4088,1.4088,1.4088,1.4088,1.4088,1.4088,1.4088,1.4088,1.4088,1.4088,1.4088,1.4088,1.4088,1.4088,1.4088,1.4088,1.4088,1.4088,1.4088,1.4088,1.4088,1.4088,1.4088,1.4088,1.4088,1.4088,1.4088,1.4088,1.4088,1.4088,1.4088,1.4088,1.4088,1.4088,1.4088,1.4088,1.4088,1.4088,1.4088,1.4039,1.3864,1.3822,1.3779,1.361,0.0,1.1423,1.0481,0.9318,0.8233,0.7183,0.7095,0.7095,0.7095,0.7095,0.7095,0.7095,0.7119,0.7132,0.7132,0.7132,0.7248,0.745,0.7556,0.7631,0.7631,0.7655,0.7729,0.7845,0.7845,0.7916,0.7982,0.7902,0.7845,0.7834,0.7716,0.7665,0.7665,0.7665,0.7665,0.7662,0.7641,0.7631,0.7628,2.3091,2.3091,2.3091,2.3091,2.3091,2.3091,2.3091,2.3091,2.3091,2.3091,2.3091,2.3091,2.3091,2.3033,2.3003,2.3003,2.2417,2.1897,2.1591,2.0953,2.0211,1.9281,1.7989,1.6805,1.5737,1.481,1.425,1.4088,1.4088,1.4088,1.4088,1.4088,1.4088,1.4088,1.4088,1.4088,1.4088,1.4088,1.4088,1.4088,1.4088,1.4088,1.4088,1.4088,1.4088,1.4088,1.4088,1.4088,1.4088,1.4088,1.4088,1.4088,1.4088,1.4088,1.4088,1.4088,1.4088,1.4088,1.4088,1.4088,1.4088,1.4088,1.4088,1.4088,1.4088,1.4088,1.4088,1.4088,1.4088,1.4088,1.4088,1.4088,1.3779,1.2766,1.2589,1.2248,1.1257,0.0,0.9362,0.9192,0.8101,0.7316,0.7095,0.7095,0.7095,0.7095,0.7095,0.7095,0.7095,0.7265,0.7336,0.7336,0.7336,0.7411,0.7563,0.7706,0.7777,0.778,0.786,0.7934,0.7955,0.7955,0.7968,0.7988,0.7965,0.7955,0.7951,0.7931,0.7921,0.7921,0.7921,0.7921,0.7904,0.7828,0.7777,0.7763,2.3091,2.3091,2.3091,2.3091,2.3091,2.3091,2.3091,2.3091,2.3091,2.3091,2.3091,2.3091,2.3091,2.3091,2.3091,2.3091,2.2916,2.2721,2.2578,2.1281,2.0324,1.985,1.8506,1.7193,1.5923,1.4851,1.4242,1.4088,1.4088,1.4088,1.4088,1.4088,1.4088,1.4088,1.4088,1.4088,1.4088,1.4088,1.4088,1.4088,1.4088,1.4088,1.4088,1.4088,1.4088,1.4088,1.4088,1.4088,1.4088,1.4088,1.4088,1.4088,1.4088,1.4088,1.4088,1.4088,1.4088,1.4088,1.4088,1.4088,1.4088,1.4088,1.4088,1.4088,1.4088,1.4088,1.4088,1.4088,1.4088,1.4088,1.4088,1.4088,1.3913,1.3379,1.3288,0.0,0.0,1.1477,1.0481,0.9879,0.8798,0.7797,0.7183,0.7095,0.7095,0.7095,0.7217,0.7265,0.7265,0.7411,0.7495,0.7495,0.7567,0.7641,0.7712,0.7862,0.7884,0.7887,0.7958,0.7988,0.7988,0.7988,0.7988,0.7988,0.7988,0.7988,0.7988,0.7988,0.7988,0.7988,0.7988,0.7988,0.7982,0.7911,0.7884,0.7877,2.3091,2.3091,2.3091,2.3091,2.3091,2.3091,2.3091,2.3091,2.3091,2.3091,2.3091,2.3091,2.3091,2.3091,2.3091,2.3091,2.3091,2.3091,2.3091,2.1349,2.0397,2.057,1.9059,1.751,1.5886,1.5046,1.4516,1.4289,1.4289,1.4255,1.4188,1.4188,1.4155,1.4088,1.4088,1.4088,1.4088,1.4088,1.4088,1.4088,1.4088,1.4088,1.4088,1.4088,1.4088,1.4088,1.4088,1.4088,1.4088,1.4088,1.4088,1.4088,1.4088,1.4088,1.4088,1.4088,1.4088,1.4088,1.4088,1.4088,1.4088,1.4088,1.4088,1.4088,1.4088,1.4088,1.4088,1.4088,1.4088,1.4088,1.4088,1.4088,1.4088,1.4088,0.0,0.0,0.0,1.3069,1.1986,1.108,1.0009,0.8859,0.7672,0.7586,0.7471,0.7244,0.7356,0.7424,0.7424,0.7567,0.7665,0.7699,0.7773,0.7828,0.7865,0.7931,0.7988,0.7988,0.7988,0.7988,0.7988,0.7988,0.7988,0.7988,0.7988,0.7988,0.7988,0.7988,0.7988,0.7988,0.7988,0.7988,0.7988,0.7988,0.7988,0.7988,2.3091,2.3091,2.3091,2.3091,2.3091,2.3091,2.3091,2.3091,2.3091,2.3091,2.3091,2.3091,2.3091,2.3091,2.3091,2.3091,2.3091,2.3091,2.3091,2.1931,2.1551,2.2301,1.9772,1.7367,1.5147,1.5019,1.4961,1.4941,1.4941,1.4756,1.4489,1.4489,1.4342,1.4088,1.4088,1.4088,1.4088,1.4088,1.4088,1.4088,1.4088,1.4088,1.4088,1.4088,1.4088,1.4088,1.4088,1.4088,1.4088,1.4088,1.4088,1.4088,1.4088,1.4088,1.4088,1.4088,1.4088,1.4088,1.4088,1.4088,1.4088,1.4088,1.4088,1.4088,1.4088,1.4088,1.4088,1.4088,1.4088,1.4088,1.4088,1.4088,1.4088,1.4088,0.0,0.0,1.4088,1.3069,1.2285,1.2194,1.1166,1.0081,0.9073,0.8955,0.858,0.7646,0.7577,0.7584,0.7584,0.7719,0.7862,0.7951,0.7879,0.7879,0.7971,0.7985,0.7988,0.7988,0.7988,0.7988,0.7988,0.7988,0.7988,0.7988,0.7988,0.7988,0.7988,0.7988,0.7988,0.7988,0.7988,0.7988,0.7988,0.7988,0.7988,0.7988,2.3091,2.3091,2.3091,2.3091,2.3091,2.3091,2.3091,2.3091,2.3091,2.3091,2.3091,2.3091,2.3091,2.3091,2.3091,2.3091,2.3091,2.3091,2.3091,2.2677,2.1878,2.0695,1.8897,1.747,1.6375,1.5627,1.5189,1.5008,1.5008,1.4948,1.4796,1.4796,1.478,1.4673,1.4673,1.4673,1.4623,1.4436,1.4355,1.4342,1.4162,1.4088,1.4088,1.4088,1.4088,1.4088,1.4088,1.4088,1.4088,1.4088,1.4088,1.4088,1.4088,1.4088,1.4088,1.4088,1.4215,1.4355,1.4355,1.4222,1.4088,1.4088,1.4088,1.4088,1.4088,1.4088,1.4088,1.4088,1.4088,1.4088,1.4088,1.4088,1.4088,1.4088,0.0,1.4088,1.4088,1.3844,1.3411,1.2699,1.2363,1.1779,1.0682,0.9825,0.9171,0.8831,0.8146,0.7729,0.7729,0.7872,0.7931,0.7988,0.7934,0.7931,0.7988,0.7988,0.7988,0.7988,0.7988,0.7988,0.7988,0.7988,0.7988,0.7988,0.7988,0.7988,0.7988,0.7988,0.7988,0.7988,0.7988,0.7988,0.7988,0.7988,0.7988,0.7988,2.3091,2.3091,2.3091,2.3091,2.3091,2.3091,2.3091,2.3091,2.3091,2.3091,2.3091,2.3091,2.3091,2.3091,2.3091,2.3091,2.3091,2.3091,2.3091,2.3091,2.2173,2.0169,1.9268,1.8378,1.7371,1.6568,1.5846,1.5237,1.5237,1.519,1.5149,1.5149,1.5095,1.5008,1.5008,1.5008,1.4995,1.4743,1.4663,1.4643,1.4442,1.4362,1.4362,1.4362,1.4309,1.4222,1.4222,1.4162,1.4102,1.4195,1.4222,1.4242,1.4329,1.4362,1.4362,1.4362,1.4502,1.4663,1.4663,1.4516,1.4362,1.4362,1.4362,1.4362,1.4362,1.4362,1.4362,1.4362,1.4362,1.4362,1.4362,1.4362,1.4362,1.4362,1.4362,1.4362,1.4362,1.4536,1.4386,1.3566,1.3644,1.3338,1.22,1.1276,1.0422,0.9695,0.892,0.8317,0.7882,0.7934,0.7988,0.7988,0.7988,0.7988,0.7988,0.7988,0.7988,0.7988,0.7988,0.7988,0.7988,0.7988,0.7988,0.7988,0.7988,0.7988,0.7988,0.7988,0.7988,0.7988,0.7988,0.7988,0.7988,0.7988,0.7988,0.7988,2.3091,2.3091,2.3091,2.3091,2.3091,2.3091,2.3091,2.3091,2.3091,2.3091,2.3091,2.3091,2.3091,2.3091,2.3091,2.3091,2.3091,2.3091,2.3091,2.3091,2.2589,2.1382,2.1293,2.0169,1.7731,1.7684,1.7084,1.5784,1.5784,1.5678,1.5398,1.5398,1.5244,1.5015,1.5015,1.5015,1.5015,1.5015,1.5015,1.5015,1.5008,1.5008,1.5008,1.5008,1.4776,1.4479,1.4479,1.4342,1.4135,1.4429,1.4479,1.4576,1.4914,1.5008,1.5008,1.5008,1.5008,1.5015,1.5015,1.5015,1.5015,1.5008,1.5008,1.5008,1.5008,1.5008,1.5008,1.5008,1.5008,1.5008,1.5008,1.5008,1.5008,1.5008,1.5008,1.5008,1.5008,1.5015,1.5015,1.5015,1.5015,1.4566,1.3514,1.3397,1.2457,1.0177,0.9998,0.941,0.8088,0.7988,0.7988,0.7988,0.7988,0.7988,0.7988,0.7988,0.7988,0.7988,0.7988,0.7988,0.7988,0.7988,0.7988,0.7988,0.7988,0.7988,0.7988,0.7988,0.7988,0.7988,0.7988,0.7988,0.7988,0.7988,0.7988,0.7988,2.3091,2.3091,2.3091,2.3091,2.3091,2.3091,2.3091,2.3091,2.3091,2.3091,2.3091,2.3091,2.3091,2.3091,2.3091,2.3091,2.3091,2.3091,2.3091,2.3091,2.295,2.2589,2.0944,1.9314,1.7731,1.6803,1.6204,1.5784,1.5784,1.5738,1.5698,1.5698,1.5651,1.5571,1.5571,1.5571,1.5558,1.5351,1.5264,1.5251,1.5095,1.5008,1.5008,1.5008,1.4955,1.483,1.483,1.4821,1.476,1.4803,1.483,1.4888,1.4981,1.5008,1.5008,1.5008,1.511,1.5264,1.5264,1.5418,1.5471,1.5109,1.5008,1.5008,1.5008,1.5008,1.5008,1.5008,1.5008,1.5008,1.5008,1.5008,1.5008,1.5008,1.5008,1.5008,1.5008,1.5137,1.5264,1.5264,1.4682,1.4446,1.5012,1.2608,1.1099,1.1307,0.9653,0.8432,0.8038,0.7988,0.7988,0.7988,0.7988,0.7988,0.7988,0.7988,0.7988,0.7988,0.7988,0.7988,0.7988,0.7988,0.7988,0.7988,0.7988,0.7988,0.7988,0.7988,0.7988,0.7988,0.7988,0.7988,0.7988,0.7988,0.7988,0.7988,2.3091,2.3091,2.3091,2.3091,2.3091,2.3091,2.3091,2.3091,2.3091,2.3091,2.3091,2.3091,2.3091,2.3091,2.3091,2.3091,2.3091,2.3091,2.3091,2.3091,2.2906,2.2403,2.0989,1.9633,1.8457,1.7669,1.6796,1.5784,1.5784,1.5784,1.5784,1.5784,1.5784,1.5784,1.5784,1.5784,1.5771,1.5645,1.5565,1.5551,1.5378,1.5304,1.5304,1.5304,1.5237,1.5182,1.5182,1.5109,1.5028,1.5142,1.5211,1.5304,1.5304,1.5304,1.5304,1.5304,1.5431,1.5565,1.5565,1.5698,1.5698,1.5391,1.5304,1.5304,1.5304,1.5304,1.5304,1.5304,1.5304,1.5304,1.5304,1.5304,1.5304,1.5304,1.5304,1.5304,1.5304,1.5458,1.5565,1.5565,1.4558,1.4214,1.4949,1.2425,1.0877,1.1116,0.9217,0.7988,0.7988,0.7988,0.7988,0.7988,0.7988,0.7988,0.7988,0.7988,0.7988,0.7988,0.7988,0.7988,0.7988,0.7988,0.7988,0.7988,0.7988,0.7988,0.7988,0.7988,0.7988,0.7988,0.7988,0.7988,0.7988,0.7988,0.7988,0.7988,2.3091,2.3091,2.3091,2.3091,2.3091,2.3091,2.3091,2.3091,2.3091,2.3091,2.3091,2.3091,2.3091,2.3091,2.3091,2.3091,2.3091,2.3091,2.3091,2.3091,2.2633,2.1525,2.148,2.089,1.9679,1.9451,1.8218,1.5967,1.5879,1.5784,1.5784,1.5784,1.5784,1.5784,1.5784,1.5784,1.5784,1.5784,1.5784,1.5784,1.5784,1.5784,1.5784,1.5784,1.5665,1.5438,1.5438,1.5264,1.5129,1.5344,1.5611,1.5784,1.5784,1.5784,1.5784,1.5784,1.5784,1.5784,1.5784,1.5784,1.5784,1.5784,1.5784,1.5784,1.5784,1.5784,1.5784,1.5784,1.5784,1.5784,1.5784,1.5784,1.5784,1.5784,1.5784,1.5784,1.5784,1.5784,1.5784,1.5784,1.4657,1.3926,1.407,1.277,1.1312,0.9948,0.8676,0.7988,0.7988,0.7988,0.7988,0.7988,0.7988,0.7988,0.7988,0.7988,0.7988,0.7988,0.7988,0.7988,0.7988,0.7988,0.7988,0.7988,0.7988,0.7988,0.7988,0.7988,0.7988,0.7988,0.7988,0.7988,0.7988,0.7988,0.7988,0.7988,2.3091,2.3091,2.3091,2.3091,2.3091,2.3091,2.3091,2.3091,2.3091,2.3091,2.3091,2.3091,2.3091,2.3091,2.3091,2.3091,2.3091,2.3091,2.3091,2.3091,2.3003,2.2721,2.2721,2.2129,2.0935,1.9039,1.7824,1.7271,1.6292,1.5784,1.5784,1.5784,1.5784,1.5784,1.5784,1.5784,1.5784,1.5784,1.5784,1.5784,1.5784,1.5784,1.5784,1.5784,1.5744,1.5684,1.5684,1.5698,1.5651,1.5712,1.5731,1.5784,1.5784,1.5784,1.5784,1.5784,1.5784,1.5784,1.5784,1.5784,1.5784,1.5784,1.5784,1.5784,1.5784,1.5784,1.5784,1.5784,1.5784,1.5784,1.5784,1.5784,1.5784,1.5784,1.5784,1.5784,1.5784,1.5784,1.5784,1.5784,1.4657,1.4268,1.5289,1.3253,1.0925,0.8627,0.8187,0.7988,0.7988,0.7988,0.7988,0.7988,0.7988,0.7988,0.7988,0.7988,0.7988,0.7988,0.7988,0.7988,0.7988,0.7988,0.7988,0.7988,0.7988,0.7988,0.7988,0.7988,0.7988,0.7988,0.7988,0.7988,0.7988,0.7988,0.7988,0.7988,2.3091,2.3091,2.3091,2.3091,2.3091,2.3091,2.3091,2.3091,2.3091,2.3091,2.3091,2.3091,2.3091,2.3091,2.3091,2.3091,2.3286,2.3447,2.3447,2.3588,2.3705,2.3705,2.3705,2.3136,2.1824,1.989,1.8481,1.7692,1.7037,1.6386,1.5784,1.5784,1.5784,1.5784,1.5784,1.5784,1.5784,1.5784,1.5784,1.5784,1.5784,1.5784,1.5784,1.5784,1.5784,1.5784,1.5784,1.5784,1.5784,1.5784,1.5784,1.5784,1.5784,1.5784,1.5784,1.5784,1.5784,1.5784,1.5784,1.5784,1.5784,1.5784,1.5784,1.5784,1.5784,1.5784,1.5784,1.5784,1.5784,1.5784,1.5784,1.5784,1.5784,1.5784,1.5784,1.5784,1.5784,1.5784,1.5784,1.5784,1.4657,1.368,1.3108,1.1799,1.0141,0.8137,0.7988,0.7988,0.7988,0.7988,0.7988,0.7988,0.7988,0.7988,0.7988,0.7988,0.7988,0.7988,0.7988,0.7988,0.7988,0.7988,0.7988,0.7988,0.7988,0.7988,0.7988,0.7988,0.7988,0.7988,0.7988,0.7988,0.7988,0.7988,0.7988,0.7988,2.3315,2.3315,2.3315,2.3315,2.3315,2.3315,2.3315,2.3315,2.3315,2.3315,2.3315,2.3315,2.3315,2.3315,2.3315,2.3315,2.3691,2.3896,2.3896,2.4219,2.4414,2.4414,2.4414,2.3895,2.2755,2.1272,1.9576,1.7774,1.7481,1.685,1.5784,1.5784,1.5784,1.5784,1.5784,1.5784,1.5784,1.5784,1.5784,1.5784,1.5784,1.5784,1.5784,1.5784,1.5784,1.5784,1.5784,1.5784,1.5784,1.5784,1.5784,1.5784,1.5784,1.5784,1.5784,1.5784,1.5784,1.5784,1.5784,1.5784,1.5784,1.5784,1.5784,1.5784,1.5784,1.5784,1.5784,1.5784,1.5784,1.5784,1.5784,1.5784,1.5784,1.5784,1.5784,1.5784,1.5784,1.5784,1.5784,1.5784,1.4854,1.3295,1.0921,1.0485,0.9752,0.8432,0.8137,0.7988,0.7988,0.7988,0.7988,0.7988,0.7988,0.7988,0.7988,0.7988,0.7988,0.7988,0.7988,0.7988,0.7988,0.7988,0.7988,0.7988,0.7988,0.7988,0.7988,0.7988,0.7988,0.7988,0.7988,0.7988,0.7988,0.7988,0.7988,0.7988,2.4238,2.4238,2.4238,2.4238,2.4238,2.4238,2.4238,2.4238,2.4238,2.4238,2.4238,2.4238,2.4238,2.4238,2.4238,2.4238,2.4297,2.4336,2.4336,2.4385,2.4414,2.4414,2.4414,2.4322,2.4127,2.2785,2.0766,1.8062,1.67,1.5967,1.5784,1.5784,1.5784,1.5784,1.5784,1.5784,1.5784,1.5784,1.5784,1.5784,1.5784,1.5784,1.5784,1.5784,1.5784,1.5784,1.5784,1.5784,1.5784,1.5784,1.5784,1.5784,1.5784,1.5784,1.5784,1.5784,1.5784,1.5784,1.5784,1.5784,1.5784,1.5784,1.5784,1.5784,1.5784,1.5784,1.5784,1.5784,1.5784,1.5784,1.5784,1.5784,1.5784,1.5784,1.5784,1.5784,1.5784,1.5784,1.5784,1.5784,1.5635,1.4949,1.3488,1.2328,1.1121,0.9801,0.8676,0.7988,0.7988,0.7988,0.7988,0.7988,0.7988,0.7988,0.7988,0.7988,0.7988,0.7988,0.7988,0.7988,0.7988,0.7988,0.7988,0.7988,0.7988,0.7988,0.7988,0.7988,0.7988,0.7988,0.7988,0.7988,0.7988,0.7988,0.7988,0.7988,2.4414,2.4414,2.4414,2.4414,2.4414,2.4414,2.4414,2.4414,2.4414,2.4414,2.4414,2.4414,2.4414,2.4414,2.4414,2.4414,2.4639,2.4775,2.4775,2.5019,2.5156,2.5156,2.5156,2.4803,2.4047,2.3297,2.1874,1.9811,1.8137,1.6898,1.6079,1.6079,1.5985,1.5784,1.5784,1.5784,1.5784,1.5784,1.5784,1.5784,1.5784,1.5784,1.5784,1.5784,1.5784,1.5784,1.5784,1.5784,1.5784,1.5784,1.5784,1.5784,1.5784,1.5784,1.5784,1.5784,1.5784,1.5784,1.5784,1.5784,1.5784,1.5784,1.5784,1.5872,1.6039,1.6079,1.6032,1.5865,1.5784,1.5784,1.5784,1.5784,1.5784,1.5784,1.5784,1.5784,1.5784,1.5784,1.5784,1.5784,1.5784,1.5289,1.4022,1.3343,1.2183,1.0145,0.946,0.8775,0.8038,0.7988,0.7988,0.7988,0.7988,0.7988,0.7988,0.7988,0.7988,0.7988,0.7988,0.7988,0.7988,0.7988,0.7988,0.7988,0.7988,0.7988,0.7988,0.7988,0.7988,0.7988,0.7988,0.7988,0.7988,0.7988,0.7988,0.7988]}]]